[[{"header":{"parameterUnit":"m.s-1","parameterCategory":1,"la1":30.6,"la2":28.766,"lo1":-90.7593,"lo2":-88.6598,"dy":0.0162,"dx":0.0183,"nx":116,"ny":114,"refTime":"2024-03-24T06:00:00:Z","depth":0,"parameterNumber":2,"parameterNumberName":"U-component_of_WINDS"},"data":[0.0,0.0,0.0,0.0,0.0,0.0,0.0,0.0,0.0,0.0,0.0,0.0,0.0,0.0,0.0,0.0,0.0,0.0,0.0,0.0,0.0,0.0,0.0,0.0,0.0,0.0,0.0,0.0,0.0,0.0,0.0,0.0,0.0,0.0,0.0,0.0,0.0,0.0,0.0,0.0,0.0,0.0,0.0,0.0,0.0,0.0,0.0,0.0,0.0,0.0,0.0,0.0,0.0,0.0,0.0,0.0,0.0,0.0,0.0,0.0,0.0,0.0,0.0,0.0,0.0,0.0,0.0,0.0,0.0,0.0,0.0,0.0,0.0,0.0,0.0,0.0,0.0,0.0,0.0,0.0,0.0,0.0,0.0,0.0,0.0,0.0,0.0,0.0,0.0,0.0,0.0,0.0,0.0,0.0,0.0,0.0,0.0,0.0,0.0,0.0,0.0,0.0,0.0,0.0,0.0,0.0,0.0,0.0,0.0,0.0,0.0,0.0,0.0,0.0,0.0,0.0,0.0,0.0,0.0,0.0,0.0,0.0,0.0,0.0,0.0,0.0,0.0,0.0,0.0,0.0,0.0,0.0,0.0,0.0,0.0,0.0,0.0,0.0,0.0,0.0,0.0,0.0,0.0,0.0,0.0,0.0,0.0,0.0,0.0,0.0,0.0,0.0,0.0,0.0,0.0,0.0,0.0,0.0,0.0,0.0,0.0,0.0,0.0,0.0,0.0,0.0,0.0,0.0,0.0,0.0,0.0,0.0,0.0,0.0,0.0,0.0,0.0,0.0,0.0,0.0,0.0,0.0,0.0,0.0,0.0,0.0,0.0,0.0,0.0,0.0,0.0,0.0,0.0,0.0,0.0,0.0,0.0,0.0,0.0,0.0,0.0,0.0,0.0,0.0,0.0,0.0,0.0,0.0,0.0,0.0,0.0,0.0,0.0,0.0,0.0,0.0,0.0,0.0,0.0,0.0,0.0,0.0,0.0,0.0,0.0,0.0,0.0,0.0,0.0,0.0,0.0,0.0,0.0,0.0,0.0,0.0,0.0,0.0,0.0,0.0,0.0,0.0,0.0,0.0,0.0,0.0,0.0,0.0,0.0,0.0,0.0,0.0,0.0,0.0,0.0,0.0,0.0,0.0,0.0,0.0,0.0,0.0,0.0,0.0,0.0,0.0,0.0,0.0,0.0,0.0,0.0,0.0,0.0,0.0,0.0,0.0,0.0,0.0,0.0,0.0,0.0,0.0,0.0,0.0,0.0,0.0,0.0,0.0,0.0,0.0,0.0,0.0,0.0,0.0,0.0,0.0,0.0,0.0,0.0,0.0,0.0,0.0,0.0,0.0,0.0,0.0,0.0,0.0,0.0,0.0,0.0,0.0,0.0,0.0,0.0,0.0,0.0,0.0,0.0,0.0,0.0,0.0,0.0,0.0,0.0,0.0,0.0,0.0,0.0,0.0,0.0,0.0,0.0,0.0,0.0,0.0,0.0,0.0,0.0,0.0,0.0,0.0,0.0,0.0,0.0,0.0,0.0,0.0,0.0,0.0,0.0,0.0,0.0,0.0,0.0,0.0,0.0,0.0,0.0,0.0,0.0,0.0,0.0,0.0,0.0,0.0,0.0,0.0,0.0,0.0,0.0,0.0,0.0,0.0,0.0,0.0,0.0,0.0,0.0,0.0,0.0,0.0,0.0,0.0,0.0,0.0,0.0,0.0,0.0,0.0,0.0,0.0,0.0,0.0,0.0,0.0,0.0,0.0,0.0,0.0,0.0,0.0,0.0,0.0,0.0,0.0,0.0,0.0,0.0,0.0,0.0,0.0,0.0,0.0,0.0,0.0,0.0,0.0,0.0,0.0,0.0,0.0,0.0,0.0,0.0,0.0,0.0,0.0,0.0,0.0,0.0,0.0,0.0,0.0,0.0,0.0,0.0,0.0,0.0,0.0,0.0,0.0,0.0,0.0,0.0,0.0,0.0,0.0,0.0,0.0,0.0,0.0,0.0,0.0,0.0,0.0,0.0,0.0,0.0,0.0,0.0,0.0,0.0,0.0,0.0,0.0,0.0,0.0,0.0,0.0,0.0,0.0,0.0,0.0,0.0,0.0,0.0,0.0,0.0,0.0,0.0,0.0,0.0,0.0,0.0,0.0,0.0,0.0,0.0,0.0,0.0,0.0,0.0,0.0,0.0,0.0,0.0,0.0,0.0,0.0,0.0,0.0,0.0,0.0,0.0,0.0,0.0,0.0,0.0,0.0,0.0,0.0,0.0,0.0,0.0,0.0,0.0,0.0,0.0,0.0,0.0,0.0,0.0,0.0,0.0,0.0,0.0,0.0,0.0,0.0,0.0,0.0,0.0,0.0,0.0,0.0,0.0,0.0,0.0,0.0,0.0,0.0,0.0,0.0,0.0,0.0,0.0,0.0,0.0,0.0,0.0,0.0,0.0,0.0,0.0,0.0,0.0,0.0,0.0,0.0,0.0,0.0,0.0,0.0,0.0,0.0,0.0,0.0,0.0,0.0,0.0,0.0,0.0,0.0,0.0,0.0,0.0,0.0,0.0,0.0,0.0,0.0,0.0,0.0,0.0,0.0,0.0,0.0,0.0,0.0,0.0,0.0,0.0,0.0,0.0,0.0,0.0,0.0,0.0,0.0,0.0,0.0,0.0,0.0,0.0,0.0,0.0,0.0,0.0,0.0,0.0,0.0,0.0,0.0,0.0,0.0,0.0,0.0,0.0,0.0,0.0,0.0,0.0,0.0,0.0,0.0,0.0,0.0,0.0,0.0,0.0,0.0,0.0,0.0,0.0,0.0,0.0,0.0,0.0,0.0,0.0,0.0,0.0,0.0,0.0,0.0,0.0,0.0,0.0,0.0,0.0,0.0,0.0,0.0,0.0,0.0,0.0,0.0,0.0,0.0,0.0,0.0,0.0,0.0,0.0,0.0,0.0,0.0,0.0,0.0,0.0,0.0,0.0,0.0,0.0,0.0,0.0,0.0,0.0,0.0,0.0,0.0,0.0,0.0,0.0,0.0,0.0,0.0,0.0,0.0,0.0,0.0,0.0,0.0,0.0,0.0,0.0,0.0,0.0,0.0,0.0,0.0,0.0,0.0,0.0,0.0,0.0,0.0,0.0,0.0,0.0,0.0,0.0,0.0,0.0,0.0,0.0,0.0,0.0,0.0,0.0,0.0,0.0,0.0,0.0,0.0,0.0,0.0,0.0,0.0,0.0,0.0,0.0,0.0,0.0,0.0,0.0,0.0,0.0,0.0,0.0,0.0,0.0,0.0,0.0,0.0,0.0,0.0,0.0,0.0,0.0,0.0,0.0,0.0,0.0,0.0,0.0,0.0,0.0,0.0,0.0,0.0,0.0,0.0,0.0,0.0,0.0,0.0,0.0,0.0,0.0,0.0,0.0,0.0,0.0,0.0,0.0,0.0,0.0,0.0,0.0,0.0,0.0,0.0,0.0,0.0,0.0,0.0,0.0,0.0,0.0,0.0,0.0,0.0,0.0,0.0,0.0,0.0,0.0,0.0,0.0,0.0,0.0,0.0,0.0,0.0,0.0,0.0,0.0,0.0,0.0,0.0,0.0,0.0,0.0,0.0,0.0,0.0,0.0,0.0,0.0,0.0,0.0,0.0,0.0,0.0,0.0,0.0,0.0,0.0,0.0,0.0,0.0,0.0,0.0,0.0,0.0,0.0,0.0,0.0,0.0,0.0,0.0,0.0,0.0,0.0,0.0,0.0,0.0,0.0,0.0,0.0,0.0,0.0,0.0,0.0,0.0,0.0,0.0,0.0,0.0,0.0,0.0,0.0,0.0,0.0,0.0,0.0,0.0,0.0,0.0,0.0,0.0,0.0,0.0,0.0,0.0,0.0,0.0,0.0,0.0,0.0,0.0,0.0,0.0,0.0,0.0,0.0,0.0,0.0,0.0,0.0,0.0,0.0,0.0,0.0,0.0,0.0,0.0,0.0,0.0,0.0,0.0,0.0,0.0,0.0,0.0,0.0,0.0,0.0,0.0,0.0,0.0,0.0,0.0,0.0,0.0,0.0,0.0,0.0,0.0,0.0,0.0,0.0,0.0,0.0,0.0,0.0,0.0,0.0,0.0,0.0,0.0,0.0,0.0,0.0,0.0,0.0,0.0,0.0,0.0,0.0,0.0,0.0,0.0,0.0,0.0,0.0,0.0,0.0,0.0,0.0,0.0,0.0,0.0,0.0,0.0,0.0,0.0,0.0,0.0,0.0,0.0,0.0,0.0,0.0,0.0,0.0,0.0,0.0,0.0,0.0,0.0,0.0,0.0,0.0,0.0,0.0,0.0,0.0,0.0,0.0,0.0,0.0,0.0,0.0,0.0,0.0,0.0,0.0,0.0,0.0,0.0,0.0,0.0,0.0,0.0,0.0,0.0,0.0,0.0,0.0,0.0,0.0,0.0,0.0,0.0,0.0,0.0,0.0,0.0,0.0,0.0,0.0,0.0,0.0,0.0,0.0,0.0,0.0,0.0,0.0,0.0,0.0,0.0,0.0,0.0,0.0,0.0,0.0,0.0,0.0,0.0,0.0,0.0,0.0,0.0,0.0,0.0,0.0,0.0,0.0,0.0,0.0,0.0,0.0,0.0,0.0,0.0,0.0,0.0,0.0,0.0,0.0,0.0,0.0,0.0,0.0,0.0,0.0,0.0,0.0,0.0,0.0,0.0,0.0,0.0,0.0,0.0,0.0,0.0,0.0,0.0,0.0,0.0,0.0,0.0,0.0,0.0,0.0,0.0,0.0,0.0,0.0,0.0,0.0,0.0,0.0,0.0,0.0,0.0,0.0,0.0,0.0,0.0,0.0,0.0,0.0,0.0,0.0,0.0,0.0,0.0,0.0,0.0,0.0,0.0,0.0,0.0,0.0,0.0,0.0,0.0,0.0,0.0,0.0,0.0,0.0,0.0,0.0,0.0,0.0,0.0,0.0,0.0,0.0,0.0,0.0,0.0,0.0,0.0,0.0,0.0,0.0,0.0,0.0,0.0,0.0,0.0,0.0,0.0,0.0,0.0,0.0,0.0,0.0,0.0,0.0,0.0,0.0,0.0,0.0,0.0,0.0,0.0,0.0,0.0,0.0,0.0,0.0,0.0,0.0,0.0,0.0,0.0,0.0,0.0,0.0,0.0,0.0,0.0,0.0,0.0,0.0,0.0,0.0,0.0,0.0,0.0,0.0,0.0,0.0,0.0,0.0,0.0,0.0,0.0,0.0,0.0,0.0,0.0,0.0,0.0,0.0,0.0,0.0,0.0,0.0,0.0,0.0,0.0,0.0,0.0,0.0,0.0,0.0,0.0,0.0,0.0,0.0,0.0,0.0,0.0,0.0,0.0,0.0,0.0,0.0,0.0,0.0,0.0,0.0,0.0,0.0,0.0,0.0,0.0,0.0,0.0,0.0,0.0,0.0,0.0,0.0,0.0,0.0,0.0,0.0,0.0,0.0,0.0,0.0,0.0,0.0,0.0,0.0,0.0,0.0,0.0,0.0,0.0,0.0,0.0,0.0,0.0,0.0,0.0,0.0,0.0,0.0,0.0,0.0,0.0,0.0,0.0,0.0,0.0,0.0,0.0,0.0,0.0,0.0,0.0,0.0,0.0,0.0,0.0,0.0,0.0,0.0,0.0,0.0,0.0,0.0,0.0,0.0,0.0,0.0,0.0,0.0,0.0,0.0,0.0,0.0,0.0,0.0,0.0,0.0,0.0,0.0,0.0,0.0,0.0,0.0,0.0,0.0,0.0,0.0,0.0,0.0,0.0,0.0,0.0,0.0,0.0,0.0,0.0,0.0,0.0,0.0,0.0,0.0,0.0,0.0,0.0,0.0,0.0,0.0,0.0,0.0,0.0,0.0,0.0,0.0,0.0,0.0,0.0,0.0,0.0,0.0,0.0,0.0,0.0,0.0,0.0,0.0,0.0,0.0,0.0,0.0,0.0,0.0,0.0,0.0,0.0,0.0,0.0,0.0,0.0,0.0,0.0,0.0,0.0,0.0,0.0,0.0,0.0,0.0,0.0,0.0,0.0,0.0,0.0,0.0,0.0,0.0,0.0,0.0,0.0,0.0,1.739,1.6703,0.0,0.0,0.0,0.0,0.0,0.0,0.0,0.0,0.0,0.0,0.0,0.0,0.0,0.0,0.0,0.0,0.0,0.0,0.0,0.0,0.0,0.0,0.0,1.3862,1.4236,1.4236,1.5084,1.5576,1.5576,1.6151,1.6522,1.6522,1.6752,1.6879,1.6879,1.7146,1.7435,1.7653,1.8516,2.0011,2.198,2.2269,2.2632,2.3031,0.0,0.0,0.0,0.0,0.0,0.0,0.0,0.0,0.0,0.0,0.0,0.0,0.0,0.0,0.0,0.0,0.0,0.0,0.0,0.0,0.0,0.0,0.0,0.0,0.0,0.0,0.0,0.0,0.0,0.0,0.0,0.0,0.0,0.0,0.0,0.0,0.0,0.0,0.0,0.0,0.0,0.0,0.0,0.0,0.0,0.0,0.0,0.0,0.0,0.0,0.0,0.0,0.0,0.0,0.0,0.0,0.0,0.0,0.0,0.0,0.0,0.0,0.0,0.0,0.0,0.0,0.0,0.0,0.0,0.0,2.0594,1.9305,0.0,0.0,0.0,0.0,0.0,0.0,0.0,0.0,0.0,0.0,0.0,0.0,0.0,0.0,0.0,0.0,0.0,0.0,0.0,0.0,0.0,1.3956,1.3956,1.4581,1.5017,1.5017,1.5629,1.6029,1.6029,1.6479,1.6795,1.6795,1.7188,1.7435,1.7435,1.7854,1.8187,1.8416,1.9904,2.1741,2.3903,2.4447,2.4537,2.4241,2.4142,0.0,0.0,0.0,0.0,0.0,0.0,0.0,0.0,0.0,0.0,0.0,0.0,0.0,0.0,0.0,0.0,0.0,0.0,0.0,0.0,0.0,0.0,0.0,0.0,0.0,0.0,0.0,0.0,0.0,0.0,0.0,0.0,0.0,0.0,0.0,0.0,0.0,0.0,0.0,0.0,0.0,0.0,0.0,0.0,0.0,0.0,0.0,0.0,0.0,0.0,0.0,0.0,0.0,0.0,0.0,0.0,0.0,0.0,0.0,0.0,0.0,0.0,0.0,2.4526,2.5684,2.6621,2.7051,2.7008,2.6482,2.3828,2.221,2.1244,1.9607,0.0,0.0,0.0,0.0,0.0,0.0,0.0,0.0,0.0,0.0,0.0,0.0,0.0,0.0,0.0,0.0,0.0,0.0,0.0,1.456,1.456,1.5545,1.6173,1.6173,1.7219,1.7861,1.7861,1.7867,1.7894,1.7894,1.7933,1.7973,1.7973,1.8052,1.8607,1.9678,2.2324,2.4365,2.5753,2.6414,2.7038,2.7486,2.6455,2.6309,2.6892,0.0,0.0,0.0,0.0,0.0,0.0,0.0,0.0,0.0,0.0,0.0,0.0,0.0,0.0,0.0,0.0,0.0,0.0,0.0,0.0,0.0,0.0,0.0,0.0,0.0,0.0,0.0,0.0,0.0,0.0,0.0,0.0,0.0,0.0,0.0,0.0,0.0,0.0,0.0,0.0,0.0,2.9377,2.9848,0.0,0.0,0.0,0.0,0.0,0.0,0.0,0.0,0.0,0.0,0.0,0.0,0.0,2.4784,2.4588,2.4264,2.4465,2.5276,2.5528,2.6289,2.7519,2.793,2.8272,2.843,2.7422,0.0,2.6672,2.3626,0.0,0.0,0.0,0.0,0.0,0.0,0.0,0.0,0.0,0.0,0.0,0.0,0.0,0.0,0.0,0.0,0.0,0.0,0.0,0.0,0.0,1.701,1.7911,1.7931,1.8747,1.9119,1.8723,1.8673,1.8491,1.812,1.8366,1.8521,1.8521,1.9229,2.0342,2.1963,2.4608,2.639,2.742,2.8799,2.9805,3.0509,2.9902,2.8837,2.7387,2.7387,0.0,0.0,0.0,0.0,0.0,0.0,0.0,0.0,0.0,0.0,0.0,0.0,0.0,0.0,0.0,0.0,0.0,0.0,0.0,0.0,0.0,0.0,0.0,0.0,0.0,0.0,0.0,0.0,0.0,0.0,0.0,0.0,0.0,0.0,0.0,0.0,0.0,0.0,0.0,2.9407,2.9887,3.0851,2.9867,2.9161,0.0,0.0,0.0,0.0,0.0,0.0,0.0,0.0,0.0,2.6948,2.6929,2.6713,2.6277,2.6548,2.6456,2.6113,2.7461,2.8532,2.9248,2.9676,3.0268,3.0831,2.9659,2.9276,2.9385,2.6114,2.5198,2.5521,0.0,0.0,0.0,0.0,0.9594,0.5218,0.0,0.0,0.0,0.0,0.0,0.0,0.0,0.0,0.0,0.0,0.0,0.0,1.6885,1.8349,1.9388,1.9575,2.012,2.0273,1.9796,1.9611,1.9296,1.8804,1.8979,1.908,1.908,2.0635,2.2314,2.4066,2.6567,2.8315,2.9459,3.1024,3.2239,3.3119,3.2949,3.1299,2.8682,2.8682,2.8688,2.8666,0.0,0.0,0.0,0.0,0.0,0.0,0.0,0.0,0.0,0.0,0.0,0.0,0.0,0.0,0.0,0.0,0.0,0.0,0.0,0.0,0.0,0.0,0.0,0.0,0.0,0.0,0.0,0.0,0.0,0.0,0.0,0.0,0.0,0.0,0.0,0.0,0.0,2.9833,3.0316,3.1645,3.048,2.987,0.0,0.0,0.0,0.0,0.0,0.0,2.8442,2.7853,2.7869,2.8495,2.8746,2.8633,2.8239,2.8423,2.8193,2.7361,2.8819,2.9725,3.0284,3.104,3.1843,3.2385,3.141,3.1122,3.1189,2.7913,2.6832,2.6832,2.3098,2.0558,1.8613,1.5235,1.2561,0.9806,0.0,0.0,0.0,0.0,0.0,0.0,0.0,0.0,0.0,0.0,0.0,1.7481,1.8147,1.9201,2.0108,2.0744,2.1292,2.1599,2.1571,2.0969,2.0601,2.0571,1.9982,1.9654,1.9654,2.2143,2.4048,2.5327,2.7993,3.0299,3.2196,3.2957,3.4066,3.5419,3.4709,3.3525,3.2063,3.2063,3.1252,3.0002,2.9964,0.0,0.0,0.0,0.0,0.0,0.0,0.0,0.0,0.0,0.0,0.0,0.0,0.0,0.0,0.0,0.0,0.0,0.0,0.0,0.0,0.0,0.0,0.0,0.0,0.0,0.0,0.0,0.0,0.0,0.0,0.0,0.0,0.0,0.0,0.0,0.0,0.0,0.0,3.2392,3.1823,0.0,0.0,0.0,0.0,3.1585,3.077,3.075,3.1727,3.0877,3.0873,3.1922,3.1327,3.13,3.1845,2.9913,2.9342,3.0119,2.8946,2.88,2.9734,3.156,3.2322,3.2406,3.2847,3.2943,3.2737,2.9573,2.9157,3.0157,2.5391,2.2324,2.0302,1.7022,1.3604,0.994,0.0,0.0,0.0,0.0,0.0,0.0,1.6522,1.6522,1.6625,1.6964,1.7879,1.885,1.986,2.1339,2.254,2.3283,2.3489,2.3349,2.2979,2.1932,2.1335,2.1335,2.0707,2.1126,2.2832,2.4503,2.6522,2.8841,3.1414,3.3371,3.4688,3.5753,3.6603,3.7077,3.6806,3.6129,3.5081,3.3626,3.2408,3.1495,3.1495,3.0977,0.0,0.0,0.0,0.0,0.0,0.0,0.0,0.0,0.0,0.0,0.0,0.0,0.0,0.0,0.0,0.0,0.0,0.0,0.0,0.0,0.0,0.0,0.0,0.0,0.0,0.0,0.0,0.0,0.0,0.0,0.0,0.0,0.0,0.0,0.0,0.0,0.0,3.2425,3.2168,0.0,3.2638,3.2553,3.297,3.4068,3.3659,3.354,3.4104,3.3172,3.2834,3.3269,3.3702,3.3869,3.3529,3.2577,3.1819,3.1209,3.1091,3.1072,3.14,3.2392,3.2826,3.2847,3.2031,3.1812,3.1936,3.0605,3.0392,3.0528,2.6608,2.3409,2.0427,1.7139,1.3744,0.9977,0.0,0.0,0.0,0.0,0.0,0.0,1.6522,1.6625,1.6921,1.7229,1.8522,1.988,2.1119,2.2673,2.3985,2.4916,2.4756,2.4403,2.3969,2.2532,2.1784,2.2024,2.2052,2.3051,2.5271,2.7221,2.9374,3.176,3.4098,3.5733,3.6621,3.7782,3.8396,3.8633,3.8396,3.799,3.7415,3.5656,3.4201,3.3025,3.2951,3.2622,3.2081,0.0,0.0,0.0,0.0,0.0,0.0,0.0,0.0,0.0,0.0,0.0,0.0,0.0,0.0,0.0,0.0,0.0,0.0,0.0,0.0,0.0,0.0,0.0,0.0,0.0,0.0,0.0,0.0,0.0,0.0,0.0,0.0,0.0,0.0,3.1411,3.1928,3.3036,3.3081,3.3397,3.4379,3.441,3.478,3.6022,3.5868,3.5622,3.5604,3.4821,3.4412,3.4424,3.5353,3.5396,3.4623,3.3971,3.3003,3.1923,3.165,3.1564,3.1871,3.2705,3.3077,3.3077,3.2255,3.2033,3.2175,3.1604,3.1328,3.0934,2.7436,2.4518,2.1614,1.7562,1.4376,1.1108,0.0,0.0,0.0,0.0,0.0,0.0,1.6625,1.7005,1.7353,1.738,1.8902,2.046,2.1816,2.3023,2.4238,2.5555,2.5046,2.4612,2.4612,2.2832,2.2064,2.2753,2.4091,2.5456,2.6954,3.0142,3.2515,3.3935,3.5923,3.7265,3.811,3.8757,3.9411,4.0054,3.9427,3.9122,3.9054,3.8343,3.6751,3.4703,3.4301,3.4194,3.4025,0.0,0.0,0.0,0.0,0.0,0.0,0.0,0.0,0.0,0.0,0.0,0.0,0.0,0.0,0.0,0.0,0.0,0.0,0.0,0.0,0.0,0.0,0.0,0.0,0.0,0.0,0.0,0.0,0.0,0.0,0.0,0.0,0.0,3.2633,3.2057,3.2377,3.4292,3.4532,3.507,3.6387,3.6507,3.6776,3.7434,3.7256,3.6835,3.6215,3.5868,3.5635,3.5554,3.6132,3.5987,3.507,3.3879,3.2893,3.2163,3.0438,3.0059,3.0995,3.2416,3.3077,3.3119,3.3424,3.3633,3.3601,3.2555,3.2168,3.1905,2.7937,2.5549,2.3823,1.8399,1.5633,1.3068,0.0,0.0,0.0,0.0,0.0,1.7814,1.7653,1.7773,1.8178,1.9051,2.0439,2.2003,2.3644,2.5014,2.6123,2.6961,2.6004,2.5345,2.5345,2.349,2.3141,2.4813,2.6205,2.8239,3.1038,3.3012,3.4939,3.6861,3.7886,3.8757,3.9547,3.9733,3.9884,4.0138,4.094,4.1319,4.1319,4.1509,4.0929,3.9623,3.7119,3.5368,3.4389,0.0,0.0,0.0,0.0,0.0,0.0,0.0,0.0,0.0,0.0,0.0,0.0,0.0,0.0,0.0,0.0,0.0,0.0,0.0,0.0,0.0,0.0,0.0,0.0,0.0,0.0,0.0,0.0,0.0,0.0,0.0,3.3037,3.3059,3.2637,3.3607,3.4622,3.516,3.6028,3.6746,3.7135,3.7165,3.7614,3.8781,3.8805,3.858,3.8117,3.844,3.8007,3.6804,3.7663,3.7616,3.6264,3.5253,3.4054,3.2889,3.1237,3.0664,3.0898,3.1325,3.16,3.1878,3.1699,3.2137,3.2973,3.2015,3.2246,3.2614,2.8581,2.5088,2.1957,1.8062,1.2863,0.6813,0.0,0.0,0.0,0.0,0.0,1.8366,1.8131,1.8288,1.8814,1.9746,2.1245,2.2832,2.4433,2.5555,2.6452,2.7111,2.5944,2.5196,2.5196,2.4667,2.5122,2.6894,2.9099,3.1496,3.4023,3.5775,3.7351,3.8905,3.9295,3.9817,4.0561,4.0561,4.073,4.1086,4.1902,4.2201,4.2181,4.2485,4.2344,4.1669,3.9678,3.7992,3.6498,3.5583,3.5224,3.5019,3.4151,3.3863,3.3829,3.3525,0.0,0.0,0.0,0.0,0.0,0.0,0.0,0.0,0.0,0.0,0.0,0.0,0.0,0.0,0.0,0.0,0.0,0.0,0.0,0.0,0.0,0.0,0.0,0.0,3.4557,3.4891,3.3877,3.4771,3.5818,3.6626,3.7614,3.8362,3.8631,3.8901,3.9409,4.0187,4.0009,3.9679,3.925,3.9299,3.8833,3.761,3.7865,3.7236,3.5723,3.4601,3.3428,3.2207,3.1126,3.0703,3.0898,3.0898,3.1113,3.1504,3.1269,3.1777,3.2754,3.1493,3.1426,3.2035,0.0,0.0,0.0,0.0,1.287,0.6393,0.0,0.0,0.0,0.0,0.0,1.8817,1.8327,1.8703,1.9266,2.002,2.1632,2.3191,2.4433,2.5226,2.5854,2.6422,2.5345,2.4657,2.4807,2.6068,2.7549,2.9189,3.2319,3.4778,3.6288,3.8268,3.9546,4.0189,4.029,4.0663,4.1339,4.1339,4.1677,4.2286,4.246,4.2484,4.2375,4.2519,4.2472,4.2285,4.2108,4.1038,3.9434,3.7492,3.7186,3.749,3.5754,3.5018,3.4873,3.4228,0.0,0.0,0.0,0.0,0.0,0.0,0.0,0.0,0.0,0.0,0.0,0.0,0.0,0.0,0.0,0.0,0.0,0.0,0.0,0.0,0.0,0.0,0.0,0.0,3.6006,3.721,3.6205,3.6004,3.6596,3.8302,3.911,3.9798,4.0457,4.1025,4.1414,4.1504,4.0996,4.0432,3.9826,3.9344,0.0,0.0,0.0,3.6027,3.4508,3.3222,3.1912,3.0879,3.0469,3.0488,3.0898,3.0937,3.1191,3.1582,3.1582,3.1949,3.2478,3.0862,3.0173,2.9942,2.7507,2.5789,2.3941,1.8101,1.3149,0.7988,0.0,0.0,0.0,0.0,0.0,1.9515,1.9406,1.9479,1.9961,2.1178,2.2133,2.3191,2.4433,2.5226,2.5644,2.5794,2.5076,2.5032,2.6143,2.7442,2.9523,3.2706,3.4598,3.6501,3.8351,3.9969,4.0832,4.1001,4.1576,4.1948,4.2083,4.2083,4.2151,4.2373,4.3494,4.3973,4.4034,4.4991,4.5401,4.5234,4.4016,4.2302,4.0394,3.9994,3.9605,3.9146,3.8748,3.8273,3.7888,3.775,3.6663,3.5314,3.5182,3.4457,0.0,0.0,0.0,0.0,0.0,0.0,0.0,0.0,0.0,0.0,0.0,0.0,0.0,0.0,0.0,0.0,0.0,0.0,0.0,3.6572,3.6833,3.7405,3.937,3.9052,3.8811,3.917,3.9798,4.0457,4.1115,4.1294,4.1594,4.2132,4.1558,4.1085,4.0548,4.0361,3.9803,3.8793,3.7806,3.6671,3.5154,3.3716,3.2219,3.0898,3.0801,0.0,3.0898,3.125,3.1641,3.2051,3.2051,3.1741,3.1157,3.0447,2.8725,2.6142,2.2727,2.0935,1.9278,1.1067,0.5583,0.1223,0.0,0.0,0.0,0.0,0.0,1.969,1.969,1.969,2.0049,2.1066,2.1784,2.2562,2.355,2.3939,2.4148,2.4148,2.4425,2.535,2.7281,2.9361,3.1957,3.517,3.6712,3.8118,3.9512,4.0629,4.1204,4.1204,4.1948,4.2489,4.2861,4.2861,4.3064,4.3491,4.4156,4.463,4.4808,4.5094,4.5559,4.5942,4.4907,4.3796,4.2726,4.1653,4.1038,4.0607,3.9968,3.953,3.9153,3.8528,3.7775,3.7035,3.6831,3.614,3.5335,0.0,0.0,0.0,0.0,0.0,0.0,0.0,0.0,0.0,0.0,0.0,0.0,0.0,0.0,3.3208,3.4933,0.0,3.6808,3.8131,3.8794,3.9531,4.0504,4.0496,4.0397,4.0397,4.0965,4.1504,4.1833,4.2162,4.2376,4.2408,4.1539,4.0979,4.0614,4.0043,3.9548,3.927,3.744,3.6054,3.5288,3.3077,3.1772,3.1211,3.1211,3.1309,3.1543,3.1738,3.207,3.2461,3.1351,3.0821,3.0624,2.8601,2.5855,2.2506,1.9704,1.8324,1.7169,0.8781,0.1113,-0.5697,0.0,0.0,0.0,0.0,0.0,1.969,1.969,1.969,1.9929,2.0617,2.1186,2.1754,2.2413,2.2555,2.2707,2.295,2.4098,2.595,2.8669,3.1414,3.4242,3.711,3.8633,3.9715,4.029,4.117,4.1644,4.1644,4.2388,4.3132,4.3842,4.3707,4.4045,4.479,4.4654,4.4799,4.5067,4.4833,4.534,4.6202,4.5544,4.5348,4.5209,4.291,4.2023,4.1831,4.0622,4.0006,3.9662,3.864,3.8277,3.8195,3.7793,3.7433,3.6913,3.5926,3.5182,0.0,0.0,0.0,0.0,0.0,0.0,0.0,0.0,3.3791,3.3599,3.4363,3.4493,3.515,3.7051,3.8203,3.8909,3.9247,4.0475,4.1256,4.0924,4.1273,4.1624,4.1743,4.2102,4.2384,4.2357,4.2862,4.2825,4.231,4.1313,4.0626,4.0597,3.9622,3.9118,3.9233,3.6727,3.5178,3.4847,3.2289,3.1191,3.1523,3.1223,3.1455,3.2168,3.186,3.2215,3.2649,3.0317,2.9669,2.9995,2.6439,2.3065,1.9924,1.8261,1.7493,1.6206,0.8625,-0.0832,-0.9887,0.0,0.0,0.0,0.0,0.0,0.0,1.969,1.969,1.9929,2.0617,2.0767,2.1066,2.1724,2.2109,2.2785,2.3834,2.5098,2.7372,3.0889,3.3125,3.5611,3.8599,4.0155,4.1001,4.1068,4.2455,4.3166,4.3166,4.3944,4.4722,4.5432,4.4756,4.4857,4.5534,4.4891,4.4631,4.4729,4.5853,4.6755,4.7429,4.6613,4.6605,4.6837,4.3906,4.2758,4.2652,4.1866,4.078,3.9777,3.9662,3.8437,3.6966,3.6954,3.6412,3.5813,3.5656,3.5554,3.5318,3.4573,3.3897,3.3592,3.4303,3.4428,3.4756,0.0,3.6363,3.6518,3.7292,3.7427,3.7898,3.943,3.8734,3.8488,4.0379,4.0132,4.0088,4.122,4.185,4.2462,4.306,4.2671,4.2396,4.2389,4.2478,4.2252,4.1696,4.0979,4.0588,4.0649,4.0006,3.908,3.7796,3.6162,3.4626,3.3417,3.2033,3.1465,3.1523,3.0259,3.0587,3.2187,3.0997,3.1327,3.2688,2.962,2.836,2.8163,2.4723,2.2009,2.0074,1.92,1.8175,1.6314,0.864,0.0831,-0.6853,0.0,0.0,0.0,0.0,0.0,0.0,0.0,1.969,1.9779,2.0079,2.0109,2.0309,2.0807,2.1268,2.2007,2.319,2.5001,2.7533,3.1072,3.37,3.6502,3.9478,4.0629,4.1407,4.1813,4.2861,4.3639,4.4079,4.4857,4.5602,4.6312,4.6007,4.6041,4.6312,4.6007,4.6068,4.6426,4.6623,4.7296,4.8169,4.6996,4.6435,4.6046,4.3945,4.2079,4.0585,4.0149,3.9661,0.0,3.7751,3.6797,3.6096,3.6096,3.5588,3.5047,3.5487,3.5318,3.4979,3.5115,3.4912,3.4878,3.5622,3.5825,3.6096,3.7178,3.7449,3.7652,3.8396,3.8154,3.8251,3.9714,3.9447,3.9393,4.0703,4.1143,4.1504,4.2053,4.2636,4.288,4.2791,4.2851,4.2882,4.2901,4.2589,4.2164,4.1507,4.095,4.0415,4.0081,3.9854,3.9025,3.7583,3.6054,3.4646,3.3455,3.1091,3.0755,3.2266,2.9619,2.9942,3.291,3.1246,3.0409,3.0041,2.8753,2.6972,2.4993,2.3529,2.117,1.853,1.8942,1.5551,0.9932,0.4382,-0.0831,-0.6309,0.0,0.0,0.0,0.0,0.0,0.0,0.0,0.0,2.005,2.005,2.0238,2.0505,2.0917,2.1471,2.2183,2.3088,2.5079,2.7757,3.1292,3.3897,3.6637,3.9648,4.0899,4.1745,4.2286,4.362,4.4504,4.4891,4.583,4.6658,4.7374,4.6971,4.7005,4.7374,4.6971,4.7043,4.743,4.7223,4.7636,4.831,4.7103,4.6201,4.5286,4.3232,4.0979,3.8918,3.862,3.8112,3.73,3.579,3.5182,3.5013,3.5013,3.4641,3.4336,3.5081,3.5081,3.4912,3.5453,3.5791,3.6062,3.6637,3.6941,3.728,3.8024,3.8193,3.8396,3.914,3.884,3.8877,4.0304,4.0203,4.019,4.1055,4.1803,4.2364,4.2364,4.2773,4.288,4.2402,4.2611,4.2693,4.2524,4.2305,4.1803,4.0857,4.0544,4.013,3.9775,3.9362,3.8477,3.6918,3.5511,3.4075,3.2448,3.0298,3.0007,3.1239,2.8364,2.868,3.1982,3.0642,2.9605,2.8821,2.79,2.6054,2.3529,2.2572,2.019,1.7258,1.8195,1.3356,0.5172,0.0283,-0.3892,-0.7838,0.0,0.0,0.0,0.0,0.0,0.0,0.0,0.0,0.0,2.0959,2.1567,2.2182,2.257,2.3357,2.3983,2.4428,2.5812,2.8281,3.2043,3.366,3.5859,3.8903,4.1102,4.2286,4.2286,4.5111,4.6281,4.5669,4.7072,4.8127,4.882,4.7408,4.75,4.8765,4.7408,4.6786,4.6878,4.7564,4.7865,4.7781,4.7067,4.6315,4.5182,4.158,3.9681,3.8903,3.8159,3.6514,3.4617,3.4539,3.4066,3.3491,3.3491,3.3457,3.3592,3.4303,3.5013,3.5588,3.5577,3.6163,3.6738,3.6772,3.7347,3.8058,3.8802,3.8971,3.9174,3.9884,4.0054,4.0493,4.1982,4.091,4.0288,4.1725,4.1626,4.146,4.146,4.203,4.2372,4.2372,4.1803,4.127,4.0718,4.1191,4.079,3.9095,3.9448,3.9672,3.9697,3.8348,3.6918,3.5398,3.4275,3.2193,2.9143,2.9779,2.927,2.7619,2.6269,2.6573,2.8295,2.8295,2.9213,3.0513,2.7089,2.5517,2.5113,2.1696,1.9077,1.7248,1.7238,1.2602,0.489,-0.2828,-0.8139,-1.1976,0.0,0.0,0.0,0.0,0.0,0.0,0.0,0.0,0.0,0.0,0.0,0.0,0.0,0.0,0.0,0.0,2.6116,2.7875,3.0649,3.3494,3.6207,3.8677,4.1291,4.294,4.3415,4.4914,4.586,4.6168,4.7156,4.7823,4.8072,4.81,4.8142,4.825,4.8175,4.8206,4.824,4.8003,4.7581,4.7056,4.5818,4.455,4.3098,4.0391,3.8294,3.6603,0.0,3.4438,3.3626,3.2645,3.2138,3.1935,3.1935,3.1935,3.209,3.2884,3.4667,3.6274,3.5785,3.6578,3.7753,3.8734,3.9174,3.9681,4.0899,4.0452,3.9781,4.0067,3.8547,3.7559,3.891,3.7997,3.7514,3.9327,4.0262,4.0726,4.0726,4.2043,4.2521,4.1205,4.1056,4.0423,3.8947,3.9723,4.0069,3.9537,3.9295,3.886,3.8218,3.7796,3.6518,3.4296,3.2793,3.1262,2.9797,2.7744,2.7084,2.7998,2.7455,2.6972,2.6455,2.7878,2.7995,2.7254,2.6375,2.4535,2.1846,2.0786,1.8368,1.5425,1.668,1.0999,0.1406,-0.3652,-0.7975,-1.1971,0.0,0.0,0.0,0.0,0.0,0.0,0.0,0.0,0.0,0.0,0.0,0.0,0.0,0.0,0.0,0.0,0.0,2.7675,2.9935,3.2323,3.4627,3.6725,3.9083,4.0546,4.1039,4.2321,4.32,4.3825,4.5223,4.6152,4.673,4.7241,4.7561,4.7711,4.7838,4.7954,4.7992,4.7045,4.6045,4.4988,4.3579,4.1914,4.0121,3.8125,3.6332,0.0,3.3152,3.2611,3.2476,3.1529,3.119,3.1258,3.1495,3.1935,3.2529,3.3317,3.5069,3.6713,3.6534,3.7398,3.8599,3.9783,4.029,4.0832,4.2016,4.1143,4.0084,4.0084,3.7955,3.6393,3.7524,3.6692,3.6394,3.7879,3.8993,3.9858,4.0337,4.1504,4.1983,4.1205,4.0715,3.9829,3.8394,3.8569,3.8916,3.9129,3.8492,3.7892,3.7536,3.6464,3.5268,3.3728,3.1603,3.0088,2.9287,2.6446,2.5574,2.6321,2.6321,2.6054,2.5517,2.6267,2.6178,2.5576,2.4595,2.2741,2.0204,1.8943,1.7043,1.475,1.5017,0.9101,-0.0421,-0.5566,-0.9549,-1.2671,0.0,0.0,0.0,0.0,0.0,0.0,0.0,0.0,0.0,0.0,0.0,0.0,0.0,0.0,0.0,0.0,0.0,0.0,2.9832,3.0417,3.1464,3.3248,3.4867,3.5746,3.5746,3.7756,3.8899,3.9012,4.14,4.3266,4.4628,4.4927,4.5725,4.6888,4.6258,4.5998,4.5914,4.4555,4.3212,4.1747,4.044,3.8633,3.6535,3.5013,3.3998,3.322,3.1732,3.1224,3.1258,3.1258,3.1292,3.1427,3.2171,3.3389,3.4709,3.5408,3.6265,3.7077,3.7773,3.8483,3.9309,4.0087,4.0713,4.1388,4.2132,4.1088,3.9972,3.9939,3.8172,3.6805,3.7566,3.699,3.6693,3.7529,3.8135,3.8901,4.0217,4.0487,4.0995,4.2085,4.0704,3.9329,3.8946,3.7704,3.7232,3.8013,3.7229,3.6882,3.7323,3.4626,3.3308,3.3654,3.085,2.8811,2.7522,2.6152,2.4588,2.2859,2.2859,2.3788,2.5248,2.3693,2.3983,2.5432,2.186,2.032,1.9849,1.629,1.494,1.4936,1.2352,0.6852,-0.0556,-0.8275,-1.2396,-1.4331,0.0,0.0,0.0,0.0,0.0,0.0,0.0,0.0,0.0,0.0,0.0,0.0,0.0,0.0,0.0,0.0,0.0,0.0,2.8435,3.0517,3.1918,3.2409,3.4811,3.6131,3.6131,3.727,3.789,3.7911,3.9109,3.9985,4.0416,4.0659,4.1079,4.1565,4.1555,4.1579,4.161,4.0743,3.9827,3.8908,3.8018,3.6941,3.5757,3.4269,3.3558,3.322,3.1732,3.1529,3.2002,3.2002,3.2374,3.2983,3.3694,3.4573,3.5363,3.5604,3.7014,3.8468,3.872,3.9696,4.0967,4.2252,4.1875,4.1388,4.2119,4.0248,3.8146,3.7701,3.5854,3.4393,3.4576,3.4455,3.4816,3.6507,3.8112,3.9439,4.0277,4.1654,4.2,4.0538,3.9637,3.8889,3.8292,3.6218,3.5989,3.8517,3.7006,3.5981,3.5899,3.4393,3.3231,3.2555,2.9565,2.8039,2.8031,2.5084,2.3393,2.2859,2.2859,2.3133,2.3543,2.3606,2.2894,2.1559,2.1186,1.9094,1.5923,1.5084,1.3914,1.2201,0.8708,0.4382,-0.0562,-0.8025,-1.2045,-1.3927,0.0,0.0,0.0,0.0,0.0,0.0,0.0,0.0,0.0,0.0,0.0,0.0,0.0,0.0,0.0,0.0,0.0,0.0,0.0,2.9701,3.0568,3.0737,3.2235,3.3109,3.3109,3.355,3.3954,3.4284,3.5221,3.6017,3.6681,3.743,3.7966,3.835,3.8661,3.8796,3.8787,3.783,3.7021,0.0,0.0,3.4336,3.3592,3.2747,3.2442,3.2374,3.1867,3.2341,3.3288,3.3626,3.4032,3.4438,3.4844,3.596,3.7152,3.7519,3.8757,4.0071,4.0381,4.0775,4.1431,4.2568,4.1758,4.0717,4.1167,3.9208,3.7126,3.6502,3.4607,3.3066,3.3066,3.3305,3.3963,3.537,3.7255,3.896,4.0217,4.1181,4.1485,4.0925,3.9476,3.8372,3.7903,3.5868,3.5265,3.6805,3.5235,3.4567,3.5244,3.3633,3.2236,3.0992,2.8714,2.7018,2.592,2.3924,2.2859,2.2859,2.2859,2.2859,2.2873,2.2357,2.1463,2.0274,1.8993,1.7068,1.4677,1.3841,1.2772,1.1063,0.5537,0.1124,-0.2941,-0.8644,-1.2335,-1.4649,0.0,0.0,0.0,0.0,0.0,0.0,0.0,0.0,0.0,0.0,0.0,0.0,0.0,0.0,0.0,0.0,0.0,0.0,0.0,0.0,2.8615,2.8975,2.8975,2.8975,2.8975,2.8975,2.9365,3.0063,3.0966,3.2117,3.3486,3.4607,3.5544,3.624,3.6399,3.65,3.6427,3.53,3.448,3.3817,3.2616,3.1765,3.119,0.0,3.1258,3.1461,3.2273,3.3389,3.4607,3.5487,3.5791,3.5825,3.6129,3.755,3.9309,4.0155,4.0865,4.1508,4.2112,4.1699,4.1321,4.192,4.0836,3.9588,3.9614,3.7928,3.6105,3.5365,3.3667,3.2288,3.2079,3.2733,3.36,3.4345,3.6171,3.8242,4.0247,4.011,4.0302,4.1853,3.9598,3.7748,3.7369,3.5681,3.459,3.4549,3.3001,3.2881,3.5024,3.2834,3.0933,2.9368,2.7905,2.5881,2.2996,2.2859,2.2859,2.2859,2.2859,2.2859,2.2859,2.0931,2.0204,2.0036,1.6374,1.4658,1.4498,1.259,1.1762,1.0787,0.3237,-0.237,-0.6561,-0.9661,-1.2997,-1.5954,0.0,0.0,0.0,0.0,0.0,0.0,0.0,0.0,0.0,0.0,2.6653,2.7103,0.0,0.0,0.0,0.0,0.0,0.0,0.0,0.0,0.0,2.9012,2.8975,2.8975,2.8975,2.8975,2.9049,2.9195,2.9381,3.0283,3.1825,3.1321,3.1865,3.3237,3.2533,3.2256,3.2256,3.2037,3.1822,3.172,3.1467,3.1292,3.119,3.119,0.0,0.0,3.3626,3.4269,3.4709,3.6096,3.6569,3.6907,3.8768,3.958,4.0155,4.1508,4.2016,4.2146,4.2185,4.2121,4.1862,4.1358,3.9596,3.7966,3.7465,3.5646,3.3666,3.2308,3.1678,3.1079,2.982,3.1174,3.2803,3.4031,3.6487,3.8931,4.0935,4.0754,4.0399,4.0374,3.8359,3.6771,3.6117,3.4078,3.3333,3.5,3.2633,3.1943,3.3832,3.2713,3.1009,2.8488,2.6713,2.4935,2.2859,2.2859,2.2859,2.2859,2.2859,2.2859,2.2873,2.1126,1.9555,1.7919,1.5732,1.3865,1.229,1.1859,1.1674,1.0794,0.3126,-0.41,-1.0242,-1.0783,-1.3051,-1.6034,0.0,0.0,0.0,0.0,0.0,0.0,0.0,2.4601,2.5841,2.7578,2.8605,2.8982,2.8557,2.8443,2.8489,0.0,0.0,0.0,0.0,0.0,0.0,2.8975,2.8975,2.8975,2.8975,2.8975,2.9195,2.9622,0.0,3.0149,3.1074,3.0838,3.0997,3.1497,3.1261,3.119,3.119,3.119,3.119,3.119,3.119,3.119,3.1224,3.163,0.0,0.0,3.4235,3.4742,3.525,3.64,3.6772,3.711,3.8937,4.0054,4.0814,4.1431,4.1922,4.2185,4.2113,4.1526,4.08,4.0451,3.8397,3.6374,3.5736,3.3905,3.1977,3.0939,3.0363,2.9841,2.9121,3.0107,3.1471,3.2783,3.4638,3.6764,3.8909,3.8777,3.8515,3.8714,3.696,3.5456,3.4459,3.3026,3.2462,3.2943,3.1872,3.1976,3.3612,3.1161,2.8904,2.6823,2.5113,2.3788,2.2859,2.2859,2.2859,2.2859,2.3033,2.2532,2.1545,1.9941,1.8032,1.6004,1.4172,1.2692,1.1823,1.1694,1.1667,1.08,0.2989,-0.4681,-1.1436,-1.109,-1.3084,-1.6217,0.0,0.0,0.0,0.0,0.0,0.0,0.0,2.5988,2.7247,2.9298,3.0395,3.074,3.0051,2.9264,2.8821,0.0,0.0,0.0,0.0,0.0,0.0,0.0,2.8975,2.8975,2.8975,0.0,0.0,3.0051,3.0051,0.0,0.0,0.0,0.0,0.0,3.1117,3.119,3.119,3.119,3.119,0.0,0.0,3.1292,3.1529,0.0,0.0,0.0,0.0,3.5115,3.5723,3.6502,3.6726,3.6787,3.81,3.9649,4.0912,4.0823,4.1511,4.2097,4.1629,4.0601,3.9637,3.9313,3.7309,3.5215,3.4252,3.2533,3.0927,2.9927,2.9192,2.8684,2.8492,2.9176,3.0102,3.1309,3.2692,3.4418,3.6706,3.64,3.6225,3.701,3.5537,3.402,3.2902,3.2301,3.1592,3.0976,3.0992,3.1621,3.2849,2.9242,2.6556,2.5502,2.3788,2.2859,2.2859,2.2859,2.2859,2.2859,2.318,2.232,2.0309,1.8672,1.6736,1.4826,1.2765,1.183,1.1823,1.1701,1.1083,0.9613,0.2713,-0.4704,-1.1491,-1.1165,-1.3165,-1.6277,0.0,0.0,0.0,0.0,0.0,0.0,0.0,2.6509,2.8041,3.0442,3.1107,3.1323,3.1249,3.0528,2.9758,0.0,0.0,0.0,0.0,0.0,0.0,0.0,0.0,0.0,0.0,0.0,0.0,2.9665,2.9665,0.0,0.0,0.0,0.0,0.0,0.0,3.119,3.119,3.119,0.0,0.0,0.0,0.0,0.0,0.0,0.0,0.0,0.0,3.5554,3.5723,3.6502,3.6329,3.591,3.6754,3.8455,4.0222,4.0204,4.1115,4.1847,4.032,3.9796,3.9344,3.7956,3.6543,3.4966,3.2838,3.1806,3.0586,2.8433,2.7868,2.7604,2.685,2.7874,2.9225,3.0397,3.1935,3.3734,3.6147,3.5182,3.461,3.5403,3.3743,3.2222,3.173,3.1244,3.0956,3.0898,3.0121,2.9956,3.0427,2.7491,2.5606,2.5517,2.3788,2.2859,2.2859,2.2859,2.2859,2.2859,2.318,2.232,2.0309,1.8672,1.6736,1.4826,1.2765,1.183,1.1823,1.1701,0.9457,0.5953,0.1586,-0.4768,-1.1516,-1.143,-1.3449,-1.6375,0.0,0.0,0.0,0.0,0.0,0.0,2.6319,2.7428,2.8953,3.1571,3.2041,3.2302,3.2779,3.1678,3.0393,2.9085,0.0,0.0,0.0,0.0,0.0,0.0,0.0,0.0,0.0,0.0,3.0027,3.067,3.0939,0.0,0.0,0.0,0.0,0.0,0.0,3.119,3.119,3.119,0.0,0.0,0.0,0.0,0.0,0.0,0.0,0.0,0.0,0.0,3.5566,3.5512,3.5295,3.5005,3.4901,3.5785,3.7032,3.7783,3.867,3.9376,3.9014,3.8614,3.8182,3.7533,3.5718,3.3755,3.25,3.0853,2.9236,2.7974,2.7297,2.6918,2.6602,2.6521,2.6856,2.7952,2.8102,2.8867,3.1125,3.0879,3.0947,3.2097,3.156,3.1071,3.1144,3.1011,3.0721,3.0102,2.7787,2.6681,2.7376,2.6229,2.4979,2.3924,2.3256,2.2859,2.2859,2.3046,2.2571,2.1291,2.1877,2.0329,1.7096,1.6592,1.5231,1.3222,1.2185,1.1782,1.1701,1.1687,0.9323,0.5225,-0.1013,-0.6825,-1.1536,-1.147,-1.349,-1.6665,0.0,0.0,0.0,0.0,0.0,2.4801,2.7102,2.7912,2.9332,3.2239,3.2412,3.2632,3.3697,3.2155,3.0687,2.9806,2.9269,0.0,0.0,0.0,0.0,0.0,0.0,0.0,0.0,0.0,3.0478,3.1011,3.1556,3.1884,0.0,0.0,3.147,3.119,0.0,0.0,0.0,0.0,0.0,0.0,0.0,0.0,0.0,0.0,0.0,0.0,0.0,0.0,0.0,0.0,0.0,3.3953,3.3443,3.353,3.4038,3.5264,3.6476,3.7371,3.7526,3.7345,3.7135,3.7135,3.5096,3.2881,3.2025,3.0129,2.826,2.7105,2.6483,2.5955,2.5652,2.4992,2.4915,2.5867,2.547,2.5632,2.7554,2.781,2.8174,2.9358,2.9477,2.9601,2.9565,2.9554,2.9137,2.8032,2.5895,2.454,2.4694,2.4723,2.4196,2.2996,2.2859,2.2859,2.2859,2.2597,2.1707,2.0204,2.0932,1.9096,1.5035,1.5826,1.4711,1.2054,1.1898,1.1748,1.1626,1.1536,0.9329,0.5081,-0.2753,-0.8155,-1.1681,-1.2023,-1.3897,-1.6789,0.0,0.0,0.0,0.0,0.0,0.0,2.7354,2.7787,2.8962,3.2192,3.1898,3.2008,3.3623,3.1641,3.054,3.1311,2.9916,0.0,0.0,0.0,0.0,0.0,0.0,0.0,0.0,0.0,3.0186,3.0106,3.0914,3.1255,3.123,3.119,3.119,3.119,0.0,0.0,0.0,0.0,0.0,0.0,0.0,0.0,3.4573,0.0,0.0,0.0,0.0,0.0,0.0,0.0,0.0,0.0,0.0,3.2104,3.1775,3.3183,3.496,3.6446,3.5748,3.5998,3.6507,3.6507,3.4839,3.2852,3.1338,2.9794,2.8014,2.5538,2.5016,2.4707,2.3745,2.3526,2.3839,2.4825,2.5004,2.552,2.7105,2.6993,2.6961,2.7558,2.7663,2.7458,2.6605,2.6508,2.5911,2.4501,2.4714,2.4257,2.2983,2.2859,2.2859,2.2859,2.2859,2.2859,2.2859,2.1163,2.0321,2.0074,2.085,1.9011,1.499,1.724,1.6044,1.2054,1.1898,1.1748,1.1626,1.1536,0.9329,0.5081,-0.2753,-0.8155,-1.1818,-1.342,-1.4991,-1.6799,0.0,0.0,0.0,0.0,0.0,0.0,0.0,2.7457,2.8558,3.0687,3.0723,3.1201,3.2816,3.1825,3.1127,3.1384,2.9953,0.0,0.0,0.0,0.0,0.0,0.0,0.0,0.0,3.0327,3.0884,3.1381,3.1595,3.1706,3.1691,3.1346,3.119,3.119,3.119,3.119,0.0,0.0,0.0,0.0,0.0,3.4303,3.4573,0.0,0.0,0.0,0.0,0.0,0.0,0.0,0.0,0.0,0.0,0.0,0.0,3.2038,3.3244,3.4545,3.4745,3.4951,3.4971,3.4391,3.2863,3.1205,2.9727,2.804,2.638,2.5254,2.4492,2.3891,2.3599,2.2914,2.2788,2.3652,2.3283,2.3268,2.4292,2.3933,2.3974,2.505,2.5847,2.6238,2.6135,2.5258,2.468,2.4386,2.3676,2.3078,2.2846,2.2859,2.2859,2.2859,2.2859,2.2859,2.2859,2.2793,2.1257,1.8433,1.9117,1.7161,1.3108,1.3783,1.3215,1.1898,1.1748,1.1599,1.147,1.1525,0.9303,0.5091,-0.2708,-0.8002,-1.1543,-1.3601,-1.5027,-1.688,0.0,0.0,0.0,0.0,0.0,0.0,0.0,2.6576,2.7567,2.9512,2.9475,3.0136,3.2375,3.1347,3.087,3.1751,3.0393,0.0,0.0,0.0,0.0,0.0,0.0,0.0,3.0173,3.0595,3.1247,3.2174,3.2266,3.2216,3.2029,3.2026,3.1732,3.1224,3.1765,3.1867,0.0,0.0,0.0,0.0,3.3998,3.4675,3.4935,0.0,0.0,0.0,0.0,0.0,0.0,0.0,0.0,0.0,0.0,0.0,0.0,0.0,3.1872,3.2431,3.3051,3.3435,3.3422,3.2585,3.1177,2.9781,2.8864,2.7017,2.5301,2.4539,2.3672,2.284,2.2489,2.2032,2.1941,2.2676,2.2406,2.2252,2.2536,2.2426,2.2628,2.3514,2.4055,2.4436,2.4785,2.3888,2.3364,2.3665,2.2941,2.2672,2.2846,2.2859,2.2859,2.2859,2.2859,2.2966,2.3207,2.2743,2.1317,1.8934,1.8566,1.6983,1.442,1.358,1.3148,1.2831,1.1963,1.1531,0.0,1.1457,0.922,0.5029,-0.2827,-0.8072,-1.1545,-1.4238,-1.5659,-1.6907,0.0,0.0,0.0,0.0,0.0,0.0,0.0,2.5421,2.6245,2.8631,2.8264,2.8962,3.2008,3.0442,3.0015,3.2214,0.0,0.0,0.0,0.0,0.0,0.0,0.0,0.0,3.0174,3.0541,3.1291,3.2506,3.2786,3.2788,3.2456,3.3126,3.2645,3.1326,3.2713,3.2949,3.2381,3.3085,3.3423,3.3558,3.4269,3.4979,0.0,0.0,0.0,0.0,0.0,0.0,0.0,0.0,0.0,0.0,0.0,0.0,0.0,0.0,0.0,0.0,0.0,3.1473,3.1804,3.0954,2.9646,2.8528,2.846,2.6507,0.0,2.3599,2.2616,2.1659,2.0799,2.0937,2.1286,2.1714,2.2142,2.2274,2.1697,2.2048,2.2434,2.2727,2.2351,2.2377,2.2701,2.2226,2.2111,2.2392,2.2699,2.2859,2.2859,2.2859,2.2873,2.2899,2.2873,2.314,2.3701,2.1574,2.0568,2.0814,1.9148,1.8107,1.7905,1.6003,1.4872,1.4541,1.2532,1.1531,1.1382,1.1295,0.8922,0.46,-0.282,-0.8053,-1.165,-1.5477,-1.6496,-1.716,0.0,0.0,0.0,0.0,0.0,0.0,0.0,0.0,0.0,0.0,2.7934,2.8338,2.9672,3.0155,3.036,0.0,0.0,0.0,0.0,0.0,0.0,0.0,0.0,0.0,3.0183,2.9937,3.0966,3.3385,3.2766,3.2906,3.3731,3.3495,3.2916,3.2036,3.2374,3.2442,3.2381,3.3085,3.3728,3.4303,3.5047,3.5453,0.0,0.0,0.0,0.0,3.3235,3.2734,0.0,0.0,0.0,0.0,0.0,0.0,0.0,0.0,3.045,3.0054,2.8848,0.0,2.9545,2.8729,2.7639,2.6721,0.0,2.425,2.2616,2.2392,2.1603,2.0857,2.0644,2.0937,2.1043,2.0495,2.1617,2.1881,2.0292,2.0277,2.0818,2.1683,2.1299,2.1558,2.2593,2.2226,2.2111,2.2392,2.2699,2.2859,2.2859,2.2859,2.2966,2.3207,2.2993,2.2926,2.3073,2.2815,2.2024,2.0682,2.0306,1.9268,1.7895,1.5713,1.4677,1.4357,1.2481,1.1484,1.126,1.1287,0.7243,0.0686,-0.3716,-0.7726,-1.1481,-1.5559,-1.6631,-1.7335,0.0,0.0,0.0,0.0,0.0,0.0,0.0,0.0,0.0,0.0,0.0,0.0,0.0,0.0,0.0,0.0,0.0,0.0,0.0,0.0,0.0,0.0,2.8692,2.9136,3.0663,3.0475,3.1497,3.3914,3.3386,3.3562,3.4322,3.4364,3.366,3.2307,3.2645,3.278,3.2882,3.3964,3.4438,3.4539,3.5318,0.0,0.0,0.0,0.0,0.0,3.2461,3.2135,0.0,3.1625,3.1482,3.1424,0.0,0.0,0.0,0.0,2.9442,2.8876,2.7999,2.8038,2.8103,2.6773,2.6064,2.5438,2.4541,2.3136,2.2038,2.2038,2.0817,2.0058,2.0761,2.0304,2.0032,2.0242,2.0743,2.0692,1.9606,1.917,1.9428,2.0755,2.0766,2.1203,2.223,2.2209,2.2298,2.2605,2.2766,2.2859,2.2859,2.2859,2.2939,2.3113,2.2953,2.2993,2.3273,2.3166,2.2754,2.2144,2.1007,2.0078,1.904,1.6057,1.4567,1.4156,1.235,1.1355,1.0953,0.9434,0.6176,0.1623,-0.5318,-0.9336,-1.1575,-1.554,-1.6828,-1.7486,0.0,0.0,0.0,0.0,0.0,0.0,0.0,0.0,0.0,0.0,0.0,0.0,0.0,0.0,0.0,0.0,0.0,0.0,0.0,0.0,0.0,3.0398,2.9611,2.9748,3.0991,3.1167,3.2091,3.3952,3.4116,3.4322,3.4635,3.543,3.4607,3.2476,3.3119,3.3423,3.3491,3.4878,3.5148,3.4709,3.5351,0.0,0.0,0.0,0.0,0.0,0.0,0.0,0.0,3.1482,3.1424,3.1219,3.051,0.0,0.0,0.0,0.0,0.0,2.7537,2.7456,2.7037,2.5467,2.4897,2.4464,2.3564,2.2638,2.1921,2.1686,2.0332,1.9487,2.0504,1.9631,1.9022,1.9957,1.9364,1.8793,1.8812,1.805,1.8081,1.988,2.0288,2.0943,2.2038,2.2324,2.2539,2.2846,2.2859,2.2859,2.2859,2.2859,2.2859,2.2859,2.2859,2.3113,2.3621,2.3126,2.3166,2.3768,2.1691,2.0838,2.0721,1.6836,1.491,1.4562,1.2359,1.1226,1.0677,0.7801,0.5569,0.309,-0.6525,-1.073,-1.161,-1.5522,-1.6742,-1.7647,0.0,0.0,0.0,0.0,0.0,0.0,0.0,0.0,0.0,0.0,0.0,0.0,0.0,0.0,0.0,0.0,0.0,0.0,0.0,0.0,0.0,3.1498,3.0642,3.0004,2.9796,3.0455,3.1602,3.3269,3.4069,3.4677,3.5186,3.6195,3.5385,3.3254,3.3355,3.3423,3.3457,3.4303,3.4979,3.5453,3.5554,0.0,0.0,0.0,0.0,0.0,0.0,0.0,0.0,3.1482,3.1043,3.045,3.0329,0.0,0.0,0.0,0.0,0.0,2.685,2.6321,2.5853,2.5562,2.4281,2.3011,2.2857,2.2329,2.1543,2.0086,1.9779,1.9614,1.8837,1.9574,1.9765,1.7866,1.6276,1.5596,1.6263,1.5598,1.6209,1.8996,1.9325,2.0297,2.2734,2.2593,2.2539,2.2846,2.2859,2.2859,2.2859,2.2859,2.2859,2.2859,2.2859,2.2899,2.3006,2.2913,2.3166,2.3768,2.2915,2.2644,2.2741,1.866,1.6737,1.6363,1.2912,1.1233,1.0982,1.0587,0.5318,-0.2711,-0.5258,-0.8324,-1.1689,-1.5391,-1.6746,-1.7669,0.0,0.0,0.0,0.0,0.0,0.0,0.0,0.0,0.0,0.0,0.0,0.0,0.0,0.0,0.0,0.0,0.0,0.0,0.0,3.1282,3.1456,3.1806,3.1597,3.1179,3.0443,3.142,3.2596,3.387,3.4966,3.5882,3.6703,3.6333,3.5385,3.3998,3.3998,3.3998,3.4032,3.4776,3.5318,3.5622,0.0,0.0,0.0,0.0,0.0,0.0,0.0,0.0,0.0,0.0,3.0598,3.0147,2.9192,0.0,0.0,0.0,0.0,0.0,2.5931,2.5301,2.4785,2.4425,2.3716,2.287,2.2352,2.1516,2.068,1.9895,1.8888,1.8197,1.8496,1.7627,1.6476,1.4985,1.419,1.3946,1.4594,1.43,1.4861,1.692,1.7147,1.8273,2.094,2.1213,2.1594,2.2846,2.2859,2.2859,2.2859,2.2859,2.2859,2.2859,2.2859,2.2939,2.3113,2.2953,2.3006,2.3273,2.2993,2.2375,2.1508,1.8432,1.653,1.5229,1.2414,1.1036,1.0846,1.0887,0.5945,-0.2284,-0.6585,-1.0194,-1.339,-1.682,-1.9664,-2.2434,0.0,0.0,0.0,0.0,0.0,0.0,0.0,0.0,0.0,0.0,0.0,0.0,0.0,0.0,0.0,0.0,0.0,0.0,0.0,3.0973,3.1491,3.177,3.2337,3.23,3.1623,3.2689,3.3682,3.4506,3.5779,3.683,3.7618,3.6265,3.5216,3.4506,3.4675,3.4641,3.4539,3.5318,3.5622,3.5577,0.0,0.0,0.0,0.0,0.0,0.0,0.0,0.0,0.0,0.0,0.0,0.0,0.0,0.0,0.0,2.644,2.6164,2.598,2.5087,2.4437,2.394,2.3545,2.3267,2.2859,2.1826,2.0959,2.0107,1.9402,1.7994,1.7071,1.7944,1.5725,1.3668,1.3398,1.3053,1.2868,1.2967,1.2955,1.3469,1.4776,1.5554,1.696,1.9333,2.0323,2.1296,2.2629,2.2752,2.2752,2.2752,2.2752,2.2792,2.2859,2.2859,2.2979,2.322,2.2979,2.2899,2.2966,2.2899,2.216,2.0605,1.8121,1.6108,1.4547,1.1946,1.0867,1.0731,1.0652,0.6973,0.0533,-0.7522,-1.2476,-1.529,-1.8073,-2.2148,-2.6471,0.0,0.0,0.0,0.0,0.0,0.0,0.0,0.0,0.0,0.0,0.0,2.8192,0.0,0.0,0.0,0.0,0.0,0.0,0.0,3.1331,3.1522,3.1808,3.2535,3.2879,3.28,3.3602,3.4157,3.4506,3.6005,3.6785,3.684,3.5994,3.5216,3.4539,3.5216,3.5148,3.4539,3.5318,3.5622,3.5577,3.4925,0.0,0.0,0.0,0.0,0.0,0.0,0.0,0.0,0.0,0.0,0.0,0.0,0.0,2.6371,2.537,2.5087,2.4968,2.4385,2.3785,2.3465,2.3886,2.3284,2.2272,2.1034,2.1047,2.0464,1.7807,1.7477,1.7252,1.625,1.506,1.4321,1.4689,1.3145,1.1622,1.087,1.0809,1.1622,1.3403,1.5462,1.7442,1.9368,2.1432,2.2603,2.2472,2.2458,2.2458,2.2458,2.2458,2.2579,2.2859,2.2859,2.2873,2.2899,2.2873,2.3006,2.3287,2.3006,2.2859,2.2572,1.8672,1.6793,1.6435,1.2616,1.0873,1.0751,1.0658,0.8478,0.4016,-0.6577,-1.2978,-1.6522,-1.8125,-2.1956,-2.6438,0.0,0.0,0.0,0.0,0.0,0.0,0.0,0.0,0.0,0.0,0.0,2.8065,2.7926,2.7897,2.7917,0.0,0.0,0.0,2.9109,2.9829,3.056,3.1397,3.1739,3.2281,3.3196,3.4389,3.5324,3.5926,3.7415,3.7922,3.7483,3.6705,3.5926,3.5216,3.5487,3.5453,3.5216,3.5487,3.5622,3.5532,3.4878,3.417,0.0,0.0,0.0,0.0,0.0,0.0,0.0,0.0,2.9254,2.8748,2.743,2.6714,2.6302,2.53,2.5158,2.5078,2.3667,2.3515,2.3495,2.2213,2.1863,2.1614,2.1174,2.003,1.8732,1.7689,1.7102,1.6429,1.5233,1.3431,1.2361,1.2738,1.1703,1.0854,1.0713,1.0683,1.1073,1.1998,1.384,1.5904,1.7919,1.9714,2.1369,2.2549,2.2352,2.2311,2.2672,2.2512,2.2552,2.2846,2.2859,2.2859,2.2859,2.2859,2.2832,2.2766,2.2832,2.2766,2.2443,1.8586,1.6716,1.6358,1.2453,1.0778,1.0465,0.8328,0.6164,0.3199,-0.8365,-1.4146,-1.6556,-2.0298,-2.3583,-2.6494,0.0,0.0,0.0,0.0,0.0,0.0,0.0,0.0,2.8255,0.0,0.0,0.0,0.0,2.7982,2.7754,0.0,0.0,0.0,2.7809,2.8767,2.9793,3.0784,3.1292,3.2002,3.3017,3.4742,3.5893,3.64,3.7686,3.7922,3.7178,3.6671,3.6129,3.5622,3.5622,3.5622,3.5622,3.5622,3.5622,3.5532,3.4878,3.417,0.0,0.0,0.0,0.0,0.0,0.0,0.0,0.0,2.9002,2.8684,2.7027,2.6533,2.6283,2.5135,2.4982,2.4785,2.3087,2.3084,2.3092,2.1305,2.0838,2.0494,1.9762,1.8721,1.7551,1.6781,1.6002,1.5307,1.4196,1.2685,1.1587,1.1695,1.0907,1.0432,1.0683,1.0717,1.0833,1.1124,1.2795,1.4853,1.6927,1.8716,2.0403,2.2443,2.2124,2.2017,2.2432,2.2258,2.2325,2.2712,2.2632,2.2632,2.2726,2.2726,2.2579,2.2285,2.2579,2.2565,2.2138,1.8407,1.6593,1.6237,1.2359,1.0724,1.0465,0.8056,0.4551,-0.0266,-1.0726,-1.5265,-1.655,-2.1658,-2.4655,-2.6554,0.0,0.0,0.0,0.0,0.0,0.0,2.7176,2.8286,2.8975,2.8975,2.8676,0.0,0.0,0.0,0.0,0.0,2.7303,0.0,2.774,2.8552,2.933,3.0074,3.1495,3.2313,3.2313,3.4438,3.5622,3.5656,3.64,3.64,3.5622,3.5622,3.5622,3.5622,3.5622,3.5622,3.5622,3.5622,3.5622,3.5532,3.4878,3.417,3.3547,0.0,0.0,0.0,0.0,0.0,0.0,0.0,2.9002,2.8684,2.7053,2.6533,2.6193,2.4654,2.4189,2.3952,2.2832,2.2519,2.2255,2.1478,2.0387,1.8827,1.6457,1.7049,1.7298,1.4666,1.4074,1.3802,1.2929,1.2908,1.2815,1.1885,1.1069,1.0548,1.0697,1.0717,1.0833,1.1124,1.2795,1.4853,1.6927,1.8705,2.0245,2.1872,2.171,2.155,2.155,2.155,2.1817,2.2392,2.2138,2.2124,2.2405,2.2418,2.2271,2.1991,2.2271,2.2258,2.1846,1.8329,1.6583,1.6237,1.2359,1.0731,1.0758,1.0658,0.4286,-0.6164,-1.3087,-1.5864,-1.655,-2.1658,-2.4655,-2.6554,0.0,0.0,0.0,0.0,0.0,0.0,2.8296,2.8782,2.8905,2.8615,2.8453,0.0,0.0,0.0,0.0,0.0,0.0,2.7024,2.7392,2.8423,2.9093,2.9296,3.0717,3.1529,3.1529,3.2679,3.4573,3.7246,3.6941,3.6671,3.6434,3.5859,3.5622,3.5622,3.5622,3.5622,3.5622,3.5622,3.5622,3.5532,3.4878,3.417,3.3547,0.0,0.0,0.0,0.0,0.0,0.0,0.0,0.0,0.0,2.7309,2.6498,2.5707,2.5028,2.4399,2.3861,2.276,2.2092,2.1423,2.0279,1.9131,1.7557,1.5155,1.5577,1.6112,1.4808,1.3174,1.2112,1.2988,1.1785,1.095,1.1695,1.1069,1.0548,1.0697,1.0717,1.0792,1.0989,1.2725,1.48,1.6847,1.8461,2.0124,2.2138,2.1643,2.1416,2.183,2.167,2.1724,2.2098,2.2031,2.2031,2.2111,2.2111,2.1964,2.1683,2.1977,2.1964,2.1553,1.8072,1.6359,1.5874,1.2305,1.0731,1.0758,1.0678,0.4294,-0.6164,-1.3087,-1.5864,-1.6679,-2.2974,-2.5782,-2.7241,0.0,0.0,0.0,0.0,0.0,0.0,2.8792,2.8845,2.8664,2.8402,2.8272,2.8029,0.0,0.0,0.0,2.7303,2.7229,2.7233,2.7465,2.8694,2.9431,2.9431,3.0548,3.1326,3.163,3.207,3.3694,3.6569,3.6096,3.5859,3.5859,3.569,3.5622,3.5622,3.5622,3.5622,3.5622,3.5622,3.5622,3.5532,3.4878,3.417,3.3547,0.0,0.0,0.0,0.0,0.0,0.0,0.0,0.0,0.0,2.717,2.6504,2.5836,2.5147,2.4486,2.3867,2.2972,2.202,2.1016,1.977,1.869,1.7194,1.485,1.4048,1.3755,1.3536,1.2165,1.1226,1.1859,1.113,1.0612,1.1147,1.087,1.0616,1.0711,1.0717,1.0778,1.0928,1.264,1.4385,1.5668,1.7803,1.9603,2.0971,2.1083,2.1269,2.1617,2.147,2.151,2.1804,2.1697,2.1697,2.1817,2.1817,2.167,2.1376,2.167,2.1657,2.1248,1.7926,1.6257,1.5654,1.2165,0.9927,0.8456,0.6991,0.1741,-0.6164,-1.3621,-1.6254,-1.6668,-2.3454,-2.6215,-2.7518,0.0,0.0,2.5768,2.6576,0.0,2.8022,2.8865,2.8639,2.8376,2.8376,2.8112,2.7926,0.0,0.0,0.0,2.7469,2.7673,2.7841,2.7944,2.9296,3.0108,3.0108,3.0852,3.1562,3.2171,3.2307,3.3017,3.4303,3.4438,3.4539,3.4607,3.5318,3.5622,3.5622,3.5622,3.5622,3.5622,3.5622,3.5577,3.5487,3.493,3.4185,3.3443,3.2904,0.0,0.0,0.0,0.0,0.0,0.0,0.0,0.0,2.6924,2.6432,2.6177,2.5116,2.4411,2.3803,2.3288,2.212,2.0836,1.9753,1.8488,1.7023,1.4814,1.2452,1.0912,1.1338,1.1208,1.0771,1.0067,1.0927,1.1356,1.0677,1.0622,1.0717,1.0717,1.0717,1.0772,1.0914,1.2269,1.3537,1.4113,1.6768,1.8638,1.9161,2.0362,2.1109,2.1109,2.1109,2.1229,2.151,2.1256,2.1243,2.151,2.151,2.1376,2.1109,2.139,2.1376,2.0982,1.7837,1.5974,1.5265,1.2056,0.8728,0.5095,0.0803,-0.3078,-0.7098,-1.4688,-1.7055,-1.7183,-2.3578,-2.6355,-2.7833,0.0,0.0,2.6612,2.7383,0.0,0.0,2.8842,2.8639,2.8376,2.8376,2.8324,2.8166,2.7926,2.7547,0.0,2.8569,2.8114,2.8185,2.9076,2.9751,3.0108,3.0108,3.136,3.1867,3.1427,3.2577,3.3017,3.2747,3.3931,3.481,3.5385,3.5554,3.5622,3.5622,3.5622,3.5622,3.5622,3.5622,3.5316,3.4849,3.5218,3.4336,3.285,3.3215,3.2532,0.0,0.0,0.0,0.0,0.0,0.0,0.0,2.6749,2.62,2.5632,2.5031,2.407,2.3268,2.3105,2.1498,1.9861,1.9588,1.6498,1.3496,1.3226,1.138,0.9945,1.1005,1.0715,1.0134,1.0025,1.0461,1.0763,1.0473,1.0622,1.0717,1.0717,1.0717,1.0731,1.0765,1.1135,1.2554,1.5652,1.641,1.784,2.089,2.1142,2.1109,2.1109,2.1109,2.1136,2.1203,2.1149,2.1136,2.1203,2.1203,2.1176,2.1109,2.1176,2.1176,2.0982,1.7529,1.453,1.1769,1.1031,0.8745,0.469,-0.4562,-1.0512,-1.3866,-1.6608,-1.8583,-2.0459,-2.447,-2.7258,-2.9769,0.0,0.0,0.0,0.0,0.0,0.0,0.0,0.0,2.7944,2.834,2.8246,2.8084,2.7926,2.7547,0.0,0.0,2.8493,2.8795,2.9725,3.0289,3.0649,3.0649,3.1698,3.2104,3.1732,3.2814,3.3389,3.3322,3.41,3.4709,3.5081,3.5453,3.5622,3.5622,3.5622,3.5622,3.5622,3.5622,3.5191,3.4625,3.4593,3.3814,3.2578,3.2527,3.2125,3.1394,3.0569,0.0,0.0,0.0,0.0,0.0,0.0,0.0,2.5096,2.4556,2.3811,2.3144,2.3144,2.132,1.9255,1.8239,1.5109,1.2462,1.2775,1.104,0.9585,1.0181,1.0094,0.9985,1.0134,1.029,1.0439,1.0575,1.067,1.0717,1.0717,1.0717,1.0717,1.0717,1.2234,1.3336,1.3601,1.6608,1.8582,1.8841,2.0285,2.1109,2.1109,2.1109,2.1109,2.1109,2.1109,2.1109,2.1109,2.1109,2.1109,2.1109,2.1109,2.0195,1.8512,1.6689,1.3979,1.0738,1.0652,0.9716,0.713,-0.3756,-1.1185,-1.5942,-1.6577,-1.8512,-2.1478,-2.4715,-2.8009,-3.1328,0.0,0.0,0.0,0.0,0.0,0.0,0.0,0.0,0.0,2.8406,2.8281,2.8065,2.801,2.7771,2.7851,0.0,0.0,0.0,3.0243,3.0852,3.1258,3.136,3.207,3.2476,3.2476,3.3355,3.4032,3.4506,3.4607,3.4742,3.4912,3.5385,3.5622,3.5622,3.5622,3.5622,3.5622,3.5622,3.5144,3.4399,3.3982,3.3256,3.2327,3.186,3.1571,3.1278,2.9752,2.9129,2.8748,2.7333,0.0,0.0,0.0,0.0,2.4639,2.4033,2.3539,2.3057,2.2862,2.1033,1.8658,1.6456,1.4159,1.2462,1.246,1.0904,0.9347,0.9374,0.9639,0.9937,1.0195,1.0263,1.0358,1.0602,1.0663,1.0683,1.0683,1.0704,1.0717,1.0717,1.3447,1.4493,1.1894,1.7076,1.9546,1.6947,1.9419,2.1109,2.1109,2.1109,2.1109,2.1109,2.1109,2.1109,2.1109,2.1109,2.1109,2.1109,2.1109,1.9291,1.5913,1.6063,1.4137,1.0625,1.0105,1.0136,0.9875,-0.0937,-0.9522,-1.5903,-1.5854,-1.8314,-2.2228,-2.504,-2.8756,-3.2914,0.0,0.0,0.0,0.0,0.0,0.0,0.0,0.0,0.0,0.0,2.8881,2.8725,2.835,2.8607,2.8899,2.9314,2.9721,3.0277,3.0987,0.0,0.0,3.2144,3.2848,3.3254,3.3254,3.4607,3.5047,3.4506,3.5148,3.5825,3.6468,3.5893,3.5622,3.5622,3.5622,3.5622,3.5622,3.5622,3.4864,3.3783,3.4238,3.3341,3.1715,3.2168,3.2018,3.1394,3.045,2.9628,2.8958,2.8398,2.7494,0.0,0.0,0.0,2.4617,2.3567,2.3173,2.2862,2.1854,1.977,1.7369,1.5168,1.3445,1.2151,1.1309,1.0154,0.9218,0.9354,0.972,1.0032,1.0073,1.0188,1.029,1.0331,1.0439,1.0521,1.0521,1.0636,1.0717,1.0717,1.2413,1.4101,1.5135,1.7474,1.9291,2.0322,2.0843,2.1109,2.1109,2.1109,2.1109,2.1109,2.1109,2.1109,2.1109,2.1109,2.1109,2.1109,2.1109,1.9291,1.5913,1.6925,1.4978,1.0485,0.7383,0.7809,0.9875,-0.0937,-0.9492,-1.5924,-1.5954,-1.9815,-2.5391,-2.6224,-2.9757,-3.4463,0.0,0.0,0.0,0.0,0.0,0.0,0.0,0.0,0.0,0.0,0.0,2.8488,2.8691,2.8487,2.8732,2.9757,3.0017,3.0412,3.1157,3.119,3.1529,3.228,3.3017,3.3592,3.3998,3.5081,3.5453,3.5115,3.5453,3.5765,3.6137,3.5804,3.6061,3.6907,3.6907,3.6671,3.6265,3.6265,3.5262,3.363,3.3918,3.3037,3.1511,3.1869,3.1721,3.1336,3.0025,2.954,2.9296,2.816,2.7017,2.5926,2.5654,0.0,0.0,0.0,2.258,2.1676,1.977,1.8503,1.7246,1.5582,1.4248,1.3084,1.1973,1.0957,0.998,0.9557,0.9605,0.9856,1.0019,1.0107,1.0181,1.0263,1.0331,1.0399,1.048,1.0548,1.1016,1.201,1.3709,1.4966,1.5613,1.8291,1.9865,1.9462,2.0498,2.1109,2.1109,2.1109,2.1109,2.1109,2.1109,2.1109,2.1109,2.1109,2.1109,2.1109,2.0068,1.8384,1.5913,1.5744,1.3813,1.0652,0.9029,0.4702,-0.1476,-0.4292,-0.9883,-1.6968,-1.7205,-2.0797,-2.6227,-2.8175,-3.182,-3.6055,0.0,0.0,0.0,0.0,0.0,0.0,0.0,0.0,0.0,0.0,0.0,2.8507,2.8959,0.0,0.0,0.0,3.0432,3.0696,3.1157,3.136,3.1799,3.2544,3.3288,3.4032,3.4776,3.5318,3.5622,3.5622,3.5407,3.5552,3.5875,3.5724,3.6419,3.7853,3.7486,3.6886,3.6233,3.6233,3.5136,3.3339,3.3339,3.2625,3.1482,3.1482,3.1629,3.1515,2.9685,2.9389,2.9586,2.8029,2.6542,2.5405,2.5753,2.4598,0.0,0.0,0.0,2.0025,1.8241,1.7498,1.6936,1.5629,1.4667,1.3823,1.2577,1.1599,1.0798,1.0334,0.9881,0.9737,1.0315,1.0183,1.0025,1.0148,1.0195,1.0383,1.087,1.1048,1.1751,1.3552,1.5416,1.6381,1.6034,1.9096,2.0472,1.8912,2.0168,2.1109,2.1109,2.1109,2.1109,2.1109,2.1109,2.1109,2.1109,2.1109,2.0856,2.0449,1.9152,1.7345,1.5274,1.4847,1.2765,0.9297,0.836,0.0939,-1.0564,-0.8462,-1.1615,-1.777,-1.8721,-2.1978,-2.6482,-2.9761,-3.3559,-3.7268,0.0,0.0,0.0,0.0,0.0,0.0,0.0,0.0,0.0,0.0,0.0,2.9402,2.9118,3.0309,3.1001,3.0699,3.1321,3.1551,3.123,3.1833,3.2544,3.3322,3.4032,0.0,3.5554,3.5588,3.5622,3.5622,3.4958,3.5317,3.665,3.6023,3.6437,3.7744,3.6318,3.5326,3.4675,3.4675,3.3921,3.2625,3.2625,3.216,3.1482,3.1482,3.187,3.2139,2.9854,2.9453,2.98,2.8492,2.6614,2.5026,2.6147,2.4872,2.2862,0.0,0.0,0.0,1.7684,1.6857,1.5629,1.4364,1.4072,1.3777,1.2484,1.1399,1.1112,1.2497,1.098,0.9852,1.1125,1.0584,0.9836,0.9842,0.9964,1.0557,1.2036,1.2424,1.3161,1.4788,1.6735,1.7917,1.7538,1.9625,2.0989,2.0571,2.0949,2.1109,2.1109,2.1109,2.1109,2.1109,2.1109,2.1109,2.1109,2.1109,2.0322,1.864,1.8512,1.6689,1.3456,1.5073,1.2102,0.5499,0.2007,-0.3754,-1.0833,-1.2897,-1.525,-1.7759,-2.0017,-2.3164,-2.7041,-3.0634,-3.4331,-3.7879,0.0,0.0,0.0,0.0,0.0,0.0,0.0,0.0,0.0,0.0,0.0,0.0,0.0,3.0884,3.1381,3.1393,3.1411,3.1351,3.119,3.1427,3.2138,3.3355,3.366,3.437,3.5588,3.5622,3.5622,3.5622,3.4958,3.489,3.5324,3.5071,3.5198,3.5768,3.711,3.6821,3.5326,3.5825,3.4707,3.2602,3.2602,3.216,3.1511,3.1988,3.2317,3.2348,3.1421,3.1078,3.0802,2.9057,2.7358,2.5828,2.5521,2.4382,2.2862,2.1658,2.0116,1.8688,1.787,1.6763,1.5737,1.5248,1.5121,1.4849,1.3732,1.2608,1.1992,1.2871,1.174,1.1062,1.2652,1.1256,0.9788,0.97,1.0642,1.163,1.2356,1.34,1.4725,1.6484,1.7325,1.8153,1.8879,2.0099,2.0708,2.0414,2.0842,2.1109,2.1109,2.1109,2.1109,2.1109,2.209,2.2716,2.2716,2.1601,2.0195,1.8512,1.7345,1.5814,1.391,1.2921,0.8728,0.1739,-0.1873,-0.6176,-1.0812,-1.3294,-1.5714,-1.8349,-2.1436,-2.4747,-2.8282,-3.2916,-3.5742,-3.7748,0.0,0.0,0.0,2.8975,0.0,2.8975,2.8975,2.8975,2.9062,2.9186,0.0,0.0,0.0,0.0,3.1769,3.1809,3.1432,3.119,3.119,3.1664,3.2374,3.3355,3.3897,3.4607,3.5588,3.5622,3.5622,3.5622,3.4688,3.441,3.4601,3.4084,3.3939,3.4297,3.6717,3.6837,3.5331,3.5808,3.4809,3.289,3.289,3.2634,3.2228,3.2677,3.2794,3.2665,3.2338,3.1952,3.1474,3.019,2.8648,2.7082,2.6162,2.432,2.2315,2.1569,2.0116,1.8688,1.7963,1.6763,1.5832,1.5832,1.5832,1.5586,1.4886,1.3834,1.3211,1.4024,1.2625,1.1646,1.3223,1.1429,0.9996,1.0824,1.1651,1.2516,1.3611,1.4761,1.62,1.795,1.8374,1.8872,1.9708,2.0414,2.0695,2.0401,2.0828,2.1362,2.1978,2.1978,2.2215,2.2702,2.3807,2.4178,2.3574,2.1937,1.9903,1.7602,1.5913,1.4259,1.2873,1.0219,0.5633,-0.0267,-0.5095,-0.9006,-1.1976,-1.3919,-1.656,-1.9663,-2.2901,-2.6315,-2.9917,-3.4668,-3.702,-3.8521,2.8975,2.8975,2.8975,2.8975,2.9012,2.9012,2.8975,2.9012,2.9174,2.9564,0.0,0.0,0.0,0.0,0.0,3.1844,3.1432,3.119,3.1224,3.2577,3.3389,3.3423,3.481,3.5588,3.5622,3.5622,3.5577,3.5577,3.4252,3.3918,3.4484,3.3138,3.2856,3.3546,3.494,3.5126,3.4442,3.4535,3.4145,3.3455,3.3484,3.3484,3.3484,3.3514,3.3402,3.3062,3.2493,3.2113,3.1875,3.1806,3.036,2.8575,2.7908,2.4788,2.1391,2.1391,1.9679,1.7777,0.0,0.0,0.0,1.5832,1.5832,1.5832,1.5832,1.4971,1.4541,1.6334,1.3677,1.152,1.3146,1.1285,1.0509,1.3335,1.2836,1.3091,1.6115,1.6797,1.7689,1.9243,1.9867,2.0107,1.9826,2.0588,2.0975,2.0695,2.0949,2.1853,2.345,2.3574,2.4301,2.5863,2.5863,2.513,2.3574,2.1881,1.9206,1.5913,1.4101,1.2429,1.0618,0.6973,0.3212,-0.0669,-0.7794,-1.2109,-1.4454,-1.5554,-1.7942,-2.1339,-2.4715,-2.8211,-3.182,-3.5561,-3.8067,-4.0331,2.8975,2.8975,2.8975,2.8975,2.9475,2.9659,2.9085,2.9512,2.9905,0.0,0.0,0.0,3.2391,3.2486,3.2298,3.1844,3.1432,3.1427,3.1935,3.2374,3.3085,3.4134,3.4573,3.5047,3.5622,3.5622,3.5362,3.4878,3.4053,3.3435,3.3123,3.2725,3.2617,3.2796,3.3698,3.4,3.3845,3.4881,3.4303,3.2826,3.3305,3.3484,3.3544,3.4023,3.4196,3.4184,3.448,3.4068,3.318,3.1667,2.9856,2.7648,2.5187,2.3587,2.258,2.258,2.0854,1.9039,1.9039,0.0,0.0,0.0,0.0,0.0,1.5832,1.4971,1.4592,1.6072,1.5095,1.4289,1.5885,1.4008,1.3118,1.6066,1.4917,1.4381,1.623,1.7749,1.8881,1.9359,1.9693,1.988,1.9813,2.0401,2.0762,2.0681,2.0949,2.1362,2.1727,2.1853,2.2591,2.4178,2.3076,2.2827,2.3574,2.065,1.8093,1.5913,1.4539,1.2873,1.0518,0.4283,-0.1867,-0.7867,-1.1652,-1.4828,-1.7367,-1.7546,-1.965,-2.3024,-2.6419,-2.9917,-3.3538,-3.5949,-3.8204,-4.0555,2.8975,2.8975,2.9085,2.9439,2.9879,3.0173,3.0026,3.0393,3.0834,0.0,0.0,0.0,3.2524,3.2382,3.2022,3.162,3.1623,3.1833,3.228,3.2848,3.3592,3.4438,3.4776,3.5182,3.5622,3.5316,3.5005,3.4592,3.3649,3.3002,3.2602,3.2246,3.2108,3.2138,3.2796,3.2946,3.2766,3.4455,3.4425,3.3395,3.4053,3.4322,3.4382,3.4771,3.4698,3.4375,3.521,3.461,3.3296,3.251,3.0286,2.7519,2.5273,2.3887,2.3144,2.3144,2.1409,1.9497,1.9497,1.7669,1.5832,1.5832,0.0,0.0,1.5832,1.5268,1.513,1.6051,1.5507,1.5112,1.6072,1.4612,1.4019,1.6287,1.5864,1.5727,1.7114,1.8505,1.9372,1.9372,1.9733,1.9987,1.9987,2.0508,2.0855,2.0855,2.1015,2.1362,2.2104,2.2827,2.3544,2.4532,2.3683,2.2923,2.252,1.9853,1.7323,1.5183,1.3515,1.0452,0.6038,0.1873,-0.44,-1.2165,-1.3656,-1.6224,-1.9611,-2.0294,-2.2018,-2.4775,-2.808,-3.154,-3.5054,-3.711,-3.9531,-4.2301,0.0,2.8975,2.9255,3.0063,3.0283,3.0577,3.1274,3.1458,3.1788,0.0,3.2617,3.2637,3.2494,3.2057,3.1657,3.1331,3.1901,3.2381,3.251,3.3761,3.4539,3.4607,3.525,3.5622,3.5622,3.4958,3.4559,3.4496,3.3235,3.2547,3.2437,3.1796,3.1482,3.1511,3.2138,3.2078,3.1601,3.3574,3.4352,3.4442,3.519,3.5519,3.5519,3.5519,3.4905,3.4245,3.5198,3.4409,3.3045,3.3504,3.1129,2.7726,2.6685,2.4893,2.3299,2.3144,2.1498,1.9679,1.9588,1.7762,1.6021,1.5832,1.5832,0.0,1.5832,1.5832,1.5899,1.6166,1.5444,1.4784,1.5124,1.4228,1.3976,1.5376,1.5944,1.6869,1.8255,1.8998,1.9372,1.9372,1.9853,2.0201,2.0227,2.0735,2.1069,2.1109,2.1109,2.1727,2.3201,2.4655,2.5497,2.5497,2.5237,2.3731,2.0724,1.8915,1.6679,1.42,1.1821,0.6965,-0.0,-0.1203,-0.6398,-1.4594,-1.4716,-1.7227,-2.1352,-2.3024,-2.4668,-2.6574,-2.977,-3.308,-3.6499,-3.8658,-4.1522,-4.4652,2.8975,2.8975,2.9255,3.0063,3.0723,3.1201,3.1384,3.1935,3.2412,3.2596,3.2875,3.2925,3.2533,3.2057,3.1863,3.2083,3.2246,3.278,3.3964,3.4336,3.4776,3.5385,3.5554,3.5622,3.5622,3.4958,3.435,3.3802,3.3002,3.2272,3.1682,3.1597,3.1482,3.1482,3.1601,3.1601,3.1571,3.3066,3.3694,3.3784,3.5011,3.5519,3.5519,3.5519,3.5359,3.5198,3.5424,3.5294,3.461,3.2341,3.0062,2.774,2.5775,2.4787,2.4296,2.3387,2.212,2.0747,1.977,1.8411,1.7044,1.6008,1.5832,0.0,1.5832,1.5832,1.5845,1.5899,1.5945,1.5973,1.6025,1.5311,1.5117,1.66,1.6488,1.6869,1.8255,1.8998,1.9372,1.9372,1.9679,1.9973,2.0214,2.0548,2.0855,2.1096,2.1109,2.1235,2.1601,2.1839,2.209,2.209,2.0663,1.9624,1.9,1.6343,1.4697,1.42,1.1866,0.6991,-0.0267,-0.8834,-1.4349,-1.6979,-1.74,-1.9776,-2.3171,-2.4854,-2.6436,-2.8307,-3.1816,-3.4662,-3.7065,-4.0306,-4.3259,-4.6008,2.8975,2.9305,2.9843,3.065,3.1458,3.2118,3.2522,3.2926,3.322,3.322,3.3211,3.3105,3.289,3.2433,3.2264,3.2608,3.3014,3.3577,3.4447,3.4844,3.5216,3.5588,3.5622,3.5453,3.5098,3.4447,3.377,3.3077,3.2382,3.1853,3.1482,3.1482,3.1682,3.1992,3.1625,3.1862,3.254,3.3246,3.3694,3.4083,3.51,3.5519,3.5519,3.5519,3.5519,3.5519,3.5519,3.5198,3.4409,3.1965,2.9706,2.7693,2.6108,2.4893,2.38,2.3299,2.2227,2.1016,1.9861,1.8596,1.7591,1.6951,1.6292,0.0,0.0,1.6292,1.5832,1.5832,1.6072,1.6468,1.7133,1.7114,1.7497,1.8932,1.8674,1.8961,2.0397,1.9878,1.9372,1.9372,1.9626,1.992,2.0201,2.0508,2.0802,2.1082,2.1109,2.1109,2.1109,2.1109,2.1109,2.1109,1.9419,1.8116,1.7216,1.5211,1.2716,0.9763,0.684,0.1603,-0.5464,-1.2056,-1.6206,-1.8079,-1.9267,-2.163,-2.4901,-2.647,-2.8737,-3.1426,-3.3989,-3.6453,-3.884,-4.1915,-4.4811,-4.7373,2.8975,2.9769,3.065,3.1274,3.2082,3.2889,3.3697,3.3807,3.3807,3.3807,3.3575,3.3448,3.3448,3.3152,3.3142,3.3554,3.4106,3.4565,3.4857,3.5426,3.5711,3.5622,3.5622,3.5362,3.4783,3.3971,3.3339,3.2788,3.1879,3.1482,3.1482,3.1482,3.1796,3.2382,3.2031,3.2421,3.3341,3.3728,3.4149,3.4532,3.522,3.5519,3.5519,3.5519,3.5519,3.5519,3.5519,3.4839,3.3739,3.2019,3.0012,2.8021,2.6849,2.5062,2.3387,2.3125,2.2403,2.1391,2.0133,1.9131,1.8319,1.8149,1.7311,1.6749,0.0,0.0,0.0,1.6466,1.677,1.7227,1.8168,1.9002,1.9713,2.0606,2.0845,2.1232,2.2339,2.1158,2.02,2.0256,1.9965,2.0026,2.0563,2.1026,2.123,2.1096,2.1362,2.1348,2.0589,2.0589,2.0462,2.0068,1.8372,1.6829,1.5544,1.4173,1.0439,0.4286,-0.0,-0.5342,-1.1358,-1.3779,-1.6374,-1.9127,-2.0737,-2.339,-2.6692,-2.8379,-3.127,-3.4697,-3.5846,-3.7947,-4.0707,-4.3857,-4.6506,-4.893,2.8975,3.021,3.1274,3.1384,3.2082,3.2889,3.3697,3.3807,3.3807,3.3807,3.4055,3.4279,3.4279,3.4503,3.4907,3.5614,3.5719,3.5881,3.616,3.6256,3.6114,3.5622,3.5622,3.5577,3.5487,3.4252,3.3547,3.3495,3.216,3.1482,3.1482,3.1482,3.1539,3.1655,3.2885,3.3135,3.2735,3.4603,3.5034,3.4532,3.522,3.5519,3.5519,3.5519,3.5519,3.5519,3.5519,3.4839,3.3808,3.2806,3.1061,2.8987,2.7093,2.563,2.4382,2.3387,2.295,2.258,2.1391,2.1016,2.0657,1.9588,1.9222,1.9131,1.9222,0.0,1.9039,1.9039,0.0,1.9196,1.9288,0.0,0.0,2.0112,2.1045,2.1843,2.162,2.2257,2.2925,2.3231,2.1206,2.0502,2.2096,2.2911,2.2673,2.1235,2.2466,2.1937,1.9024,1.8768,1.8116,1.656,1.4754,1.3997,1.4454,1.2242,0.7517,0.0535,-0.6183,-1.1045,-1.3919,-1.6186,-1.8454,-2.085,-2.2534,-2.5429,-2.881,-3.052,-3.3479,-3.7166,-3.6926,-3.883,-4.2283,-4.6166,-4.8958,-5.1004,2.9806,3.0613,3.1531,3.2008,3.2779,3.3403,3.3733,3.3807,3.3954,3.4431,3.4658,3.4936,3.5447,3.5654,3.5905,3.636,3.6397,3.6397,3.6388,3.6374,3.6165,3.5622,3.5622,3.5224,3.4447,3.3903,3.3182,3.2407,3.1796,3.1482,3.1482,3.1482,3.195,3.2684,3.2932,3.348,3.4242,3.4759,3.4997,3.51,3.54,3.5519,3.5519,3.5519,3.5519,3.5519,3.5519,3.5198,3.4706,3.3739,3.2082,3.0112,2.8675,2.7128,2.5546,2.4382,2.4125,2.3694,2.1836,2.1302,2.1194,2.0657,2.0025,1.9729,2.0698,2.0365,1.9953,2.0168,0.0,0.0,0.0,0.0,0.0,0.0,2.3143,2.3493,2.4263,2.3408,2.3004,2.3365,2.2605,2.2236,2.2424,2.3185,2.2438,1.9801,2.1155,2.0624,1.7205,1.6947,1.6689,1.5913,1.453,1.391,1.42,0.7754,0.2944,-0.0134,-0.8701,-1.3963,-1.6186,-1.7573,-1.9686,-2.2659,-2.4271,-2.7124,-3.0596,-3.227,-3.528,-3.8987,-3.8777,-4.0721,-4.4144,-4.7019,-4.9333,-5.1454,3.0944,3.1494,3.2155,3.2559,3.3256,3.3807,3.3807,3.399,3.4357,3.4917,3.5394,3.5936,3.656,3.6817,3.7028,3.7225,3.7265,3.7076,3.6666,3.662,3.6333,3.5622,3.5622,3.5052,3.3871,3.37,3.3024,3.1796,3.1567,3.1482,3.1482,3.1482,3.2128,3.3253,3.312,3.3908,3.5248,3.5123,3.5266,3.5519,3.5519,3.5519,3.5519,3.5519,3.5519,3.5519,3.5519,3.5519,3.5359,3.4312,3.2863,3.1176,2.9885,2.8306,2.6662,2.563,2.5294,2.4872,2.2766,2.2259,2.2189,2.2073,2.1284,2.1028,2.2373,2.1985,2.1386,2.176,2.1812,0.0,0.0,0.0,2.4412,2.4808,0.0,2.5282,2.5937,2.4699,2.3963,2.4343,2.4565,2.4367,2.3376,2.384,2.2908,1.9509,2.0358,1.932,1.5394,1.5284,1.5163,1.4502,1.3647,1.232,1.0274,0.3468,-0.1335,-0.3998,-1.0941,-1.5512,-1.7855,-1.8792,-2.1015,-2.4301,-2.6083,-2.8955,-3.2431,-3.4159,-3.7039,-4.0272,-4.1038,-4.322,-4.6089,-4.7718,-4.9926,-5.215,3.2375,3.3183,3.3476,3.2742,3.3256,3.3807,3.3807,3.4468,3.4954,3.499,3.6413,3.7404,3.7441,3.8175,3.8652,3.8621,3.8621,3.8234,3.7248,3.7173,3.6706,3.5667,3.5622,3.527,3.4592,3.3921,3.3235,3.2547,3.1853,3.1482,3.1482,3.1482,3.1898,3.2586,3.4017,3.4605,3.4628,3.5953,3.6134,3.5519,3.5519,3.5519,3.5519,3.5519,3.5519,3.5519,3.5519,3.5519,3.5359,3.4312,3.3281,3.199,3.0086,2.8729,2.7702,2.6685,2.6483,2.6213,2.5041,2.4702,2.455,2.392,2.368,2.3777,2.4205,2.4302,2.4302,2.4322,2.4322,2.4322,2.4322,2.5675,2.628,2.4677,2.6174,0.0,0.0,2.6112,2.7065,2.7513,2.7179,2.6539,2.5374,2.5633,2.447,2.1227,2.0962,1.8812,1.3709,1.3901,1.3269,1.0884,1.0785,0.7522,0.0535,0.0134,-0.4663,-1.3787,-1.4059,-1.5734,-1.8512,-2.0106,-2.2726,-2.6001,-2.8078,-3.1003,-3.456,-3.6655,-3.8688,-4.0913,-4.3694,-4.6089,-4.8061,-4.8802,-5.123,-5.4152,3.2559,3.3256,3.3697,3.344,3.3623,3.3807,3.3807,3.4504,3.5394,3.6523,3.7624,3.8689,3.9753,4.012,4.0304,4.0304,3.979,3.9199,3.8474,3.7681,3.6865,3.6165,3.5766,3.5052,3.3971,3.3751,3.3024,3.1853,3.1625,3.1482,3.1482,3.1482,3.1898,3.2557,3.3487,3.4151,3.4565,3.548,3.5718,3.5519,3.5519,3.5519,3.5519,3.5519,3.5519,3.5519,3.5519,3.5519,3.5424,3.5133,3.4283,3.3378,3.2652,3.1356,2.9885,2.8778,2.8036,2.7429,2.6696,2.6447,2.6301,2.5659,2.5427,2.555,2.5911,2.6013,2.6372,2.7473,2.7721,2.7466,2.6651,2.7594,2.7822,2.5579,2.6805,2.7517,0.0,2.6816,2.75,2.7656,2.7308,2.6584,2.5177,2.4524,2.2277,1.7575,1.7999,1.6339,1.1627,1.1644,1.0485,0.7245,0.4821,0.2409,-0.0,-0.6261,-1.0948,-1.42,-1.6104,-1.8116,-2.0245,-2.223,-2.4953,-2.8217,-3.026,-3.3193,-3.6677,-3.8482,-4.0368,-4.2351,-4.4292,-4.6571,-4.8881,-5.002,-5.2006,-5.4638,3.3036,3.344,3.3807,3.3807,3.3807,3.3917,3.4174,3.5165,3.6376,3.7734,3.8872,3.9974,4.1001,4.1111,4.1111,4.1111,4.0634,3.9929,3.8905,3.832,3.7567,3.6569,3.6446,3.59,3.4799,3.4233,3.3455,3.23,3.1745,3.1482,3.1482,3.1482,3.2018,3.2886,3.3305,3.3993,3.4861,3.531,3.5519,3.5519,3.5519,3.5519,3.5519,3.5519,3.5519,3.5519,3.5519,3.5519,3.5519,3.5519,3.5067,3.4476,3.4109,3.2947,3.1563,3.0648,2.9749,2.8835,2.8347,2.8149,2.8009,2.737,2.7233,2.7295,2.7963,2.8093,2.8337,2.9074,2.9277,2.8994,2.8253,2.8709,2.8739,2.7469,2.7918,2.8095,0.0,2.7324,2.7773,2.8066,2.7933,2.6888,2.4878,2.3638,2.0981,1.6258,1.6013,1.3842,0.8938,0.7464,0.59,0.3615,-0.0,-0.2939,-0.5066,-1.108,-1.4707,-1.5724,-1.7625,-1.9763,-2.202,-2.4124,-2.6884,-3.0073,-3.2295,-3.5253,-3.8574,-3.9679,-4.1555,-4.3823,-4.5474,-4.7612,-4.9896,-5.0829,-5.2977,-5.603,3.3807,3.3807,3.3807,3.3844,3.3844,3.4064,3.488,3.6413,3.7808,3.8652,4.0157,4.1185,4.1222,4.1222,4.1222,4.1222,4.1185,4.0413,3.8673,3.916,3.8741,3.6978,3.7516,3.7565,3.6835,3.5461,3.4419,3.3675,3.2243,3.1511,3.1482,3.1482,3.2228,3.3455,3.3484,3.4233,3.5459,3.5489,3.5519,3.5519,3.5519,3.5519,3.5519,3.5519,3.5519,3.5519,3.5519,3.5519,3.5519,3.5519,3.5519,3.5419,3.4438,3.3451,3.2599,3.2208,3.1448,3.0518,3.0025,2.9893,2.9759,2.9144,2.8925,2.9195,3.012,3.0345,3.0125,2.9428,2.9239,2.9239,2.9141,2.912,2.9364,3.0058,2.9429,2.8652,2.793,2.78,2.8008,2.8828,2.8926,2.7622,2.4653,2.303,2.0787,1.7268,1.4906,1.1142,0.5377,0.1726,-0.0401,-0.0535,-0.3882,-0.8435,-1.42,-1.4209,-1.5734,-1.8628,-1.878,-2.0563,-2.3976,-2.5934,-2.862,-3.186,-3.4238,-3.7155,-4.004,-4.0516,-4.2389,-4.5208,-4.7233,-4.9437,-5.1295,-5.1324,-5.4212,-5.84,3.3807,3.3807,3.399,3.4614,3.4211,3.4064,3.488,3.6413,3.7991,3.9423,4.1001,4.2213,4.28,4.2873,4.2873,4.2873,4.2323,4.1608,4.0703,3.9925,3.9076,3.8171,3.7989,3.7565,3.6835,3.5893,3.4841,3.3675,3.2728,3.2018,3.1482,3.1482,3.1988,3.2796,3.3275,3.3963,3.4771,3.528,3.5519,3.5519,3.5519,3.5519,3.5519,3.5519,3.5519,3.5519,3.5519,3.5519,3.5519,3.5519,3.5818,3.6237,3.5941,3.4979,3.39,3.3813,3.2541,3.1229,3.1506,3.1571,3.1441,3.0714,3.0871,3.1337,3.1595,3.1948,3.2347,3.3047,3.3281,3.2699,3.0778,3.1924,3.2347,2.9753,2.9352,2.9534,2.958,2.874,2.832,2.8848,2.8674,2.7419,2.4675,2.1156,1.8204,1.6619,1.1599,0.641,0.1309,-0.2124,-0.5228,-0.7932,-0.8867,-1.0864,-1.42,-1.5346,-1.738,-2.0358,-2.2226,-2.4634,-2.7783,-2.8941,-3.1219,-3.4399,-3.6568,-3.8635,-4.054,-4.185,-4.3441,-4.5208,-4.7233,-5.0235,-5.3455,-5.3959,-5.6439,-5.9532,3.3807,3.41,3.4468,3.4917,3.5238,3.5679,3.6486,3.7404,3.8579,4.0194,4.1515,4.247,4.291,4.3277,4.3497,4.3497,4.3094,4.2339,4.1163,4.0699,3.9982,3.8814,3.8826,3.8688,3.8237,3.7236,3.6023,3.4613,3.3578,3.2488,3.1482,3.1839,3.2317,3.2976,3.3634,3.4292,3.4951,3.534,3.5519,3.5519,3.5519,3.5519,0.0,3.5519,3.5519,3.5519,3.5519,3.5519,3.5549,3.5848,3.6178,3.6537,3.6806,3.6079,3.5142,3.5395,3.4344,3.3277,3.3828,3.3783,3.3564,3.3133,3.3153,3.3284,3.3527,3.3796,3.4181,3.4519,3.4568,3.4074,3.2715,3.31,3.3051,3.1118,3.1306,3.1592,3.1043,3.0298,2.9431,2.8255,2.7322,2.5943,2.3821,2.1589,1.8423,1.3826,1.0297,0.5885,0.013,-0.3041,-0.6431,-1.0512,-1.0819,-1.2125,-1.4941,-1.5992,-1.8496,-2.2468,-2.3878,-2.6326,-2.9415,-3.0031,-3.2533,-3.6351,-3.7643,-3.9522,-4.1785,-4.3609,-4.5118,-4.6648,-4.9625,-5.2296,-5.48,-5.6031,-5.8148,-6.0532,3.3954,3.4614,3.5174,3.5284,3.6633,3.7955,3.8872,3.9019,3.957,4.1075,4.1956,4.247,4.247,4.3057,4.3497,4.3497,4.3497,4.2741,4.0943,4.1421,4.1006,3.9189,3.9749,4.0087,4.0087,3.8802,3.7327,3.5786,3.4502,3.3008,3.1482,3.2198,3.2856,3.3514,3.4173,3.4861,3.5519,3.5519,3.5519,3.5519,3.5519,3.5519,3.5519,3.5609,3.5639,3.5639,3.5729,3.5699,3.5729,3.6297,3.6596,3.6836,3.7375,3.6928,3.6331,3.6806,3.6203,3.5654,3.6156,3.5926,3.5548,3.5627,3.5321,3.5133,3.5429,3.5697,3.5662,3.4776,3.4678,3.4605,3.4555,3.3415,3.2769,3.3424,3.3862,3.3457,3.1674,3.1257,3.0158,2.7176,2.556,0.0,2.2349,2.2568,1.9195,1.0674,1.021,0.721,-0.0129,-0.2499,-0.5871,-1.0871,-1.1142,-1.2869,-1.6224,-1.7055,-1.9808,-2.4619,-2.5114,-2.7062,-3.0062,-3.084,-3.3454,-3.7736,-3.8281,-4.0245,-4.3123,-4.5135,-4.7055,-4.8966,-5.2759,-5.461,-5.5441,-5.7572,-5.9444,-6.1138,3.466,3.5495,3.6266,3.6927,3.7845,3.8982,4.0487,4.0708,4.1038,4.1992,4.28,4.3277,4.3277,4.3424,4.3497,4.3497,4.3497,4.2959,4.1682,4.174,4.1216,3.9985,4.002,4.0087,4.0087,3.9182,3.7817,3.5786,3.4917,3.3499,3.1482,3.2198,3.2856,3.3514,3.4173,3.4861,3.5519,3.5519,3.5519,3.5519,3.5519,3.5519,3.5579,3.6118,3.6297,3.6387,3.6896,3.6746,3.6327,3.6447,3.7195,3.8093,3.8182,3.7899,3.7526,3.7641,3.6852,3.6184,3.6819,3.625,3.5653,3.6214,3.6595,3.6623,3.5688,3.657,3.7364,3.6307,3.6048,3.5886,3.5206,3.4198,3.3899,3.5151,3.3503,3.1461,2.9928,2.8652,2.7326,2.578,2.4508,2.2947,2.0842,1.842,1.509,1.0349,1.0397,0.6655,-0.2514,-0.3322,-0.6386,-1.2676,-1.3111,-1.4911,-1.8427,-2.0472,-2.3243,-2.6628,-2.8682,-3.0665,-3.2305,-3.4021,-3.6025,-3.8208,-3.9616,-4.1305,-4.3123,-4.5135,-4.816,-5.1563,-5.3444,-5.461,-5.5541,-5.8499,-6.0192,-6.1202,3.5605,3.634,3.7184,3.7991,3.9129,4.0341,4.1552,4.2103,4.2323,4.2286,4.2653,4.2873,4.2873,4.324,4.3497,4.3497,4.325,4.2696,4.1853,4.1508,4.0967,4.0138,4.0087,4.0087,4.0087,3.9714,3.8434,3.6332,3.5943,3.4674,3.2557,3.3215,3.3694,3.4023,3.4711,3.519,3.5519,3.5519,3.5519,3.5519,3.5878,3.5998,3.6088,3.6716,3.6956,3.7015,3.7315,3.7434,3.7464,3.7464,3.7883,3.8452,3.8811,3.875,3.8679,3.9031,3.8789,3.8525,3.9159,3.8767,3.8228,3.8533,3.8632,3.8566,3.8326,3.8225,3.8004,3.7883,3.7235,3.6743,3.6677,3.5639,3.5155,3.6057,3.4509,3.2639,3.1431,2.985,2.7813,2.4642,2.3093,2.108,1.8328,1.5798,1.2739,0.8842,0.9863,0.6265,-0.4081,-0.398,-0.6519,-1.3054,-1.3729,-1.5948,-2.0282,-2.1872,-2.4745,-2.8772,-3.0116,-3.1596,-3.3125,-3.4985,-3.6639,-3.8342,-3.9873,-4.1704,-4.3689,-4.6751,-5.0219,-5.3802,-5.4499,-5.491,-5.5571,-5.916,-6.0665,-6.1326,3.678,3.7441,3.8248,3.9056,4.0414,4.1589,4.2213,4.2983,4.3277,4.2653,4.2543,4.2543,4.2543,4.313,4.3497,4.3497,4.3032,4.2422,4.1853,4.1206,4.0672,4.0138,4.0087,4.0087,4.0087,4.0087,3.9035,3.679,3.679,3.5551,3.3305,3.4113,3.4562,3.4711,3.525,3.5519,3.5519,3.5519,3.5519,3.5579,3.6207,3.6477,3.6567,3.7315,3.7614,3.7644,3.7793,3.8153,3.8601,3.8601,3.8601,3.8721,3.9409,3.9619,3.9768,4.0427,4.0606,4.0756,4.1414,4.1116,4.0584,4.0809,4.0547,4.0399,4.0719,3.985,3.906,3.9217,3.835,3.7688,3.8115,3.6807,3.5864,3.6367,3.4899,3.3172,3.1836,3.0432,2.7771,2.2886,2.1271,1.9247,1.6444,1.4373,1.1962,0.9013,0.8102,0.4121,-0.3924,-0.4901,-0.7592,-1.3185,-1.4083,-1.6861,-2.1612,-2.3098,-2.6075,-3.0447,-3.1011,-3.2218,-3.4027,-3.556,-3.7309,-3.8976,-4.0526,-4.2757,-4.5391,-4.8545,-5.2043,-5.5179,-5.5179,-5.5471,-5.6282,-5.9759,-6.1234,-6.201,3.8322,3.9129,3.9937,4.0744,4.1589,4.2213,4.2286,4.2983,4.3461,4.3387,4.3387,4.3387,4.3387,4.3424,4.3497,4.3497,4.3032,4.2422,4.1853,4.1206,4.0672,4.0138,4.0087,4.0087,4.0087,4.0087,3.9035,3.679,3.679,3.5388,3.2647,3.3873,3.4801,3.54,3.5459,3.5519,3.5519,3.5519,3.5519,3.5579,3.6207,3.6477,3.6626,3.7853,3.8302,3.8392,3.899,3.926,3.932,3.932,3.932,3.9439,4.0098,4.0307,4.0427,4.1085,4.1294,4.1444,4.2102,4.1469,4.0781,4.1357,4.1475,4.1311,4.0868,4.1505,4.1733,4.0174,3.9277,3.8718,3.8768,3.692,3.5395,3.544,3.3035,3.0179,2.7056,2.6574,2.4577,1.9497,1.8668,1.8101,1.711,1.4499,1.3356,1.4178,0.4055,-0.173,-0.0531,-0.6539,-1.0982,-1.3193,-1.5414,-1.8273,-2.1921,-2.5758,-2.8656,-3.0717,-3.2346,-3.4007,-3.5683,-3.7243,-3.9186,-4.1188,-4.2749,-4.5693,-4.931,-4.9746,-5.2043,-5.5179,-5.5179,-5.6282,-5.8111,-6.02,-6.2107,-6.3903,4.0115,4.0414,4.0891,4.1699,4.2103,4.247,4.2947,4.3277,4.3497,4.3497,4.3497,4.3497,4.3497,4.3497,4.3356,4.3069,4.2501,4.1895,4.1296,4.0767,4.0319,4.0138,4.0087,4.0087,4.0087,4.0087,3.9425,3.8068,3.7601,3.6569,3.4942,3.5055,3.525,3.5519,3.5519,3.5519,3.5519,3.5938,3.6088,3.6178,3.7195,3.7614,3.7734,3.8661,3.902,3.905,3.932,3.9409,3.9469,3.9858,3.9738,3.9529,4.0187,4.0397,4.0606,4.1654,4.1983,4.2102,4.2761,4.2595,4.2393,4.3042,4.3219,4.3402,4.4006,4.3024,4.1937,4.1633,4.0103,3.8969,3.9295,3.7121,3.5288,3.5288,3.2871,3.0138,2.7811,2.6591,2.4086,1.9066,1.7479,1.59,1.344,1.229,1.1782,1.2358,0.5807,-0.0661,-0.614,-1.1143,-1.428,-1.5063,-1.8237,-2.1648,-2.5405,-2.8257,-3.0642,-3.2365,-3.4113,-3.5356,-3.6473,-3.901,-4.1353,-4.3456,-4.526,-4.7548,-5.0046,-5.1192,-5.3152,-5.5179,-5.5179,-5.6412,-5.8366,-6.0325,-6.223,-6.4178,4.147,4.1479,4.1699,4.2506,4.2653,4.2837,4.3387,4.3497,4.3497,4.3497,4.3497,4.3497,4.3497,4.3497,4.3286,4.2732,4.218,4.1516,4.0932,4.0417,4.0087,4.0087,4.0087,4.0087,4.0087,4.0087,3.9714,3.8908,3.8358,3.752,3.6321,3.5543,3.531,3.5519,3.5519,3.5519,3.5549,3.6207,3.6477,3.6596,3.7883,3.8392,3.8452,3.914,3.9409,3.9439,3.9649,3.9709,3.9798,4.0457,4.0367,4.0098,4.0756,4.0965,4.1205,4.2312,4.2641,4.2791,4.3449,4.3629,4.3778,4.4436,4.4616,4.4915,4.6052,4.4589,4.306,4.2916,4.0886,3.9118,3.9055,3.7049,3.5178,3.4736,3.2166,2.953,2.7931,2.6349,2.3346,1.8279,1.6604,1.4549,1.1094,0.9614,0.7742,0.4669,0.329,-0.118,-1.018,-1.3725,-1.5658,-1.6379,-1.9985,-2.3536,-2.6923,-2.963,-3.1874,-3.3613,-3.4831,-3.6269,-3.7708,-4.1041,-4.3394,-4.5011,-4.7002,-4.8776,-5.0323,-5.2202,-5.386,-5.5209,-5.5418,-5.6885,-5.9127,-6.0738,-6.2737,-6.4947,4.2139,4.2286,4.2543,4.3351,4.3497,4.3497,4.3497,4.3497,4.3497,4.3497,4.3497,4.3497,4.3497,4.3497,4.3286,4.2732,4.218,4.1516,4.0932,4.0417,4.0087,4.0087,4.0087,4.0087,4.0087,4.0087,3.9714,3.8908,3.8908,3.7745,3.5608,3.4879,3.4861,3.5519,3.5519,3.5519,3.5549,3.6207,3.6477,3.6596,3.7883,3.8392,3.8452,3.914,3.9409,3.9499,4.0157,4.0397,4.0487,4.1145,4.1354,4.1474,4.2132,4.2419,4.2462,4.312,4.3329,4.3479,4.4137,4.4317,4.4466,4.5125,4.5274,4.5454,4.6172,4.6237,4.5754,4.3836,4.1492,3.9233,3.7796,3.6271,3.4847,3.3417,3.0509,2.7931,2.6227,2.4655,2.1658,1.655,1.5839,1.4345,1.0967,0.7241,0.0642,-0.9658,-0.6255,-0.5732,-1.0406,-1.284,-1.4913,-1.6379,-1.9985,-2.3,-2.5106,-2.9333,-3.232,-3.4082,-3.4492,-3.6444,-3.9826,-4.3698,-4.5472,-4.5615,-4.7626,-4.9281,-5.0796,-5.2402,-5.386,-5.5269,-5.5897,-5.8122,-6.1017,-6.1754,-6.3973,-6.6812,4.3435,4.3258,4.3204,4.3461,4.3497,4.3497,4.3497,4.3497,4.3497,4.3497,4.3497,4.3497,4.3497,4.3178,4.2732,4.2103,4.1516,4.0967,4.0368,4.0204,4.0087,4.0087,4.0087,4.0087,4.0087,4.0087,3.9952,3.9714,3.9156,3.7971,3.629,3.5513,3.531,3.5519,3.5519,3.5759,3.6207,3.6836,3.7375,3.7784,3.7944,3.7973,3.7928,3.7425,3.7663,3.8381,3.9022,3.974,4.0576,4.1683,4.2043,4.2162,4.2821,4.2731,4.2581,4.3688,4.4018,4.4137,4.4796,4.4975,4.5155,4.5813,4.5992,4.6172,4.683,4.5667,4.4031,4.2517,4.0844,3.9258,3.7796,3.6271,3.4847,3.3304,3.0509,2.7811,2.6227,2.3608,2.0358,1.6421,1.5115,1.3569,1.0996,0.5119,-0.183,-1.0073,-0.927,-0.9888,-1.2832,-1.6997,-1.9041,-1.8483,-2.3304,-2.6383,-2.7632,-3.1371,-3.3681,-3.4492,-3.7022,-4.0107,-4.3722,-4.5296,-4.605,-4.6169,-4.8885,-5.0268,-5.0933,-5.3489,-5.4743,-5.5269,-5.5927,-5.8122,-6.111,-6.1754,-6.4006,-6.6812,4.3849,4.3627,4.3497,4.3497,4.3497,4.3497,4.3497,4.3497,4.3497,4.3497,4.3497,4.3497,4.3497,4.2846,4.2221,4.1853,4.1251,4.0638,4.0138,4.0087,4.0087,4.0087,4.0087,4.0087,4.0087,4.0087,4.0087,4.0087,3.9049,3.8019,3.7024,3.5973,3.5639,3.5878,3.5878,3.6237,3.6866,3.7494,3.8003,3.8381,3.8429,3.8397,3.8323,3.7663,3.7958,3.8835,3.9554,4.0347,4.1294,4.2372,4.2731,4.2851,4.3509,4.3419,4.3269,4.4077,4.4317,4.4526,4.5424,4.5693,4.5843,4.6531,4.6681,4.6715,4.6637,4.5024,4.3122,4.1887,4.0541,3.9025,3.7026,3.5945,3.4626,3.2644,2.9573,2.6936,2.531,2.2213,1.8836,1.5394,1.4548,1.218,0.7236,0.265,-0.2912,-1.0117,-1.1871,-1.3265,-1.481,-1.841,-2.0649,-2.1384,-2.5467,-2.829,-2.9556,-3.2786,-3.4434,-3.4707,-3.8444,-4.1793,-4.491,-4.5885,-4.6301,-4.6421,-4.9395,-5.0713,-5.0933,-5.3964,-5.5329,-5.5628,-5.6256,-5.8492,-6.1434,-6.2171,-6.4236,-6.6846,4.3529,4.3532,4.3497,4.3497,4.3497,4.3497,4.3497,4.3497,4.3497,4.3497,4.3497,4.3497,4.3497,4.2465,4.181,4.181,4.1206,4.0625,4.0104,4.0087,4.0087,4.0087,4.0087,4.0087,4.0087,4.0087,4.0087,4.0087,3.8557,3.7822,3.7764,3.6257,3.5908,3.6477,3.6537,3.6896,3.7524,3.8123,3.8422,3.8512,3.9098,3.9265,3.9265,3.9252,3.9712,4.0412,4.1099,4.1833,4.2462,4.312,4.3329,4.3449,4.4107,4.4317,4.4347,4.4436,4.4466,4.4736,4.6052,4.6381,4.6531,4.716,4.7309,4.6931,4.5689,4.4442,4.3122,4.1887,4.0541,3.8712,3.5836,3.5178,3.4202,3.1208,2.8068,2.5327,2.3503,2.0459,1.7087,1.3718,1.377,1.0267,0.0931,-0.0399,-0.3466,-1.0206,-1.3857,-1.5794,-1.5934,-1.7445,-2.0191,-2.4531,-2.6681,-2.8759,-3.0861,-3.3478,-3.4858,-3.5179,-3.9196,-4.2201,-4.3979,-4.5525,-4.6301,-4.6636,-4.9508,-5.0823,-5.1044,-5.3993,-5.5628,-5.6226,-5.6989,-5.9271,-6.2139,-6.2844,-6.472,-6.6914,4.3943,4.366,4.3497,4.3497,4.3497,4.3497,4.3497,4.3497,4.3497,4.3497,4.3497,4.3497,4.3497,4.2465,4.181,4.181,4.0861,4.0254,4.0138,4.0087,4.0087,4.0087,4.0087,4.0087,4.0087,4.0087,4.0087,4.0087,3.8557,3.7822,3.7764,3.6715,3.6327,3.6507,3.6985,3.7554,3.8153,3.8332,3.8691,3.9128,3.8487,3.8144,3.8127,3.782,3.831,3.9324,4.0538,4.1538,4.2462,4.312,4.3329,4.3449,4.4107,4.4317,4.4526,4.5544,4.5843,4.6022,4.686,4.707,4.71,4.7279,4.7309,4.6931,4.5689,4.4442,4.3122,4.1887,3.9649,3.7477,3.5617,3.4403,3.2602,2.9493,2.7314,2.496,2.195,1.8697,1.5934,1.4173,1.2492,0.8451,0.0801,-0.4955,-0.8867,-1.0618,-1.2692,-1.4557,-1.6156,-1.8139,-2.0819,-2.4531,-2.6921,-2.927,-3.1824,-3.3783,-3.6424,-3.967,-4.0684,-4.2706,-4.5671,-4.6059,-4.6874,-4.8094,-4.9932,-5.1372,-5.2644,-5.4938,-5.6047,-5.6389,-5.8573,-6.0469,-6.2233,-6.3844,-6.547,-6.6914,4.3786,4.3631,4.3497,4.3497,4.3497,4.3497,4.3497,4.3497,4.3497,4.3497,4.3497,4.3428,4.3178,4.258,4.1979,4.1464,4.0611,4.0087,4.0087,4.0087,4.0087,4.0087,4.0087,4.0087,4.0087,4.0087,4.0087,4.0087,3.8557,3.7982,3.8243,3.7021,3.6806,3.7375,3.7704,3.8242,3.8871,3.8871,3.908,3.9367,3.9092,3.8986,3.8969,3.9122,3.9712,4.0558,4.1263,4.213,4.2851,4.321,4.3539,4.3898,4.4556,4.4975,4.5424,4.6471,4.6561,4.6471,4.713,4.7309,4.7309,4.7309,4.7309,4.6814,4.4932,4.3975,4.2807,4.0236,3.8509,3.6811,3.4736,3.3014,3.1166,2.8765,2.5813,2.2835,2.0181,1.6904,1.425,1.2732,1.0073,0.6034,0.0534,-0.6439,-1.1045,-1.1784,-1.3464,-1.5361,-1.7423,-2.0298,-2.3145,-2.5908,-2.7637,-2.9941,-3.2936,-3.4409,-3.7143,-4.1181,-4.1181,-4.2981,-4.6301,-4.6301,-4.7087,-4.8532,-5.0045,-5.159,-5.3126,-5.5323,-5.6346,-5.6882,-5.9153,-6.111,-6.265,-6.425,-6.5734,-6.6981,4.3532,4.3497,4.3497,4.3497,4.3497,4.3497,4.3497,4.3497,4.3497,4.3497,4.3497,4.3321,4.2846,4.2732,4.2262,4.1115,4.0625,4.0303,4.0138,4.0087,4.0087,4.0087,4.0087,4.0087,4.0087,4.0087,4.0087,4.0087,3.8655,3.8211,3.8758,3.7388,3.7345,3.8392,3.8512,3.8871,3.9409,3.9409,3.9469,3.9619,4.0187,4.0457,4.0606,4.1294,4.1863,4.2372,4.2462,4.288,4.3359,4.3449,4.3838,4.4436,4.5214,4.5843,4.6441,4.71,4.692,4.6591,4.716,4.7309,4.7309,4.7309,4.7309,4.6638,4.4069,4.3504,4.2393,3.838,3.7346,3.6379,3.362,3.1512,2.9751,2.8271,2.4071,2.032,1.8267,1.5375,1.2692,1.0891,0.8056,0.4417,-0.04,-0.6849,-1.1473,-1.3235,-1.4959,-1.6901,-1.8994,-2.2628,-2.5665,-2.7685,-2.8742,-3.091,-3.4277,-3.5343,-3.7715,-4.1181,-4.1437,-4.3232,-4.6301,-4.6301,-4.7257,-4.9098,-5.0211,-5.1811,-5.3733,-5.5634,-5.6675,-5.7513,-5.9633,-6.1523,-6.3196,-6.4597,-6.5922,-6.7184,4.3529,4.3497,4.3497,4.3497,4.3497,4.3497,4.3497,4.3497,4.3497,4.3497,4.3497,4.3463,4.3356,4.2995,4.2422,4.1725,4.1595,4.1105,4.0154,4.0087,4.0087,4.0087,4.0087,4.0087,4.0087,4.0087,4.0087,4.0087,3.9088,3.869,3.8758,3.8335,3.8212,3.8422,3.899,3.932,3.9409,3.9409,3.9738,4.0247,4.0367,4.0726,4.1294,4.1953,4.2282,4.2432,4.3,4.324,4.3419,4.3958,4.4227,4.4526,4.5783,4.6232,4.6441,4.71,4.7249,4.7189,4.7279,4.7309,4.7309,4.7309,4.7309,4.6638,4.4069,4.3504,4.2393,3.838,3.6487,3.5068,3.3395,3.0742,2.8271,2.6591,2.3346,1.9954,1.6668,1.5052,1.3277,1.0925,1.027,0.6049,-0.3613,-0.8563,-1.1902,-1.3561,-1.5443,-1.7389,-1.9522,-2.3057,-2.6021,-2.8081,-2.9952,-3.239,-3.5176,-3.7095,-3.9192,-4.1181,-4.258,-4.4374,-4.6301,-4.6301,-4.812,-5.1148,-5.0822,-5.2835,-5.6452,-5.681,-5.7363,-5.8204,-6.1289,-6.2715,-6.3292,-6.568,-6.7015,-6.7861,4.3529,4.3497,4.3497,4.3497,4.3497,4.3497,4.3497,4.3497,4.3644,4.4085,4.3754,4.3574,4.3688,4.336,4.2772,4.1895,4.2062,4.1768,4.0625,4.0528,4.0417,4.0138,4.0087,4.0087,4.0087,4.0087,4.0087,4.0087,3.9721,3.9451,3.9333,3.9203,3.9031,3.896,3.929,3.9409,3.9439,3.9798,4.0127,4.0457,4.1175,4.1624,4.1983,4.2641,4.288,4.291,4.324,4.3569,4.3898,4.4227,4.4796,4.5514,4.6112,4.6561,4.692,4.7219,4.7309,4.7309,4.7309,4.7309,4.7309,4.7309,4.6726,4.5779,4.3882,4.293,4.1314,3.7192,3.5727,3.4626,3.2322,2.9238,2.6832,2.6106,2.1575,1.7686,1.6172,1.3884,1.1136,0.82,0.6176,0.2277,-0.469,-0.8784,-1.209,-1.5053,-1.5948,-1.7894,-2.1019,-2.4613,-2.7098,-2.8444,-3.1493,-3.4013,-3.5723,-3.7606,-3.9497,-4.1181,-4.2958,-4.462,-4.6326,-4.7513,-4.9186,-5.1266,-5.2433,-5.4302,-5.6645,-5.7363,-5.7842,-5.8384,-6.1743,-6.3228,-6.3934,-6.6422,-6.7895,-6.8673,4.3791,4.3791,4.3828,4.4011,4.3901,4.3791,4.3791,4.3608,4.3718,4.4342,4.3864,4.3577,4.3756,4.3615,4.3105,4.2103,4.2422,4.2221,4.0978,4.092,4.0672,4.0138,4.0087,4.0087,4.0087,4.0257,4.0358,4.0358,4.0513,4.0417,4.0034,4.0163,3.9955,3.9409,3.9595,3.9685,3.9679,4.0187,4.0576,4.0935,4.1953,4.2462,4.2641,4.315,4.3329,4.3359,4.3509,4.3898,4.4377,4.4676,4.5484,4.6352,4.6501,4.689,4.7309,4.7309,4.7309,4.7309,4.7309,4.7309,4.7222,4.6931,4.6166,4.5024,4.3409,4.2252,4.0438,3.614,3.5288,3.4425,3.1441,2.8188,2.5846,2.5448,2.0055,1.5784,1.5394,1.27,0.9407,0.5767,0.0669,-0.3617,-0.6309,-0.9722,-1.3027,-1.6318,-1.6953,-1.8799,-2.2364,-2.592,-2.8605,-3.0148,-3.3275,-3.5348,-3.6519,-3.8353,-4.0018,-4.182,-4.3482,-4.5086,-4.6502,-4.838,-5.0067,-5.1488,-5.3742,-5.5499,-5.6915,-5.7782,-5.8414,-5.9062,-6.2094,-6.3742,-6.4833,-6.7246,-6.8673,-6.9451,4.4635,4.4635,4.4856,4.559,4.5112,4.4635,4.4635,4.3975,4.3497,4.3571,4.3534,4.3497,4.3536,4.3534,4.325,4.2693,4.2655,4.2221,4.0978,4.092,4.0672,4.0138,4.0087,4.0087,4.0087,4.0764,4.1136,4.1136,4.172,4.1624,4.0863,4.1534,4.0966,3.9409,4.0239,4.0537,4.0337,4.0367,4.1115,4.2222,4.2312,4.2731,4.3269,4.3299,4.3329,4.3419,4.4018,4.4287,4.4496,4.5753,4.6232,4.6441,4.704,4.7279,4.7309,4.7309,4.7309,4.7309,4.7309,4.7309,4.7019,4.5869,4.5479,4.4748,4.2252,4.169,4.0438,3.614,3.5288,3.4425,3.1441,2.8188,2.5448,2.3886,1.9283,1.5394,1.3709,1.1946,0.943,0.5767,-0.3622,-1.0009,-1.0257,-1.3062,-1.5273,-1.6695,-1.8731,-2.0683,-2.2682,-2.6275,-3.0049,-3.4085,-3.4965,-3.633,-3.8333,-4.0148,-4.182,-4.3606,-4.5281,-4.6456,-4.7054,-4.8146,-5.0363,-5.3315,-5.3827,-5.582,-5.886,-5.8351,-5.9122,-6.0989,-6.3154,-6.4768,-6.6146,-6.8236,-6.9485,-7.0128,4.4048,4.4745,4.5369,4.5186,4.4892,4.4892,4.5369,4.4342,4.3864,4.4856,4.4121,4.3681,4.4195,4.3791,4.3428,4.3214,4.2884,4.2342,4.1516,4.1115,4.0672,4.0138,4.0087,4.029,4.0764,4.1068,4.1407,4.188,4.2623,4.2493,4.1727,4.2443,4.2108,4.0842,4.1133,4.1179,4.1025,4.1444,4.1893,4.2402,4.2791,4.312,4.3389,4.3778,4.3958,4.4018,4.4676,4.5214,4.5633,4.6142,4.6591,4.698,4.7219,4.7309,4.7309,4.7309,4.7309,4.7309,4.7309,4.7309,4.7108,4.6181,4.5316,4.4359,4.287,4.1028,3.8867,3.6291,3.4845,3.3056,2.9982,2.7572,2.5082,2.231,1.8557,1.5414,1.4024,1.2102,1.0264,0.8901,-0.0804,-0.8375,-1.0792,-1.3022,-1.5045,-1.6763,-1.8731,-2.1245,-2.4303,-2.8459,-3.1806,-3.4556,-3.6415,-3.779,-3.8597,-4.0278,-4.2074,-4.3731,-4.5403,-4.7034,-4.8599,-5.0327,-5.2346,-5.4514,-5.6326,-5.7576,-5.8501,-5.865,-5.9622,-6.1153,-6.3249,-6.5155,-6.6931,-6.8976,-7.0263,-7.0872,4.4305,4.5149,4.5883,4.5847,4.5626,4.5553,4.5847,4.4745,4.4195,4.5039,4.4195,4.3718,4.4268,4.3828,4.3497,4.3497,4.3032,4.2537,4.2103,4.134,4.0672,4.0138,4.029,4.0663,4.1204,4.1644,4.2151,4.2658,4.3403,4.335,4.2565,4.3059,4.2719,4.1674,4.1674,4.1698,4.1713,4.2162,4.2491,4.2701,4.315,4.3329,4.3389,4.4077,4.4317,4.4436,4.5304,4.5933,4.6352,4.6561,4.692,4.7309,4.7309,4.7309,4.7339,4.7549,4.7459,4.7252,4.7081,4.6934,4.6755,4.5852,4.4747,4.366,4.2605,4.0227,3.7864,3.616,3.4419,3.2146,2.9002,2.7073,2.4715,2.0823,1.7803,1.5284,1.3392,1.0751,0.8617,0.7541,-0.0269,-0.7049,-1.0723,-1.3341,-1.5372,-1.6894,-1.9324,-2.2443,-2.6157,-2.9813,-3.2803,-3.4687,-3.7074,-3.8713,-3.9387,-4.1181,-4.2832,-4.4497,-4.5845,-4.7649,-4.9784,-5.1768,-5.3669,-5.5579,-5.7794,-5.865,-5.8471,-5.9636,-6.0874,-6.2205,-6.448,-6.6442,-6.8278,-6.9929,-7.0872,-7.1312,4.5736,4.5883,4.6397,4.8012,4.7645,4.6838,4.603,4.5223,4.4415,4.3608,4.3497,4.3497,4.3497,4.3497,4.3497,4.3497,4.3032,4.2693,4.2693,4.1595,4.0672,4.0138,4.0798,4.1204,4.1238,4.2658,4.3403,4.3436,4.4215,4.4121,4.3323,4.3323,4.2719,4.1705,4.1705,4.1973,4.2372,4.2372,4.2731,4.3329,4.3329,4.3329,4.3419,4.4077,4.4317,4.4496,4.5843,4.6322,4.6441,4.71,4.7309,4.7309,4.7309,4.7309,4.7429,4.8087,4.7818,4.7167,4.6563,4.6246,4.5873,4.4608,4.3795,4.2788,4.0942,3.9389,3.7769,3.573,3.4069,3.2146,2.9002,2.7073,2.4316,1.9271,1.7033,1.4633,1.1143,0.7646,0.4019,0.0401,-0.3521,-0.7256,-1.071,-1.4645,-1.7052,-1.7052,-2.0735,-2.4467,-2.8048,-3.025,-3.2393,-3.4687,-3.6766,-3.9024,-4.1181,-4.2832,-4.462,-4.6326,-4.6878,-4.8212,-5.0366,-5.1844,-5.4005,-5.6791,-5.7705,-5.8501,-5.9267,-6.1304,-6.2965,-6.4351,-6.7159,-6.9036,-7.0297,-7.1041,-7.1312,-7.1312,4.5112,4.5993,4.6911,4.7388,4.7278,4.7021,4.6801,4.559,4.4635,4.4378,4.3864,4.3497,4.3497,4.3497,4.3497,4.3497,4.3032,4.2537,4.2062,4.2263,4.2135,4.1498,4.1325,4.1677,4.2726,4.32,4.3673,4.4215,4.4451,4.471,4.4984,4.4324,4.4042,4.406,4.3385,4.3104,4.303,4.303,4.315,4.3359,4.3838,4.4018,4.4137,4.5304,4.5723,4.5843,4.6711,4.701,4.704,4.7249,4.7309,4.7309,4.7309,4.7608,4.8027,4.8237,4.8476,4.8417,4.7253,4.6526,4.5746,4.3963,4.3698,4.3598,4.2511,3.9666,3.7132,3.6545,3.286,2.922,2.7073,2.4454,2.12,1.729,1.5255,1.3341,1.1045,0.7588,0.2037,-0.7102,-0.8993,-1.0763,-1.38,-1.5782,-1.7527,-1.9093,-2.3798,-2.7216,-2.8527,-3.1847,-3.4668,-3.6917,-3.9045,-4.1152,-4.2958,-4.3458,-4.4814,-4.6878,-4.7054,-4.8998,-5.2588,-5.3055,-5.5112,-5.8386,-5.8673,-5.8919,-5.9207,-6.0751,-6.2393,-6.4287,-6.6602,-6.8569,-7.0297,-7.1041,-7.1312,-7.1401,4.5944,4.6685,4.7389,4.7573,4.7572,4.7388,4.6728,4.6067,4.5333,4.4342,4.4085,4.3864,4.3534,4.3497,4.3497,4.3497,4.3214,4.3029,4.2933,4.3202,4.3479,4.3719,4.2901,4.2773,4.3403,4.3707,4.4113,4.4587,4.4891,4.5263,4.5645,4.4673,4.456,4.5011,4.3758,4.3213,4.3359,4.3599,4.3718,4.3778,4.4436,4.4706,4.4825,4.5903,4.6322,4.6411,4.707,4.7309,4.7309,4.7309,4.7309,4.7369,4.7608,4.7967,4.8386,4.8895,4.9164,4.8921,4.7291,4.6532,4.5622,4.3363,4.3303,4.3527,4.2831,3.9783,3.7039,3.6634,3.2367,2.8108,2.6365,2.3222,1.984,1.6421,1.4576,1.2929,1.0939,0.8905,0.3306,-0.7981,-1.0512,-1.2337,-1.4632,-1.6192,-1.8484,-2.1958,-2.613,-2.8876,-2.9761,-3.3142,-3.585,-3.7905,-4.0015,-4.1947,-4.3731,-4.4567,-4.5749,-4.7129,-4.7917,-5.0221,-5.3564,-5.4394,-5.6361,-5.9099,-5.9099,-5.9099,-5.9237,-6.1712,-6.3436,-6.4834,-6.7598,-6.9501,-7.0703,-7.1142,-7.1312,-7.1457,4.7634,4.7578,4.7705,4.8273,4.8271,4.7682,4.6176,4.6581,4.6177,4.3791,4.4158,4.4305,4.3571,4.3497,4.3497,4.3497,4.3571,4.3901,4.4672,4.434,4.4714,4.6074,4.507,4.4216,4.3606,4.4316,4.4688,4.4688,4.5432,4.5838,4.5848,4.4788,4.4641,4.5107,4.3424,4.2929,4.3449,4.4107,4.4407,4.4466,4.5125,4.5394,4.5454,4.6142,4.6411,4.6501,4.71,4.7309,4.7309,4.7309,4.7339,4.7489,4.8087,4.8356,4.8686,4.9883,4.9853,4.8975,4.6954,4.6293,4.5581,4.2946,4.261,4.2836,4.2223,3.9741,3.7238,3.6048,3.2076,2.827,2.6172,2.2974,1.9586,1.6421,1.4714,1.3092,1.0558,0.9979,0.5865,-0.4532,-0.9445,-1.2596,-1.4318,-1.6428,-1.9889,-2.5143,-2.7573,-2.9529,-3.1361,-3.4108,-3.6415,-3.8098,-4.0294,-4.2201,-4.3979,-4.6069,-4.7154,-4.7205,-4.9369,-5.1454,-5.3674,-5.5766,-5.7552,-5.9099,-5.9159,-5.9189,-5.9495,-6.3539,-6.5215,-6.5705,-6.9662,-7.1244,-7.1312,-7.1312,-7.1312,-7.1457,4.7681,4.6935,4.6797,4.8449,4.7978,4.7132,4.6446,4.6244,4.5516,4.3718,4.3644,4.3681,4.3497,4.3497,4.3497,4.3497,4.4085,4.4525,4.4709,4.5319,4.5623,4.5427,4.5306,4.5249,4.5196,4.5365,4.5466,4.5466,4.621,4.6853,4.7368,4.6447,4.5991,4.5911,4.5316,4.4613,4.4137,4.4796,4.5095,4.5155,4.5813,4.6082,4.6172,4.683,4.71,4.71,4.7249,4.7309,4.7309,4.7309,4.7638,4.8087,4.8237,4.8985,4.9883,5.0152,5.0511,5.0218,4.7584,4.6901,4.6179,4.3534,4.2886,4.26,4.1274,3.9175,3.6721,3.3587,2.986,2.6554,2.4487,2.0232,1.6808,1.6043,1.3378,1.027,0.6961,0.3901,-0.0,-0.5222,-1.1025,-1.5168,-1.6486,-1.96,-2.2913,-2.5876,-2.7717,-2.9901,-3.2286,-3.5554,-3.8333,-4.036,-4.2259,-4.3979,-4.5671,-4.6609,-4.733,-4.7732,-4.9967,-5.2098,-5.4311,-5.5965,-5.7552,-5.9129,-5.9638,-5.9877,-6.0126,-6.3657,-6.5404,-6.6249,-6.9294,-7.0804,-7.1312,-7.1312,-7.1312,-7.1546,4.8862,4.8197,4.7975,4.899,4.8513,4.7638,4.6643,4.6498,4.5773,4.3754,4.3828,4.3938,4.3534,4.3497,4.3644,4.4048,4.4452,4.5039,4.581,4.6081,4.6205,4.6266,4.6105,4.6044,4.611,4.6554,4.6583,4.621,4.6955,4.753,4.7875,4.7301,4.6873,4.6646,4.5966,4.5367,4.4825,4.5514,4.5783,4.5843,4.6531,4.68,4.683,4.7189,4.7309,4.7309,4.7309,4.7309,4.7369,4.7668,4.7997,4.8386,4.9015,4.9673,5.0301,5.0601,5.096,5.0603,4.7808,4.7094,4.6474,4.3713,4.2986,4.2625,4.0961,3.9197,3.6837,3.3034,2.9511,2.6437,2.4336,1.9739,1.6237,1.6237,1.3102,0.9492,0.5946,-0.0988,-0.6463,-0.8292,-1.2543,-1.6216,-1.8379,-2.21,-2.5286,-2.7343,-2.9429,-3.1584,-3.3816,-3.6668,-3.913,-4.1181,-4.2832,-4.4497,-4.6301,-4.7104,-4.8002,-4.909,-5.1189,-5.2978,-5.4505,-5.6736,-5.8453,-5.9608,-5.9937,-6.0645,-6.1783,-6.45,-6.6187,-6.7362,-6.9779,-7.0973,-7.1312,-7.1312,-7.1917,-7.288,5.0111,4.9679,4.9381,4.9589,4.909,4.8278,4.6993,4.6977,4.6287,4.4011,4.4305,4.4378,4.3571,4.3608,4.3975,4.4635,4.4966,4.57,4.6984,4.6581,4.66,4.7435,4.6821,4.6562,4.6803,4.752,4.7597,4.6989,4.7733,4.8105,4.8078,4.8058,4.783,4.7405,4.6823,4.6268,4.5733,4.6425,4.6641,4.6531,4.71,4.7309,4.7309,4.7309,4.7309,4.7309,4.7309,4.7369,4.7578,4.8237,4.8536,4.8805,4.9883,5.0301,5.0511,5.105,5.1229,5.0603,4.7808,4.7094,4.6474,4.3713,4.2986,4.2513,4.0592,3.917,3.6948,3.2637,2.9598,2.6858,2.4057,1.9772,1.6456,1.633,1.3121,0.9694,0.6745,-0.3432,-1.0794,-1.1538,-1.4022,-1.7066,-2.0272,-2.4052,-2.6997,-2.8873,-3.123,-3.3699,-3.587,-3.7881,-3.9888,-4.1565,-4.3208,-4.489,-4.6301,-4.738,-4.8723,-5.0393,-5.2579,-5.4007,-5.4859,-5.7921,-5.9578,-6.0086,-6.0326,-6.1534,-6.3462,-6.5504,-6.7199,-6.8583,-7.0556,-7.1312,-7.1312,-7.1312,-7.2582,-7.431,5.0111,4.9212,4.8813,4.9835,4.8813,4.789,4.806,4.7516,4.6507,4.4782,4.4635,4.4378,4.3571,4.4121,4.4599,4.4709,4.5993,4.6874,4.7095,4.6636,4.672,4.7536,4.6477,4.6394,4.7683,4.7861,4.7868,4.7767,4.8511,4.8849,4.8883,4.9468,4.9291,4.8521,4.9594,4.916,4.7484,4.8163,4.792,4.7189,4.7279,4.7309,4.7309,4.7309,4.7309,4.7309,4.7309,4.7668,4.8267,4.8925,4.9494,5.0002,5.0182,5.0631,5.1109,5.1199,5.1229,5.0603,4.7808,4.7094,4.6474,4.3713,4.2986,4.2263,3.917,3.8342,3.6324,2.9687,2.7989,2.6064,2.0908,1.8061,1.6205,1.5046,1.2749,1.0896,1.0031,0.0431,-0.7856,-1.1234,-1.4759,-1.8466,-2.2523,-2.4896,-2.7199,-2.9583,-3.1528,-3.4334,-3.7964,-3.9866,-4.1565,-4.3333,-4.5013,-4.6059,-4.6301,-4.738,-4.8723,-5.0393,-5.3016,-5.501,-5.6508,-5.8837,-5.9997,-6.0146,-6.1313,-6.2657,-6.4071,-6.6234,-6.7845,-6.9181,-7.0757,-7.1312,-7.1312,-7.1312,-7.2582,-7.431,5.107,5.0135,4.9556,5.0281,4.9489,4.8581,4.8334,4.762,4.6544,4.4929,4.4709,4.4378,4.3571,4.4232,4.4892,4.5333,4.6434,4.7315,4.7755,4.7339,4.7214,4.7568,4.7176,4.7259,4.7902,4.8308,4.8714,4.912,4.9052,4.9221,4.9627,4.9932,5.0022,4.9912,5.0537,4.9908,4.8407,4.8686,4.821,4.7309,4.7309,4.7309,4.7309,4.7309,4.7549,4.7908,4.8267,4.8596,4.8925,4.9583,5.0002,5.0301,5.0661,5.1229,5.1768,5.1768,5.1768,5.1136,4.8443,4.7371,4.6474,4.3713,4.2375,4.1076,3.8698,3.7484,3.519,2.9232,2.7932,2.6277,2.0675,1.8194,1.657,1.5262,1.1193,0.736,0.5045,-0.13,-0.814,-1.4322,-1.6463,-1.9096,-2.3117,-2.6459,-2.8744,-2.9748,-3.2773,-3.5742,-3.8465,-4.0278,-4.1947,-4.3606,-4.5403,-4.6451,-4.6753,-4.8461,-5.0165,-5.2126,-5.453,-5.6022,-5.6736,-5.9066,-6.0296,-6.0715,-6.2445,-6.4197,-6.5995,-6.7645,-6.9121,-7.0448,-7.1098,-7.1312,-7.1401,-7.1917,-7.3044,-7.4385]},{"header":{"parameterUnit":"m.s-1","parameterCategory":1,"la1":30.6,"la2":28.766,"lo1":-90.7593,"lo2":-88.6598,"dy":0.0162,"dx":0.0183,"nx":116,"ny":114,"refTime":"2024-03-24T06:00:00:Z","depth":0,"parameterNumber":3,"parameterNumberName":"V-component_of_WINDS"},"data":[0.0,0.0,0.0,0.0,0.0,0.0,0.0,0.0,0.0,0.0,0.0,0.0,0.0,0.0,0.0,0.0,0.0,0.0,0.0,0.0,0.0,0.0,0.0,0.0,0.0,0.0,0.0,0.0,0.0,0.0,0.0,0.0,0.0,0.0,0.0,0.0,0.0,0.0,0.0,0.0,0.0,0.0,0.0,0.0,0.0,0.0,0.0,0.0,0.0,0.0,0.0,0.0,0.0,0.0,0.0,0.0,0.0,0.0,0.0,0.0,0.0,0.0,0.0,0.0,0.0,0.0,0.0,0.0,0.0,0.0,0.0,0.0,0.0,0.0,0.0,0.0,0.0,0.0,0.0,0.0,0.0,0.0,0.0,0.0,0.0,0.0,0.0,0.0,0.0,0.0,0.0,0.0,0.0,0.0,0.0,0.0,0.0,0.0,0.0,0.0,0.0,0.0,0.0,0.0,0.0,0.0,0.0,0.0,0.0,0.0,0.0,0.0,0.0,0.0,0.0,0.0,0.0,0.0,0.0,0.0,0.0,0.0,0.0,0.0,0.0,0.0,0.0,0.0,0.0,0.0,0.0,0.0,0.0,0.0,0.0,0.0,0.0,0.0,0.0,0.0,0.0,0.0,0.0,0.0,0.0,0.0,0.0,0.0,0.0,0.0,0.0,0.0,0.0,0.0,0.0,0.0,0.0,0.0,0.0,0.0,0.0,0.0,0.0,0.0,0.0,0.0,0.0,0.0,0.0,0.0,0.0,0.0,0.0,0.0,0.0,0.0,0.0,0.0,0.0,0.0,0.0,0.0,0.0,0.0,0.0,0.0,0.0,0.0,0.0,0.0,0.0,0.0,0.0,0.0,0.0,0.0,0.0,0.0,0.0,0.0,0.0,0.0,0.0,0.0,0.0,0.0,0.0,0.0,0.0,0.0,0.0,0.0,0.0,0.0,0.0,0.0,0.0,0.0,0.0,0.0,0.0,0.0,0.0,0.0,0.0,0.0,0.0,0.0,0.0,0.0,0.0,0.0,0.0,0.0,0.0,0.0,0.0,0.0,0.0,0.0,0.0,0.0,0.0,0.0,0.0,0.0,0.0,0.0,0.0,0.0,0.0,0.0,0.0,0.0,0.0,0.0,0.0,0.0,0.0,0.0,0.0,0.0,0.0,0.0,0.0,0.0,0.0,0.0,0.0,0.0,0.0,0.0,0.0,0.0,0.0,0.0,0.0,0.0,0.0,0.0,0.0,0.0,0.0,0.0,0.0,0.0,0.0,0.0,0.0,0.0,0.0,0.0,0.0,0.0,0.0,0.0,0.0,0.0,0.0,0.0,0.0,0.0,0.0,0.0,0.0,0.0,0.0,0.0,0.0,0.0,0.0,0.0,0.0,0.0,0.0,0.0,0.0,0.0,0.0,0.0,0.0,0.0,0.0,0.0,0.0,0.0,0.0,0.0,0.0,0.0,0.0,0.0,0.0,0.0,0.0,0.0,0.0,0.0,0.0,0.0,0.0,0.0,0.0,0.0,0.0,0.0,0.0,0.0,0.0,0.0,0.0,0.0,0.0,0.0,0.0,0.0,0.0,0.0,0.0,0.0,0.0,0.0,0.0,0.0,0.0,0.0,0.0,0.0,0.0,0.0,0.0,0.0,0.0,0.0,0.0,0.0,0.0,0.0,0.0,0.0,0.0,0.0,0.0,0.0,0.0,0.0,0.0,0.0,0.0,0.0,0.0,0.0,0.0,0.0,0.0,0.0,0.0,0.0,0.0,0.0,0.0,0.0,0.0,0.0,0.0,0.0,0.0,0.0,0.0,0.0,0.0,0.0,0.0,0.0,0.0,0.0,0.0,0.0,0.0,0.0,0.0,0.0,0.0,0.0,0.0,0.0,0.0,0.0,0.0,0.0,0.0,0.0,0.0,0.0,0.0,0.0,0.0,0.0,0.0,0.0,0.0,0.0,0.0,0.0,0.0,0.0,0.0,0.0,0.0,0.0,0.0,0.0,0.0,0.0,0.0,0.0,0.0,0.0,0.0,0.0,0.0,0.0,0.0,0.0,0.0,0.0,0.0,0.0,0.0,0.0,0.0,0.0,0.0,0.0,0.0,0.0,0.0,0.0,0.0,0.0,0.0,0.0,0.0,0.0,0.0,0.0,0.0,0.0,0.0,0.0,0.0,0.0,0.0,0.0,0.0,0.0,0.0,0.0,0.0,0.0,0.0,0.0,0.0,0.0,0.0,0.0,0.0,0.0,0.0,0.0,0.0,0.0,0.0,0.0,0.0,0.0,0.0,0.0,0.0,0.0,0.0,0.0,0.0,0.0,0.0,0.0,0.0,0.0,0.0,0.0,0.0,0.0,0.0,0.0,0.0,0.0,0.0,0.0,0.0,0.0,0.0,0.0,0.0,0.0,0.0,0.0,0.0,0.0,0.0,0.0,0.0,0.0,0.0,0.0,0.0,0.0,0.0,0.0,0.0,0.0,0.0,0.0,0.0,0.0,0.0,0.0,0.0,0.0,0.0,0.0,0.0,0.0,0.0,0.0,0.0,0.0,0.0,0.0,0.0,0.0,0.0,0.0,0.0,0.0,0.0,0.0,0.0,0.0,0.0,0.0,0.0,0.0,0.0,0.0,0.0,0.0,0.0,0.0,0.0,0.0,0.0,0.0,0.0,0.0,0.0,0.0,0.0,0.0,0.0,0.0,0.0,0.0,0.0,0.0,0.0,0.0,0.0,0.0,0.0,0.0,0.0,0.0,0.0,0.0,0.0,0.0,0.0,0.0,0.0,0.0,0.0,0.0,0.0,0.0,0.0,0.0,0.0,0.0,0.0,0.0,0.0,0.0,0.0,0.0,0.0,0.0,0.0,0.0,0.0,0.0,0.0,0.0,0.0,0.0,0.0,0.0,0.0,0.0,0.0,0.0,0.0,0.0,0.0,0.0,0.0,0.0,0.0,0.0,0.0,0.0,0.0,0.0,0.0,0.0,0.0,0.0,0.0,0.0,0.0,0.0,0.0,0.0,0.0,0.0,0.0,0.0,0.0,0.0,0.0,0.0,0.0,0.0,0.0,0.0,0.0,0.0,0.0,0.0,0.0,0.0,0.0,0.0,0.0,0.0,0.0,0.0,0.0,0.0,0.0,0.0,0.0,0.0,0.0,0.0,0.0,0.0,0.0,0.0,0.0,0.0,0.0,0.0,0.0,0.0,0.0,0.0,0.0,0.0,0.0,0.0,0.0,0.0,0.0,0.0,0.0,0.0,0.0,0.0,0.0,0.0,0.0,0.0,0.0,0.0,0.0,0.0,0.0,0.0,0.0,0.0,0.0,0.0,0.0,0.0,0.0,0.0,0.0,0.0,0.0,0.0,0.0,0.0,0.0,0.0,0.0,0.0,0.0,0.0,0.0,0.0,0.0,0.0,0.0,0.0,0.0,0.0,0.0,0.0,0.0,0.0,0.0,0.0,0.0,0.0,0.0,0.0,0.0,0.0,0.0,0.0,0.0,0.0,0.0,0.0,0.0,0.0,0.0,0.0,0.0,0.0,0.0,0.0,0.0,0.0,0.0,0.0,0.0,0.0,0.0,0.0,0.0,0.0,0.0,0.0,0.0,0.0,0.0,0.0,0.0,0.0,0.0,0.0,0.0,0.0,0.0,0.0,0.0,0.0,0.0,0.0,0.0,0.0,0.0,0.0,0.0,0.0,0.0,0.0,0.0,0.0,0.0,0.0,0.0,0.0,0.0,0.0,0.0,0.0,0.0,0.0,0.0,0.0,0.0,0.0,0.0,0.0,0.0,0.0,0.0,0.0,0.0,0.0,0.0,0.0,0.0,0.0,0.0,0.0,0.0,0.0,0.0,0.0,0.0,0.0,0.0,0.0,0.0,0.0,0.0,0.0,0.0,0.0,0.0,0.0,0.0,0.0,0.0,0.0,0.0,0.0,0.0,0.0,0.0,0.0,0.0,0.0,0.0,0.0,0.0,0.0,0.0,0.0,0.0,0.0,0.0,0.0,0.0,0.0,0.0,0.0,0.0,0.0,0.0,0.0,0.0,0.0,0.0,0.0,0.0,0.0,0.0,0.0,0.0,0.0,0.0,0.0,0.0,0.0,0.0,0.0,0.0,0.0,0.0,0.0,0.0,0.0,0.0,0.0,0.0,0.0,0.0,0.0,0.0,0.0,0.0,0.0,0.0,0.0,0.0,0.0,0.0,0.0,0.0,0.0,0.0,0.0,0.0,0.0,0.0,0.0,0.0,0.0,0.0,0.0,0.0,0.0,0.0,0.0,0.0,0.0,0.0,0.0,0.0,0.0,0.0,0.0,0.0,0.0,0.0,0.0,0.0,0.0,0.0,0.0,0.0,0.0,0.0,0.0,0.0,0.0,0.0,0.0,0.0,0.0,0.0,0.0,0.0,0.0,0.0,0.0,0.0,0.0,0.0,0.0,0.0,0.0,0.0,0.0,0.0,0.0,0.0,0.0,0.0,0.0,0.0,0.0,0.0,0.0,0.0,0.0,0.0,0.0,0.0,0.0,0.0,0.0,0.0,0.0,0.0,0.0,0.0,0.0,0.0,0.0,0.0,0.0,0.0,0.0,0.0,0.0,0.0,0.0,0.0,0.0,0.0,0.0,0.0,0.0,0.0,0.0,0.0,0.0,0.0,0.0,0.0,0.0,0.0,0.0,0.0,0.0,0.0,0.0,0.0,0.0,0.0,0.0,0.0,0.0,0.0,0.0,0.0,0.0,0.0,0.0,0.0,0.0,0.0,0.0,0.0,0.0,0.0,0.0,0.0,0.0,0.0,0.0,0.0,0.0,0.0,0.0,0.0,0.0,0.0,0.0,0.0,0.0,0.0,0.0,0.0,0.0,0.0,0.0,0.0,0.0,0.0,0.0,0.0,0.0,0.0,0.0,0.0,0.0,0.0,0.0,0.0,0.0,0.0,0.0,0.0,0.0,0.0,0.0,0.0,0.0,0.0,0.0,0.0,0.0,0.0,0.0,0.0,0.0,0.0,0.0,0.0,0.0,0.0,0.0,0.0,0.0,0.0,0.0,0.0,0.0,0.0,0.0,0.0,0.0,0.0,0.0,0.0,0.0,0.0,0.0,0.0,0.0,0.0,0.0,0.0,0.0,0.0,0.0,0.0,0.0,0.0,0.0,0.0,0.0,0.0,0.0,0.0,0.0,0.0,0.0,0.0,0.0,0.0,0.0,0.0,0.0,0.0,0.0,0.0,0.0,0.0,0.0,0.0,0.0,0.0,0.0,0.0,0.0,0.0,0.0,0.0,0.0,0.0,0.0,0.0,0.0,0.0,0.0,0.0,0.0,0.0,0.0,0.0,0.0,0.0,0.0,0.0,0.0,0.0,0.0,0.0,0.0,0.0,0.0,0.0,0.0,0.0,0.0,0.0,0.0,0.0,0.0,0.0,0.0,0.0,0.0,0.0,0.0,0.0,0.0,0.0,0.0,0.0,0.0,0.0,0.0,0.0,0.0,0.0,0.0,0.0,0.0,0.0,0.0,0.0,0.0,0.0,0.0,0.0,0.0,0.0,0.0,0.0,0.0,0.0,0.0,0.0,0.0,0.0,0.0,0.0,0.0,0.0,0.0,0.0,0.0,0.0,0.0,0.0,0.0,0.0,0.0,0.0,0.0,0.0,0.0,0.0,0.0,0.0,0.0,0.0,0.0,0.0,0.0,0.0,0.0,0.0,0.0,0.0,0.0,0.0,0.0,0.0,0.0,0.0,0.0,0.0,0.0,0.0,0.0,0.0,0.0,0.0,0.0,0.0,0.0,0.0,0.0,0.0,0.0,0.0,0.0,0.0,0.0,0.0,0.0,0.0,0.0,0.0,0.0,0.0,0.0,0.0,0.0,0.0,0.0,0.0,0.0,0.0,0.0,0.0,0.0,0.0,0.0,0.0,0.0,0.0,0.0,0.0,0.0,0.0,0.0,0.0,0.0,0.0,0.0,0.0,0.0,0.0,0.0,0.0,0.0,0.0,0.0,0.0,0.0,0.0,0.0,0.0,0.0,0.0,0.0,0.0,0.0,0.0,0.0,0.0,0.0,0.0,0.0,0.0,0.0,0.0,0.0,0.0,0.0,-5.123,-5.2976,0.0,0.0,0.0,0.0,0.0,0.0,0.0,0.0,0.0,0.0,0.0,0.0,0.0,0.0,0.0,0.0,0.0,0.0,0.0,0.0,0.0,0.0,0.0,-2.1552,-2.1306,-2.1306,-2.0667,-2.0299,-2.0299,-1.9945,-1.969,-1.969,-1.9442,-1.9332,-1.9332,-1.9043,-1.8779,-1.8521,-1.8275,-1.7939,-1.7484,-1.7242,-1.7603,-1.8484,0.0,0.0,0.0,0.0,0.0,0.0,0.0,0.0,0.0,0.0,0.0,0.0,0.0,0.0,0.0,0.0,0.0,0.0,0.0,0.0,0.0,0.0,0.0,0.0,0.0,0.0,0.0,0.0,0.0,0.0,0.0,0.0,0.0,0.0,0.0,0.0,0.0,0.0,0.0,0.0,0.0,0.0,0.0,0.0,0.0,0.0,0.0,0.0,0.0,0.0,0.0,0.0,0.0,0.0,0.0,0.0,0.0,0.0,0.0,0.0,0.0,0.0,0.0,0.0,0.0,0.0,0.0,0.0,0.0,0.0,-5.1294,-5.3041,0.0,0.0,0.0,0.0,0.0,0.0,0.0,0.0,0.0,0.0,0.0,0.0,0.0,0.0,0.0,0.0,0.0,0.0,0.0,0.0,0.0,-2.1491,-2.1491,-2.1215,-2.1052,-2.1052,-2.0553,-2.0242,-2.0242,-1.9726,-1.9406,-1.9406,-1.9006,-1.8779,-1.8779,-1.8327,-1.8108,-1.8098,-1.8,-1.7842,-1.7607,-1.7118,-1.7261,-1.7938,-1.9032,0.0,0.0,0.0,0.0,0.0,0.0,0.0,0.0,0.0,0.0,0.0,0.0,0.0,0.0,0.0,0.0,0.0,0.0,0.0,0.0,0.0,0.0,0.0,0.0,0.0,0.0,0.0,0.0,0.0,0.0,0.0,0.0,0.0,0.0,0.0,0.0,0.0,0.0,0.0,0.0,0.0,0.0,0.0,0.0,0.0,0.0,0.0,0.0,0.0,0.0,0.0,0.0,0.0,0.0,0.0,0.0,0.0,0.0,0.0,0.0,0.0,0.0,0.0,-4.3571,-4.4485,-4.6109,-4.6853,-4.8226,-5.0068,-5.1686,-5.3291,-5.4984,-5.6541,0.0,0.0,0.0,0.0,0.0,0.0,0.0,0.0,0.0,0.0,0.0,0.0,0.0,0.0,0.0,0.0,0.0,0.0,0.0,-2.1086,-2.1086,-2.1201,-2.1268,-2.1268,-2.043,-1.9924,-1.9924,-1.891,-1.8288,-1.8288,-1.8249,-1.821,-1.821,-1.8131,-1.8126,-1.819,-1.7363,-1.6824,-1.6645,-1.699,-1.7391,-1.785,-1.8267,-1.8679,-1.9005,0.0,0.0,0.0,0.0,0.0,0.0,0.0,0.0,0.0,0.0,0.0,0.0,0.0,0.0,0.0,0.0,0.0,0.0,0.0,0.0,0.0,0.0,0.0,0.0,0.0,0.0,0.0,0.0,0.0,0.0,0.0,0.0,0.0,0.0,0.0,0.0,0.0,0.0,0.0,0.0,0.0,-2.3683,-2.538,0.0,0.0,0.0,0.0,0.0,0.0,0.0,0.0,0.0,0.0,0.0,0.0,0.0,-4.0247,-4.0321,-4.1606,-4.3022,-4.4449,-4.4439,-4.5534,-4.7665,-4.8376,-4.9215,-5.0249,-5.2399,0.0,-5.3789,-5.5323,0.0,0.0,0.0,0.0,0.0,0.0,0.0,0.0,0.0,0.0,0.0,0.0,0.0,0.0,0.0,0.0,0.0,0.0,0.0,0.0,0.0,-2.0452,-2.0245,-2.0902,-2.028,-1.9712,-1.9388,-1.8837,-1.8411,-1.812,-1.7814,-1.7653,-1.7653,-1.7697,-1.8156,-1.9092,-1.7634,-1.7384,-1.8235,-1.7821,-1.782,-1.8241,-1.8414,-1.8638,-1.891,-1.891,0.0,0.0,0.0,0.0,0.0,0.0,0.0,0.0,0.0,0.0,0.0,0.0,0.0,0.0,0.0,0.0,0.0,0.0,0.0,0.0,0.0,0.0,0.0,0.0,0.0,0.0,0.0,0.0,0.0,0.0,0.0,0.0,0.0,0.0,0.0,0.0,0.0,0.0,0.0,-2.3707,-2.4418,-2.5887,-2.7249,-2.8284,0.0,0.0,0.0,0.0,0.0,0.0,0.0,0.0,0.0,-3.8307,-3.9366,-4.0359,-4.1247,-4.2692,-4.403,-4.5229,-4.5477,-4.6333,-4.7728,-4.8427,-4.9393,-5.056,-5.2157,-5.3088,-5.3562,-5.5058,-5.5612,-5.5679,0.0,0.0,0.0,0.0,-6.0573,-6.1184,0.0,0.0,0.0,0.0,0.0,0.0,0.0,0.0,0.0,0.0,0.0,0.0,-2.0758,-1.985,-1.9558,-2.0628,-2.0207,-1.9663,-1.9201,-1.8773,-1.8311,-1.7922,-1.7391,-1.7105,-1.7105,-1.7702,-1.8559,-1.975,-1.8516,-1.8652,-1.9964,-1.8826,-1.8613,-1.9121,-1.9023,-1.8899,-1.8805,-1.8805,-1.8364,-1.7739,0.0,0.0,0.0,0.0,0.0,0.0,0.0,0.0,0.0,0.0,0.0,0.0,0.0,0.0,0.0,0.0,0.0,0.0,0.0,0.0,0.0,0.0,0.0,0.0,0.0,0.0,0.0,0.0,0.0,0.0,0.0,0.0,0.0,0.0,0.0,0.0,0.0,-2.4484,-2.488,-2.597,-2.7445,-2.8222,0.0,0.0,0.0,0.0,0.0,0.0,-3.5123,-3.6628,-3.7836,-3.8685,-3.9566,-4.0703,-4.2064,-4.3768,-4.5119,-4.6219,-4.6799,-4.757,-4.8465,-4.8958,-4.9743,-5.0834,-5.1762,-5.2572,-5.3213,-5.4783,-5.532,-5.532,-5.6812,-5.7655,-5.8148,-5.9446,-6.0387,-6.1053,0.0,0.0,0.0,0.0,0.0,0.0,0.0,0.0,0.0,0.0,0.0,-1.9161,-1.9717,-1.9796,-2.0108,-2.0744,-2.0294,-1.9966,-1.994,-1.839,-1.744,-1.7415,-1.6841,-1.6565,-1.6565,-1.8581,-1.9648,-1.961,-2.0152,-2.0533,-2.0709,-1.9705,-1.9668,-2.0449,-2.0039,-1.9355,-1.8605,-1.8605,-1.8135,-1.7409,-1.7475,0.0,0.0,0.0,0.0,0.0,0.0,0.0,0.0,0.0,0.0,0.0,0.0,0.0,0.0,0.0,0.0,0.0,0.0,0.0,0.0,0.0,0.0,0.0,0.0,0.0,0.0,0.0,0.0,0.0,0.0,0.0,0.0,0.0,0.0,0.0,0.0,0.0,0.0,-2.4968,-2.6,0.0,0.0,0.0,0.0,-3.1447,-3.2567,-3.3705,-3.4929,-3.5993,-3.7121,-3.8382,-3.9917,-4.0976,-4.169,-4.4139,-4.6057,-4.7506,-4.8413,-4.9632,-5.0986,-5.0753,-5.0735,-5.0867,-5.1559,-5.196,-5.2137,-5.3905,-5.4264,-5.3849,-5.6039,-5.7037,-5.7332,-5.8878,-6.0121,-6.1032,0.0,0.0,0.0,0.0,0.0,0.0,-1.969,-1.969,-1.9551,-1.9258,-1.9006,-1.9265,-2.0299,-2.0074,-2.0384,-2.1712,-2.0965,-2.0297,-1.9888,-1.8649,-1.7903,-1.7903,-1.7375,-1.7727,-1.9158,-1.8887,-1.9715,-2.1832,-2.0694,-2.0751,-2.1886,-2.1271,-2.1133,-2.1406,-2.125,-2.0859,-2.0254,-1.9414,-1.8711,-1.8184,-1.8184,-1.8065,0.0,0.0,0.0,0.0,0.0,0.0,0.0,0.0,0.0,0.0,0.0,0.0,0.0,0.0,0.0,0.0,0.0,0.0,0.0,0.0,0.0,0.0,0.0,0.0,0.0,0.0,0.0,0.0,0.0,0.0,0.0,0.0,0.0,0.0,0.0,0.0,0.0,-2.6374,-2.7596,0.0,-2.8247,-2.9054,-2.9817,-3.0407,-3.1663,-3.3248,-3.5162,-3.6201,-3.7605,-3.9649,-4.1066,-4.2389,-4.3696,-4.6095,-4.7846,-4.8989,-4.9756,-5.0458,-5.099,-5.1338,-5.1526,-5.1559,-5.2527,-5.3207,-5.3679,-5.382,-5.3717,-5.3685,-5.5472,-5.6515,-5.7287,-5.8803,-6.0129,-6.1263,0.0,0.0,0.0,0.0,0.0,0.0,-1.969,-1.9551,-1.9295,-1.8968,-1.8766,-1.9114,-2.0305,-2.006,-2.0395,-2.1947,-2.1237,-2.0567,-2.0112,-1.8907,-1.8279,-1.848,-1.8017,-1.8583,-2.0373,-1.9687,-2.0568,-2.3075,-2.1723,-2.1683,-2.2995,-2.2367,-2.2168,-2.2305,-2.2168,-2.1934,-2.1602,-2.0586,-1.9746,-1.8971,-1.8548,-1.8176,-1.7783,0.0,0.0,0.0,0.0,0.0,0.0,0.0,0.0,0.0,0.0,0.0,0.0,0.0,0.0,0.0,0.0,0.0,0.0,0.0,0.0,0.0,0.0,0.0,0.0,0.0,0.0,0.0,0.0,0.0,0.0,0.0,0.0,0.0,0.0,-2.6009,-2.6791,-2.772,-2.863,-2.916,-2.8975,-2.9781,-3.0367,-3.036,-3.1733,-3.351,-3.5604,-3.6855,-3.8556,-4.1025,-4.2132,-4.3516,-4.5122,-4.6972,-4.8699,-5.0109,-5.0651,-5.1256,-5.1755,-5.1834,-5.1921,-5.1921,-5.2894,-5.3576,-5.4082,-5.4192,-5.4262,-5.4398,-5.5634,-5.6725,-5.781,-5.9289,-6.0463,-6.1426,0.0,0.0,0.0,0.0,0.0,0.0,-1.9551,-1.9221,-1.8855,-1.8884,-1.8495,-1.8666,-1.9729,-1.9838,-2.0338,-2.1443,-2.1016,-2.0743,-2.0743,-1.9158,-1.8432,-1.9008,-1.8653,-1.8923,-1.9854,-2.1106,-2.2138,-2.3106,-2.3218,-2.3512,-2.393,-2.2944,-2.2754,-2.3125,-2.2648,-2.2473,-2.2434,-2.2026,-2.1111,-1.9734,-1.8527,-1.7895,-1.7712,0.0,0.0,0.0,0.0,0.0,0.0,0.0,0.0,0.0,0.0,0.0,0.0,0.0,0.0,0.0,0.0,0.0,0.0,0.0,0.0,0.0,0.0,0.0,0.0,0.0,0.0,0.0,0.0,0.0,0.0,0.0,0.0,0.0,-2.504,-2.5959,-2.7168,-2.8775,-2.8976,-2.9428,-3.0532,-3.0633,-3.0859,-3.1411,-3.2817,-3.45,-3.6373,-3.7962,-3.9926,-4.2372,-4.306,-4.4243,-4.5911,-4.6845,-4.8537,-5.0975,-5.1161,-5.2063,-5.3416,-5.2383,-5.1921,-5.1987,-5.2719,-5.3049,-5.3254,-5.4992,-5.5716,-5.5822,-5.665,-5.7723,-5.8963,-6.018,-6.0997,-6.1478,0.0,0.0,0.0,0.0,0.0,-1.8366,-1.8521,-1.8405,-1.8337,-1.8398,-1.8977,-1.9638,-2.0373,-2.1176,-2.192,-2.2623,-2.182,-2.1267,-2.1267,-1.971,-1.8907,-1.9125,-1.9747,-2.0611,-2.1733,-2.1747,-2.2366,-2.371,-2.3103,-2.2944,-2.3295,-2.3055,-2.3027,-2.3057,-2.2344,-2.197,-2.197,-2.0922,-2.0073,-1.954,-2.0049,-1.9908,-1.9259,0.0,0.0,0.0,0.0,0.0,0.0,0.0,0.0,0.0,0.0,0.0,0.0,0.0,0.0,0.0,0.0,0.0,0.0,0.0,0.0,0.0,0.0,0.0,0.0,0.0,0.0,0.0,0.0,0.0,0.0,0.0,-2.4895,-2.5829,-2.6547,-2.795,-2.9051,-2.9503,-3.0231,-3.0834,-3.116,-3.1185,-3.1562,-3.2541,-3.2997,-3.4737,-3.8117,-3.9117,-4.0936,-4.3668,-4.4885,-4.604,-4.726,-4.8744,-5.0251,-5.1625,-5.2504,-5.3112,-5.3518,-5.3179,-5.3379,-5.385,-5.3547,-5.4287,-5.5698,-5.5173,-5.5852,-5.7352,-5.7639,-5.8393,-5.9516,-6.0975,-6.184,-6.2206,0.0,0.0,0.0,0.0,0.0,-1.7814,-1.8052,-1.7894,-1.7854,-1.8173,-1.8962,-1.976,-2.0592,-2.1443,-2.2196,-2.2749,-2.1769,-2.1142,-2.1142,-2.0064,-1.9364,-1.9272,-2.0281,-2.1344,-2.2413,-2.2138,-2.2554,-2.3608,-2.3031,-2.2988,-2.3418,-2.3418,-2.3516,-2.3602,-2.3107,-2.2557,-2.1841,-2.1067,-2.0197,-1.943,-2.0217,-1.9989,-1.9304,-1.9521,-1.9525,-1.9411,-1.9519,-1.9551,-1.9531,-1.9355,0.0,0.0,0.0,0.0,0.0,0.0,0.0,0.0,0.0,0.0,0.0,0.0,0.0,0.0,0.0,0.0,0.0,0.0,0.0,0.0,0.0,0.0,0.0,0.0,-2.5338,-2.6652,-2.8175,-2.9176,-3.0055,-3.0733,-3.1562,-3.219,-3.2416,-3.2641,-3.3068,-3.3721,-3.4474,-3.62,-3.925,-4.0518,-4.2194,-4.4624,-4.6139,-4.7446,-4.8498,-4.9876,-5.123,-5.2557,-5.2842,-5.3179,-5.3518,-5.3518,-5.389,-5.4566,-5.416,-5.504,-5.6731,-5.6235,-5.6987,-5.8391,0.0,0.0,0.0,0.0,-6.2557,-6.2133,0.0,0.0,0.0,0.0,0.0,-1.7394,-1.7854,-1.7517,-1.7424,-1.8105,-1.8639,-1.9459,-2.0592,-2.1167,-2.1694,-2.2171,-2.1267,-2.069,-2.0632,-2.0184,-1.9832,-1.9595,-2.0589,-2.1521,-2.2347,-2.2542,-2.2832,-2.3203,-2.3262,-2.3477,-2.3867,-2.3867,-2.4062,-2.4414,-2.4268,-2.3428,-2.2059,-2.1781,-2.083,-1.9494,-1.9412,-1.9027,-1.8493,-1.9,-1.9255,-1.9516,-1.9615,-1.9812,-1.9831,-1.9464,0.0,0.0,0.0,0.0,0.0,0.0,0.0,0.0,0.0,0.0,0.0,0.0,0.0,0.0,0.0,0.0,0.0,0.0,0.0,0.0,0.0,0.0,0.0,0.0,-2.6401,-2.7534,-2.9712,-3.0077,-3.0708,-3.2139,-3.2817,-3.3395,-3.3947,-3.4424,-3.4751,-3.4826,-3.643,-3.8202,-4.0,-4.1824,0.0,0.0,0.0,-4.8467,-4.9512,-5.0431,-5.1822,-5.3484,-5.2773,-5.2807,-5.3518,-5.3585,-5.4025,-5.4702,-5.4702,-5.5617,-5.7114,-5.7738,-5.8585,-5.9404,-5.9668,-6.0388,-6.1563,-6.3648,-6.3217,-6.1712,0.0,0.0,0.0,0.0,0.0,-1.6667,-1.6795,-1.671,-1.7048,-1.8088,-1.8654,-1.9459,-2.0592,-2.1167,-2.1518,-2.1644,-2.1041,-2.0543,-2.0151,-1.9847,-2.0008,-2.0636,-2.1515,-2.2149,-2.2478,-2.3193,-2.3574,-2.3672,-2.4004,-2.4219,-2.4297,-2.4297,-2.4336,-2.4341,-2.3616,-2.3135,-2.2679,-2.0622,-1.9506,-1.9201,-1.8571,-1.8503,-1.8836,-1.8862,-1.8679,-1.8462,-1.8482,-1.9186,-1.9934,-1.9861,-1.9906,-2.0082,-2.0312,-1.9694,0.0,0.0,0.0,0.0,0.0,0.0,0.0,0.0,0.0,0.0,0.0,0.0,0.0,0.0,0.0,0.0,0.0,0.0,0.0,-2.6086,-2.7255,-2.8702,-3.0759,-3.1907,-3.2566,-3.2867,-3.3395,-3.3947,-3.45,-3.465,-3.4901,-3.5353,-3.7092,-3.8819,-4.0548,-4.2906,-4.4792,-4.6028,-4.7742,-4.9108,-5.0205,-5.1182,-5.232,-5.3518,-5.3348,0.0,-5.3518,-5.4126,-5.4803,-5.5513,-5.5513,-5.6678,-5.8599,-5.8178,-5.9222,-6.1214,-6.2022,-6.2567,-6.3056,-6.4407,-6.3819,-6.2293,0.0,0.0,0.0,0.0,0.0,-1.6522,-1.6522,-1.6522,-1.6823,-1.7677,-1.8279,-1.8932,-1.9761,-2.0087,-2.0263,-2.0263,-1.9867,-1.9452,-1.8926,-1.9619,-2.0359,-2.1028,-2.195,-2.2566,-2.2812,-2.3457,-2.3789,-2.3789,-2.4219,-2.4531,-2.4746,-2.4746,-2.4863,-2.4983,-2.4602,-2.3481,-2.2097,-2.1509,-1.9928,-1.7981,-1.8258,-1.859,-1.88,-1.9092,-1.9027,-1.8935,-1.9278,-1.9817,-2.0382,-2.081,-2.0724,-2.0529,-2.105,-2.0447,-1.9486,0.0,0.0,0.0,0.0,0.0,0.0,0.0,0.0,0.0,0.0,0.0,0.0,0.0,0.0,-2.2717,-2.3232,0.0,-2.4363,-2.5478,-2.7544,-2.9519,-3.108,-3.2793,-3.3897,-3.3897,-3.4374,-3.4826,-3.5102,-3.5378,-3.6033,-3.7191,-3.8735,-4.0446,-4.2612,-4.4472,-4.5898,-4.68,-4.8573,-4.9852,-5.0397,-5.1921,-5.314,-5.4059,-5.4059,-5.4228,-5.4634,-5.4972,-5.5547,-5.6224,-5.6269,-5.7361,-5.9143,-5.9628,-6.0911,-6.2684,-6.3456,-6.3381,-6.2975,-6.4522,-6.3779,-6.2004,0.0,0.0,0.0,0.0,0.0,-1.6522,-1.6522,-1.6522,-1.6722,-1.73,-1.7777,-1.8254,-1.8807,-1.8758,-1.8635,-1.8585,-1.8324,-1.8171,-1.8176,-1.9534,-2.0676,-2.1426,-2.2305,-2.293,-2.3262,-2.3769,-2.4043,-2.4043,-2.4473,-2.4902,-2.5312,-2.5234,-2.543,-2.5859,-2.5781,-2.4324,-2.2102,-2.309,-2.1263,-1.7851,-1.8865,-1.9132,-1.8958,-1.9442,-1.9596,-1.9729,-2.0253,-2.0604,-2.0757,-2.1419,-2.1108,-2.0523,-2.1491,-2.0857,-1.9938,-2.0429,-2.0312,0.0,0.0,0.0,0.0,0.0,0.0,0.0,0.0,-2.1839,-2.2557,-2.2961,-2.3047,-2.3045,-2.3265,-2.4221,-2.5147,-2.5487,-2.821,-3.0668,-3.1687,-3.3572,-3.4926,-3.5027,-3.5328,-3.5722,-3.6176,-3.6607,-3.7723,-3.9455,-4.0776,-4.2439,-4.4498,-4.5782,-4.6826,-4.7593,-4.9407,-5.0474,-5.0703,-5.269,-5.4025,-5.46,-5.4907,-5.5315,-5.5716,-5.6028,-5.6365,-5.6836,-5.732,-5.8229,-5.9509,-6.1171,-6.2522,-6.3674,-6.4212,-6.3615,-6.2665,-6.4425,-6.3549,-6.1555,0.0,0.0,0.0,0.0,0.0,0.0,-1.6522,-1.6522,-1.6722,-1.73,-1.7426,-1.7677,-1.8229,-1.7823,-1.7405,-1.7237,-1.6929,-1.7522,-1.9489,-1.9805,-2.0664,-2.2285,-2.3184,-2.3672,-2.3711,-2.4512,-2.4922,-2.4922,-2.5371,-2.582,-2.623,-2.584,-2.5898,-2.6289,-2.5918,-2.5509,-2.5178,-2.4509,-2.3184,-2.149,-2.1489,-2.075,-1.952,-1.9894,-2.0052,-2.0002,-1.9745,-2.011,-2.0706,-2.0757,-2.0978,-2.1128,-2.1228,-2.0917,-2.0469,-2.0586,-2.0527,-2.0391,-1.9961,-1.957,-1.9394,-1.9805,-1.9977,-2.0269,0.0,-2.1313,-2.1511,-2.1967,-2.2046,-2.2324,-2.311,-2.4914,-2.6825,-2.8143,-3.0795,-3.3046,-3.413,-3.4961,-3.5629,-3.6132,-3.5805,-3.637,-3.8503,-3.8754,-3.9573,-4.1333,-4.3182,-4.4294,-4.4556,-4.6225,-4.7619,-4.8594,-4.9773,-5.0855,-5.1704,-5.3576,-5.4499,-5.46,-5.6022,-5.6333,-5.575,-5.7089,-5.7398,-5.6904,-5.9085,-6.0132,-6.0397,-6.1969,-6.3025,-6.3668,-6.4304,-6.3911,-6.3081,-6.4541,-6.351,-6.1337,0.0,0.0,0.0,0.0,0.0,0.0,0.0,-1.6522,-1.6597,-1.6848,-1.6873,-1.6816,-1.6699,-1.6173,-1.5697,-1.5495,-1.6081,-1.7121,-1.867,-1.9752,-2.1074,-2.2793,-2.3457,-2.3906,-2.4141,-2.4746,-2.5195,-2.5449,-2.5898,-2.6328,-2.6738,-2.6562,-2.6582,-2.6738,-2.6562,-2.6064,-2.5339,-2.5711,-2.4621,-2.259,-2.3049,-2.2773,-2.1963,-2.1552,-2.144,-2.1353,-2.0237,-1.9991,0.0,-2.0604,-2.0713,-2.084,-2.084,-2.0547,-2.0234,-2.0488,-2.0391,-2.0195,-2.0273,-2.0156,-2.0137,-2.0566,-2.0684,-2.084,-2.1465,-2.1621,-2.1738,-2.2168,-2.2812,-2.3555,-2.4456,-2.6109,-2.7712,-2.8633,-3.1144,-3.3162,-3.3601,-3.4991,-3.5981,-3.5906,-3.5956,-3.6463,-3.7458,-3.8516,-3.9838,-4.1688,-4.3531,-4.5083,-4.6108,-4.687,-4.7764,-4.8759,-4.9852,-5.1124,-5.2514,-5.4398,-5.5484,-5.5886,-5.7508,-5.7825,-5.7002,-5.8152,-5.8727,-5.8959,-5.9945,-6.0938,-6.186,-6.2515,-6.3271,-6.4094,-6.4462,-6.4158,-6.3604,-6.4695,-6.351,-6.1317,0.0,0.0,0.0,0.0,0.0,0.0,0.0,0.0,-1.602,-1.602,-1.6098,-1.5948,-1.5337,-1.4965,-1.4682,-1.4357,-1.5444,-1.6678,-1.8066,-1.957,-2.1152,-2.2891,-2.3613,-2.4102,-2.4414,-2.4679,-2.5179,-2.5918,-2.5929,-2.613,-2.6531,-2.6846,-2.6865,-2.6531,-2.6846,-2.6481,-2.5618,-2.6718,-2.573,-2.3562,-2.4651,-2.4436,-2.3574,-2.2866,-2.2598,-2.2357,-2.0969,-2.0264,-2.0042,-2.0352,-2.0312,-2.0215,-2.0215,-2.0,-1.9824,-2.0254,-2.0254,-2.0156,-2.0469,-2.0664,-2.082,-2.1152,-2.1328,-2.1523,-2.1953,-2.2051,-2.2168,-2.2598,-2.3338,-2.4176,-2.5063,-2.6736,-2.8141,-2.888,-3.1501,-3.3397,-3.3397,-3.4947,-3.5981,-3.5579,-3.5755,-3.6142,-3.6641,-3.8596,-4.0723,-4.2867,-4.444,-4.5962,-4.7193,-4.7538,-4.8157,-4.9215,-5.048,-5.1974,-5.3737,-5.5512,-5.6733,-5.7535,-5.9135,-5.946,-5.8598,-5.9178,-5.9704,-6.0086,-6.0519,-6.1379,-6.2515,-6.2867,-6.355,-6.4407,-6.4514,-6.4211,-6.3932,-6.4765,-6.3631,-6.1613,0.0,0.0,0.0,0.0,0.0,0.0,0.0,0.0,0.0,-1.4744,-1.5101,-1.5103,-1.4518,-1.4809,-1.4841,-1.4174,-1.4902,-1.6328,-1.8407,-1.9434,-2.0703,-2.2461,-2.373,-2.4414,-2.4414,-2.4239,-2.4868,-2.6367,-2.5293,-2.5053,-2.5414,-2.655,-2.6465,-2.5521,-2.655,-2.7012,-2.6929,-2.7461,-2.6532,-2.4873,-2.6359,-2.5541,-2.352,-2.3286,-2.291,-2.2461,-2.2031,-2.0975,-1.9885,-1.9941,-1.9668,-1.9336,-1.9336,-1.9316,-1.9394,-1.9805,-2.0215,-2.0547,-2.0644,-2.0879,-2.1211,-2.123,-2.1562,-2.1973,-2.2402,-2.25,-2.2617,-2.3027,-2.3125,-2.3379,-2.4238,-2.6441,-2.8341,-2.9216,-3.2376,-3.4635,-3.4635,-3.5111,-3.5554,-3.5554,-3.5077,-3.5404,-3.7148,-3.9951,-4.2984,-4.5977,-4.6804,-4.7279,-4.7309,-4.821,-4.9215,-5.032,-5.203,-5.3844,-5.5686,-5.7205,-5.8387,-5.9228,-6.0777,-6.1113,-6.0335,-6.0335,-5.9896,-5.9245,-6.0843,-6.1604,-6.177,-6.301,-6.3892,-6.437,-6.4332,-6.4085,-6.3915,-6.4782,-6.3976,-6.2336,0.0,0.0,0.0,0.0,0.0,0.0,0.0,0.0,0.0,0.0,0.0,0.0,0.0,0.0,0.0,0.0,-1.5078,-1.6094,-1.7695,-1.8375,-1.9353,-2.0782,-2.1266,-2.1643,-2.2002,-2.2149,-2.2615,-2.3397,-2.3255,-2.3844,-2.5158,-2.4508,-2.5195,-2.6883,-2.6293,-2.6721,-2.7851,-2.7715,-2.7195,-2.6218,-2.6187,-2.5334,-2.4013,-2.3086,-2.2109,-2.1133,0.0,-1.9883,-1.9414,-1.8848,-1.8555,-1.8437,-1.8437,-1.8437,-1.8714,-2.0053,-2.0727,-2.1155,-2.1822,-2.187,-2.1797,-2.2363,-2.2617,-2.291,-2.3613,-2.4067,-2.4497,-2.4553,-2.5273,-2.6177,-2.7245,-2.8374,-2.9706,-3.1003,-3.2896,-3.4173,-3.4173,-3.5278,-3.568,-3.4575,-3.5532,-3.6717,-3.7776,-3.955,-4.1674,-4.4297,-4.5806,-4.7141,-4.8263,-4.8594,-4.9804,-5.2062,-5.3252,-5.4975,-5.724,-5.8825,-5.9775,-6.0043,-6.0594,-6.0938,-6.1207,-6.1173,-6.1077,-6.0855,-6.2515,-6.3092,-6.2999,-6.3973,-6.4587,-6.4871,-6.5084,-6.4855,-6.4438,-6.431,-6.38,-6.3053,0.0,0.0,0.0,0.0,0.0,0.0,0.0,0.0,0.0,0.0,0.0,0.0,0.0,0.0,0.0,0.0,0.0,-1.5657,-1.6253,-1.7006,-1.7739,-1.8612,-1.8956,-1.9339,-1.9575,-1.951,-2.003,-2.0903,-2.1328,-2.2013,-2.2792,-2.3169,-2.3843,-2.4837,-2.4506,-2.4963,-2.6057,-2.6077,-2.5786,-2.5194,-2.4908,-2.4199,-2.3164,-2.2012,-2.0977,0.0,-1.9141,-1.8828,-1.875,-1.8203,-1.8008,-1.8047,-1.8184,-1.8437,-1.897,-2.0317,-2.0968,-2.141,-2.2169,-2.2249,-2.2285,-2.2969,-2.3262,-2.3574,-2.4258,-2.4966,-2.5413,-2.5413,-2.6086,-2.693,-2.7766,-2.8667,-2.9603,-3.0811,-3.2287,-3.3445,-3.3847,-3.4826,-3.5228,-3.4575,-3.5863,-3.7304,-3.8394,-3.9592,-4.1369,-4.4033,-4.5873,-4.7424,-4.8697,-4.9504,-5.0839,-5.2942,-5.4464,-5.6291,-5.8421,-6.0103,-6.0988,-6.1265,-6.1265,-6.1379,-6.1604,-6.1882,-6.2047,-6.2129,-6.3656,-6.4217,-6.4078,-6.4991,-6.5313,-6.5188,-6.5047,-6.4754,-6.4334,-6.3624,-6.2952,-6.2279,0.0,0.0,0.0,0.0,0.0,0.0,0.0,0.0,0.0,0.0,0.0,0.0,0.0,0.0,0.0,0.0,0.0,0.0,-1.4309,-1.5331,-1.5945,-1.6037,-1.6818,-1.7242,-1.7242,-1.6711,-1.7217,-1.8922,-1.9636,-1.9604,-1.8829,-2.2034,-2.2178,-1.9903,-2.1325,-2.2063,-2.2146,-2.2947,-2.2735,-2.208,-2.2763,-2.2305,-2.1094,-2.0215,-1.9629,-1.918,-1.832,-1.8027,-1.8047,-1.8047,-1.8066,-1.8144,-1.8574,-1.9277,-2.0039,-2.0546,-2.0937,-2.1406,-2.1918,-2.233,-2.2695,-2.3144,-2.3624,-2.4016,-2.4447,-2.5056,-2.5588,-2.5567,-2.5626,-2.5891,-2.6304,-2.7371,-2.8283,-2.8797,-3.0744,-3.2641,-3.3746,-3.3972,-3.4399,-3.547,-3.6171,-3.7322,-3.8946,-4.0256,-4.2268,-4.5102,-4.6804,-4.8066,-4.886,-5.0855,-5.2284,-5.3082,-5.5654,-5.7786,-5.9359,-6.087,-6.2023,-6.2805,-6.2805,-6.2376,-6.1715,-6.2537,-6.2887,-6.2947,-6.4398,-6.4942,-6.4924,-6.5947,-6.6026,-6.5346,-6.4293,-6.3852,-6.3747,-6.2856,-6.1617,-6.0273,0.0,0.0,0.0,0.0,0.0,0.0,0.0,0.0,0.0,0.0,0.0,0.0,0.0,0.0,0.0,0.0,0.0,0.0,-1.3335,-1.3667,-1.3878,-1.3924,-1.4153,-1.4324,-1.4324,-1.4307,-1.4545,-1.5029,-1.5504,-1.6155,-1.7155,-1.7679,-1.8938,-2.0724,-2.0832,-2.1644,-2.2828,-2.2701,-2.2418,-2.1901,-2.1729,-2.1328,-2.0644,-1.9785,-1.9375,-1.918,-1.832,-1.8203,-1.8477,-1.8477,-1.8691,-1.9043,-1.9453,-1.9961,-2.0623,-2.1818,-2.213,-2.2434,-2.3612,-2.3734,-2.3652,-2.4394,-2.5037,-2.5612,-2.6064,-2.702,-2.7842,-2.7392,-2.7387,-2.748,-2.7627,-2.7901,-2.8572,-2.996,-3.1697,-3.3093,-3.3796,-3.4951,-3.5872,-3.6181,-3.745,-3.9059,-4.0884,-4.2783,-4.4443,-4.5903,-4.6732,-4.7965,-4.9867,-5.1717,-5.344,-5.4992,-5.7404,-5.9117,-6.0114,-6.1697,-6.2567,-6.2805,-6.2805,-6.2705,-6.2552,-6.3987,-6.4204,-6.3511,-6.5691,-6.6045,-6.5072,-6.5993,-6.617,-6.5832,-6.5045,-6.4695,-6.4372,-6.3085,-6.1965,-6.0929,0.0,0.0,0.0,0.0,0.0,0.0,0.0,0.0,0.0,0.0,0.0,0.0,0.0,0.0,0.0,0.0,0.0,0.0,0.0,-1.2303,-1.235,-1.203,-1.2052,-1.2051,-1.2051,-1.2211,-1.2358,-1.2478,-1.3432,-1.4188,-1.4634,-1.5792,-1.7103,-1.8498,-1.8752,-1.9449,-2.0407,-2.054,-2.031,0.0,0.0,-1.9824,-1.9394,-1.8906,-1.873,-1.8691,-1.8398,-1.8672,-1.9219,-1.9414,-1.9648,-1.9883,-2.0117,-2.0762,-2.1666,-2.2655,-2.2944,-2.3251,-2.4263,-2.4743,-2.5017,-2.5704,-2.6347,-2.695,-2.7119,-2.7838,-2.8231,-2.7631,-2.7651,-2.7745,-2.7745,-2.7946,-2.8499,-2.9679,-3.126,-3.2692,-3.3746,-3.5327,-3.6703,-3.75,-3.9133,-4.0969,-4.3031,-4.4491,-4.5959,-4.7534,-4.8275,-4.9138,-5.0333,-5.254,-5.4455,-5.62,-5.8227,-5.9977,-6.1436,-6.2324,-6.2805,-6.2805,-6.2805,-6.2805,-6.2842,-6.4021,-6.4614,-6.4793,-6.6237,-6.6597,-6.6205,-6.6544,-6.6479,-6.6112,-6.492,-6.4404,-6.4151,-6.2491,-6.131,-6.0437,0.0,0.0,0.0,0.0,0.0,0.0,0.0,0.0,0.0,0.0,0.0,0.0,0.0,0.0,0.0,0.0,0.0,0.0,0.0,0.0,-1.1344,-1.0618,-1.0618,-1.0618,-1.0618,-1.0618,-1.0688,-1.0942,-1.2511,-1.2895,-1.2271,-1.5138,-1.6012,-1.5196,-1.6492,-1.702,-1.7083,-1.7793,-1.7854,-1.7604,-1.8266,-1.834,-1.8008,0.0,-1.8047,-1.8164,-1.8633,-1.9277,-1.998,-2.0488,-2.0664,-2.0684,-2.0859,-2.168,-2.2695,-2.3184,-2.3594,-2.3965,-2.4559,-2.5553,-2.6451,-2.6964,-2.7545,-2.7978,-2.7738,-2.781,-2.783,-2.7382,-2.7385,-2.7455,-2.7519,-2.7957,-2.8445,-2.9076,-3.0486,-3.2089,-3.3771,-3.5486,-3.7254,-3.9028,-4.0826,-4.2855,-4.5131,-4.6082,-4.7391,-4.9341,-5.0576,-5.1119,-5.0723,-5.3318,-5.5519,-5.7329,-5.8835,-6.0603,-6.2755,-6.2805,-6.2805,-6.2805,-6.2805,-6.2805,-6.2805,-6.3474,-6.4569,-6.6051,-6.6289,-6.6809,-6.7483,-6.711,-6.6705,-6.6237,-6.445,-6.3862,-6.3765,-6.1867,-6.0495,-5.954,0.0,0.0,0.0,0.0,0.0,0.0,0.0,0.0,0.0,0.0,-1.4023,-1.4259,0.0,0.0,0.0,0.0,0.0,0.0,0.0,0.0,0.0,-1.0631,-1.0618,-1.0618,-1.0618,-1.0618,-1.0645,-1.0698,-1.0985,-1.1247,-1.1583,-1.3781,-1.4944,-1.5235,-1.7026,-1.7788,-1.7788,-1.7942,-1.8004,-1.7946,-1.8076,-1.8066,-1.8008,-1.8008,0.0,0.0,-1.9414,-1.9785,-2.0039,-2.084,-2.1113,-2.1309,-2.2383,-2.2852,-2.3184,-2.3965,-2.4258,-2.4579,-2.6105,-2.6576,-2.7056,-2.8028,-2.8505,-2.848,-2.7976,-2.7975,-2.8124,-2.8209,-2.8274,-2.8354,-2.8671,-2.8944,-2.9536,-3.0507,-3.1439,-3.2667,-3.4349,-3.6056,-3.7838,-3.9502,-4.2045,-4.4409,-4.6436,-4.8669,-5.0123,-5.0217,-5.1971,-5.2901,-5.2598,-5.4443,-5.6815,-5.9726,-6.0711,-6.1716,-6.2805,-6.2805,-6.2805,-6.2805,-6.2805,-6.2805,-6.2842,-6.4067,-6.4973,-6.5726,-6.6163,-6.6659,-6.7126,-6.641,-6.6205,-6.6275,-6.5081,-6.4714,-6.4663,-6.2752,-6.1402,-6.0368,0.0,0.0,0.0,0.0,0.0,0.0,0.0,-1.2806,-1.2954,-1.3228,-1.3339,-1.3361,-1.3165,-1.2367,-1.1655,0.0,0.0,0.0,0.0,0.0,0.0,-1.0618,-1.0618,-1.0618,-1.0618,-1.0618,-1.0698,-1.0782,0.0,-1.1272,-1.2241,-1.3811,-1.4951,-1.5704,-1.7328,-1.8008,-1.8008,-1.8008,-1.8008,-1.8008,-1.8008,-1.8008,-1.8027,-1.8262,0.0,0.0,-1.9766,-2.0059,-2.0352,-2.1016,-2.123,-2.1426,-2.248,-2.3125,-2.3683,-2.5017,-2.5564,-2.6105,-2.7742,-2.8407,-2.8835,-2.9389,-2.9463,-2.9193,-2.8553,-2.8324,-2.8291,-2.8103,-2.8438,-2.8817,-2.8994,-2.9329,-2.9996,-3.111,-3.216,-3.3541,-3.5653,-3.7446,-3.9536,-4.2249,-4.4047,-4.6207,-4.9213,-5.0373,-5.1201,-5.196,-5.3308,-5.3746,-5.3016,-5.5928,-5.8612,-6.0961,-6.177,-6.2376,-6.2805,-6.2805,-6.2805,-6.2805,-6.3282,-6.3628,-6.3928,-6.5223,-6.6141,-6.666,-6.6674,-6.6853,-6.7051,-6.632,-6.6167,-6.6314,-6.5205,-6.4909,-6.4859,-6.2897,-6.1554,-6.0521,0.0,0.0,0.0,0.0,0.0,0.0,0.0,-1.2745,-1.2923,-1.3044,-1.2668,-1.2342,-1.2065,-1.1823,-1.1353,0.0,0.0,0.0,0.0,0.0,0.0,0.0,-1.0618,-1.0618,-1.0618,0.0,0.0,-1.1311,-1.1311,0.0,0.0,0.0,0.0,0.0,-1.7426,-1.8008,-1.8008,-1.8008,-1.8008,0.0,0.0,-1.8066,-1.8203,0.0,0.0,0.0,0.0,-2.0273,-2.0625,-2.1074,-2.1311,-2.1669,-2.2443,-2.3122,-2.3979,-2.5633,-2.6445,-2.7338,-2.9149,-3.0043,-3.0414,-3.0577,-3.0212,-2.968,-2.9125,-2.8782,-2.8463,-2.8276,-2.8812,-2.9317,-2.9504,-2.982,-3.0498,-3.1721,-3.255,-3.3971,-3.6546,-3.8695,-4.1125,-4.4107,-4.5897,-4.8137,-5.1152,-5.1442,-5.2063,-5.3382,-5.45,-5.4769,-5.4133,-5.7701,-6.0353,-6.1568,-6.2376,-6.2805,-6.2805,-6.2805,-6.2805,-6.2805,-6.3686,-6.4365,-6.4905,-6.6206,-6.7125,-6.7572,-6.7236,-6.709,-6.7051,-6.6359,-6.6227,-6.6299,-6.5412,-6.5221,-6.5166,-6.332,-6.1936,-6.0748,0.0,0.0,0.0,0.0,0.0,0.0,0.0,-1.1526,-1.1615,-1.2454,-1.1941,-1.1478,-1.1451,-1.1262,-1.0978,0.0,0.0,0.0,0.0,0.0,0.0,0.0,0.0,0.0,0.0,0.0,0.0,-1.2288,-1.2288,0.0,0.0,0.0,0.0,0.0,0.0,-1.8008,-1.8008,-1.8008,0.0,0.0,0.0,0.0,0.0,0.0,0.0,0.0,0.0,-2.0527,-2.0625,-2.1074,-2.1829,-2.2658,-2.3078,-2.322,-2.3457,-2.5001,-2.6193,-2.7436,-2.97,-3.0399,-3.0601,-3.115,-3.0528,-2.9732,-2.9438,-2.8891,-2.8772,-2.9831,-3.0147,-3.0389,-3.1161,-3.1093,-3.134,-3.2597,-3.264,-3.3441,-3.5833,-3.9073,-4.143,-4.2192,-4.7088,-5.0336,-5.0047,-5.1999,-5.3349,-5.3518,-5.5475,-5.6936,-5.7527,-5.9976,-6.144,-6.1604,-6.2376,-6.2805,-6.2805,-6.2805,-6.2805,-6.2805,-6.3686,-6.4365,-6.4905,-6.6206,-6.7125,-6.7572,-6.7236,-6.709,-6.7051,-6.6359,-6.6242,-6.6374,-6.6075,-6.6117,-6.6153,-6.482,-6.3274,-6.1651,0.0,0.0,0.0,0.0,0.0,0.0,-1.1375,-1.1361,-1.1551,-1.204,-1.19,-1.1757,-1.1931,-1.153,-1.1062,-1.0658,0.0,0.0,0.0,0.0,0.0,0.0,0.0,0.0,0.0,0.0,-1.1152,-1.1773,-1.2579,0.0,0.0,0.0,0.0,0.0,0.0,-1.8008,-1.8008,-1.8008,0.0,0.0,0.0,0.0,0.0,0.0,0.0,0.0,0.0,0.0,-2.0741,-2.1444,-2.1948,-2.2408,-2.321,-2.3573,-2.4164,-2.6333,-2.7583,-2.8609,-3.0895,-3.1269,-3.1058,-3.1354,-3.0777,-2.9995,-2.9521,-2.9794,-3.0143,-3.0262,-3.0718,-3.1102,-3.1424,-3.1747,-3.2434,-3.3758,-3.4242,-3.5332,-3.7926,-3.9524,-4.1633,-4.4999,-4.7456,-4.9723,-5.1832,-5.291,-5.4024,-5.5441,-5.7289,-5.8886,-6.0072,-6.1049,-6.1824,-6.2324,-6.2618,-6.2805,-6.2805,-6.3319,-6.3739,-6.4095,-6.5382,-6.6493,-6.7316,-6.7804,-6.8002,-6.8024,-6.7384,-6.6821,-6.6359,-6.6282,-6.634,-6.6396,-6.632,-6.6329,-6.6269,-6.5051,-6.3465,-6.1655,0.0,0.0,0.0,0.0,0.0,-1.1042,-1.0813,-1.0995,-1.1333,-1.1814,-1.1797,-1.1877,-1.2265,-1.1703,-1.1169,-1.0848,-1.0725,0.0,0.0,0.0,0.0,0.0,0.0,0.0,0.0,0.0,-1.1395,-1.2294,-1.3233,-1.453,0.0,0.0,-1.7354,-1.8008,0.0,0.0,0.0,0.0,0.0,0.0,0.0,0.0,0.0,0.0,0.0,0.0,0.0,0.0,0.0,0.0,0.0,-2.301,-2.3745,-2.4361,-2.5187,-2.6937,-2.7989,-2.9066,-3.0934,-3.1336,-3.116,-3.116,-3.0778,-3.0262,-2.9864,-3.0526,-3.1112,-3.1043,-3.1422,-3.191,-3.2104,-3.2571,-3.3365,-3.4798,-3.5379,-3.6606,-3.917,-4.0087,-4.1967,-4.5861,-4.7173,-4.9022,-5.2524,-5.3871,-5.5381,-5.7474,-5.8852,-6.0358,-6.1896,-6.1969,-6.2219,-6.2755,-6.2805,-6.2805,-6.2805,-6.3812,-6.4409,-6.4569,-6.6387,-6.771,-6.8526,-6.8548,-6.8476,-6.8359,-6.7475,-6.6628,-6.5936,-6.6269,-6.6379,-6.6407,-6.6388,-6.6415,-6.6244,-6.4872,-6.3337,-6.158,0.0,0.0,0.0,0.0,0.0,0.0,-1.0159,-1.0114,-1.0541,-1.1717,-1.161,-1.165,-1.2238,-1.1516,-1.1116,-1.1396,-1.0889,0.0,0.0,0.0,0.0,0.0,0.0,0.0,0.0,0.0,-1.2043,-1.4279,-1.458,-1.5839,-1.794,-1.8008,-1.8008,-1.8008,0.0,0.0,0.0,0.0,0.0,0.0,0.0,0.0,-1.9961,0.0,0.0,0.0,0.0,0.0,0.0,0.0,0.0,0.0,0.0,-2.5652,-2.6427,-2.5925,-2.6947,-2.8347,-2.9468,-3.0206,-3.0633,-3.0633,-3.0419,-3.0236,-3.0528,-3.0853,-3.1387,-3.2394,-3.2602,-3.2788,-3.3443,-3.3598,-3.4046,-3.5454,-3.571,-3.6446,-3.8531,-4.0782,-4.2525,-4.3257,-4.6039,-4.8779,-5.1107,-5.4653,-5.7519,-5.915,-6.0034,-6.1187,-6.2718,-6.2805,-6.2805,-6.2805,-6.2805,-6.2805,-6.2805,-6.4179,-6.445,-6.3668,-6.6127,-6.7409,-6.7616,-6.7884,-6.8136,-6.8359,-6.7475,-6.6628,-6.5936,-6.6269,-6.6379,-6.6407,-6.6388,-6.6415,-6.6179,-6.4517,-6.3047,-6.1618,0.0,0.0,0.0,0.0,0.0,0.0,0.0,-0.9993,-1.0394,-1.1169,-1.1182,-1.1356,-1.1944,-1.1583,-1.1329,-1.1423,-1.0902,0.0,0.0,0.0,0.0,0.0,0.0,0.0,0.0,-1.1793,-1.2714,-1.3645,-1.5239,-1.633,-1.7028,-1.7735,-1.8008,-1.8008,-1.8008,-1.8008,0.0,0.0,0.0,0.0,0.0,-1.9805,-1.9961,0.0,0.0,0.0,0.0,0.0,0.0,0.0,0.0,0.0,0.0,0.0,0.0,-2.6293,-2.7162,-2.8225,-2.9025,-2.9327,-2.9606,-3.016,-3.0512,-3.0665,-3.0918,-3.1833,-3.2722,-3.2616,-3.2949,-3.3339,-3.3547,-3.3971,-3.4758,-3.6247,-3.6901,-3.7785,-3.9448,-4.1662,-4.3699,-4.5426,-4.9652,-5.2914,-5.4183,-5.6399,-5.8143,-5.9239,-6.0492,-6.1725,-6.2768,-6.2805,-6.2805,-6.2805,-6.2805,-6.2805,-6.2805,-6.4365,-6.5422,-6.5908,-6.7785,-6.883,-6.904,-6.851,-6.7985,-6.7475,-6.6628,-6.5782,-6.5051,-6.5359,-6.5159,-6.4683,-6.5295,-6.5174,-6.4641,-6.4679,-6.3199,-6.0867,0.0,0.0,0.0,0.0,0.0,0.0,0.0,-0.9673,-1.0033,-1.0742,-1.0728,-1.0969,-1.1784,-1.141,-1.1236,-1.1557,-1.1062,0.0,0.0,0.0,0.0,0.0,0.0,0.0,-1.0982,-1.2284,-1.3263,-1.4073,-1.5912,-1.704,-1.739,-1.812,-1.832,-1.8027,-1.834,-1.8398,0.0,0.0,0.0,0.0,-1.9629,-2.0019,-2.0272,0.0,0.0,0.0,0.0,0.0,0.0,0.0,0.0,0.0,0.0,0.0,0.0,0.0,-2.7221,-2.8068,-2.8605,-2.8937,-2.931,-3.0122,-3.0637,-3.0974,-3.1088,-3.2198,-3.3122,-3.3011,-3.3495,-3.4021,-3.4301,-3.4919,-3.5804,-3.7003,-3.7849,-3.8933,-4.0656,-4.2624,-4.4893,-4.7681,-5.1882,-5.4884,-5.5669,-5.767,-5.9314,-6.0077,-6.1359,-6.2291,-6.2768,-6.2805,-6.2805,-6.2805,-6.2805,-6.3099,-6.3759,-6.4672,-6.5608,-6.6579,-6.81,-6.8754,-6.8578,-6.8272,-6.764,-6.6786,-6.6154,-6.5397,0.0,-6.4974,-6.4579,-6.3904,-6.4743,-6.4575,-6.3847,-6.4222,-6.2804,-6.0454,0.0,0.0,0.0,0.0,0.0,0.0,0.0,-0.919,-0.9552,-1.0421,-1.0287,-1.0541,-1.165,-1.1155,-1.1073,-1.1884,0.0,0.0,0.0,0.0,0.0,0.0,0.0,0.0,-1.1206,-1.2417,-1.385,-1.5417,-1.6705,-1.771,-1.855,-1.9029,-1.8848,-1.8086,-1.8887,-1.9023,-1.8601,-1.9102,-1.9297,-1.9375,-1.9785,-2.0195,0.0,0.0,0.0,0.0,0.0,0.0,0.0,0.0,0.0,0.0,0.0,0.0,0.0,0.0,0.0,0.0,0.0,-2.8966,-2.9528,-3.0418,-3.0833,-3.1133,-3.1195,-3.2013,0.0,-3.3547,-3.417,-3.483,-3.5487,-3.6265,-3.7055,-3.7801,-3.8546,-3.9773,-4.1903,-4.3742,-4.6253,-4.987,-5.2978,-5.5039,-5.5835,-5.8665,-6.075,-6.152,-6.2365,-6.2805,-6.2805,-6.2805,-6.2842,-6.2915,-6.2842,-6.3576,-6.5118,-6.4948,-6.5233,-6.6015,-6.733,-6.7577,-6.6822,-6.7303,-6.7082,-6.6275,-6.6008,-6.5397,-6.4551,-6.4883,-6.4503,-6.378,-6.4587,-6.442,-6.363,-6.3251,-6.2104,-6.0342,0.0,0.0,0.0,0.0,0.0,0.0,0.0,0.0,0.0,0.0,-1.0167,-1.0314,-1.0873,-1.1803,-1.2343,0.0,0.0,0.0,0.0,0.0,0.0,0.0,0.0,0.0,-1.336,-1.436,-1.5103,-1.5568,-1.7422,-1.8146,-1.7935,-1.8854,-1.9004,-1.8496,-1.8691,-1.873,-1.8601,-1.9102,-1.9473,-1.9805,-2.0234,-2.0469,0.0,0.0,0.0,0.0,-2.4036,-2.4779,0.0,0.0,0.0,0.0,0.0,0.0,0.0,0.0,-2.7537,-2.8026,-2.9485,0.0,-2.9288,-3.0142,-3.0831,-3.1425,0.0,-3.3224,-3.417,-3.4317,-3.4911,-3.5407,-3.5577,-3.6265,-3.7194,-3.8343,-3.8798,-3.9679,-4.1604,-4.5276,-4.8749,-5.1394,-5.4418,-5.6161,-5.5921,-5.8665,-6.075,-6.152,-6.2365,-6.2805,-6.2805,-6.2805,-6.3099,-6.3759,-6.3172,-6.2989,-6.3392,-6.3984,-6.4879,-6.6097,-6.6418,-6.6645,-6.6785,-6.673,-6.6205,-6.5436,-6.574,-6.5128,-6.3858,-6.4012,-6.3573,-6.2848,-6.3015,-6.2926,-6.2708,-6.2989,-6.2068,-6.0454,0.0,0.0,0.0,0.0,0.0,0.0,0.0,0.0,0.0,0.0,0.0,0.0,0.0,0.0,0.0,0.0,0.0,0.0,0.0,0.0,0.0,0.0,-1.3151,-1.3586,-1.438,-1.4863,-1.5618,-1.6633,-1.7752,-1.8413,-1.8733,-1.9541,-1.9434,-1.8652,-1.8848,-1.8926,-1.8984,-1.9609,-1.9883,-1.9941,-2.0391,0.0,0.0,0.0,0.0,0.0,-2.5134,-2.5676,0.0,-2.6302,-2.6533,-2.6602,0.0,0.0,0.0,0.0,-2.8556,-2.9129,-3.0025,-2.9936,-2.9875,-3.1072,-3.1618,-3.2124,-3.2864,-3.382,-3.4592,-3.4592,-3.534,-3.6,-3.6141,-3.7202,-3.8278,-3.9093,-3.9846,-4.1276,-4.4036,-4.715,-5.0283,-5.3372,-5.5542,-5.7088,-5.7911,-5.9798,-6.1263,-6.2108,-6.2548,-6.2805,-6.2805,-6.2805,-6.3025,-6.3503,-6.3062,-6.3172,-6.3943,-6.3649,-6.4254,-6.5705,-6.5626,-6.5671,-6.5857,-6.6246,-6.5709,-6.452,-6.5049,-6.4397,-6.2921,-6.3127,-6.2704,-6.1971,-6.2352,-6.247,-6.2452,-6.2914,-6.2258,-6.098,0.0,0.0,0.0,0.0,0.0,0.0,0.0,0.0,0.0,0.0,0.0,0.0,0.0,0.0,0.0,0.0,0.0,0.0,0.0,0.0,0.0,-1.4662,-1.4045,-1.403,-1.4782,-1.4866,-1.5826,-1.7768,-1.8044,-1.8733,-1.9696,-2.0352,-1.998,-1.875,-1.9121,-1.9297,-1.9336,-2.0137,-2.0293,-2.0039,-2.041,0.0,0.0,0.0,0.0,0.0,0.0,0.0,0.0,-2.6533,-2.6602,-2.6782,-2.7471,0.0,0.0,0.0,0.0,0.0,-3.045,-3.0628,-3.1102,-3.245,-3.2889,-3.3212,-3.3809,-3.4529,-3.5081,-3.5044,-3.5936,-3.6843,-3.7182,-3.8529,-3.9658,-4.0027,-4.1527,-4.4007,-4.7756,-4.9591,-5.1777,-5.4993,-5.6507,-5.7932,-5.9736,-6.0921,-6.1924,-6.2768,-6.2805,-6.2805,-6.2805,-6.2805,-6.2805,-6.2805,-6.2805,-6.3503,-6.4897,-6.3539,-6.3649,-6.5301,-6.4827,-6.4613,-6.4733,-6.5689,-6.5232,-6.3708,-6.4331,-6.3666,-6.2136,-6.2405,-6.2094,-6.1524,-6.208,-6.2444,-6.2644,-6.2838,-6.2483,-6.1543,0.0,0.0,0.0,0.0,0.0,0.0,0.0,0.0,0.0,0.0,0.0,0.0,0.0,0.0,0.0,0.0,0.0,0.0,0.0,0.0,0.0,-1.6222,-1.4698,-1.4311,-1.5346,-1.5601,-1.6189,-1.7134,-1.8788,-1.9222,-1.861,-2.027,-2.043,-1.9199,-1.9258,-1.9297,-1.9316,-1.9805,-2.0195,-2.0469,-2.0527,0.0,0.0,0.0,0.0,0.0,0.0,0.0,0.0,-2.6533,-2.6985,-2.7537,-2.767,0.0,0.0,0.0,0.0,0.0,-3.1161,-3.2216,-3.3239,-3.3463,-3.4356,-3.5266,-3.5366,-3.6437,-3.7313,-3.7188,-3.7793,-3.8494,-3.9054,-3.9476,-4.0079,-4.1088,-4.4416,-4.7999,-5.119,-5.3515,-5.472,-5.4396,-5.7339,-5.8947,-5.7715,-6.0029,-6.1924,-6.2768,-6.2805,-6.2805,-6.2805,-6.2805,-6.2805,-6.2805,-6.2805,-6.2915,-6.3209,-6.2952,-6.3649,-6.5301,-6.3823,-6.3505,-6.4217,-6.4544,-6.4141,-6.327,-6.4183,-6.3705,-6.2281,-6.2429,-6.2352,-6.2089,-6.1651,-6.218,-6.3066,-6.2307,-6.1956,-6.1618,0.0,0.0,0.0,0.0,0.0,0.0,0.0,0.0,0.0,0.0,0.0,0.0,0.0,0.0,0.0,0.0,0.0,0.0,0.0,-1.5257,-1.5257,-1.6645,-1.5325,-1.5291,-1.6788,-1.6707,-1.7241,-1.8582,-1.9183,-1.9788,-2.024,-2.0661,-2.043,-1.9629,-1.9629,-1.9629,-1.9648,-2.0078,-2.0391,-2.0566,0.0,0.0,0.0,0.0,0.0,0.0,0.0,0.0,0.0,0.0,-2.743,-2.7868,-2.8812,0.0,0.0,0.0,0.0,0.0,-3.1879,-3.3122,-3.4428,-3.5209,-3.5831,-3.6423,-3.6835,-3.7644,-3.8287,-3.8218,-3.8942,-3.97,-4.0121,-4.1276,-4.2923,-4.5444,-4.7903,-5.0289,-5.2623,-5.3836,-5.498,-5.622,-5.8353,-5.9769,-5.9964,-6.1606,-6.2714,-6.2768,-6.2805,-6.2805,-6.2805,-6.2805,-6.2805,-6.2805,-6.2805,-6.3025,-6.3503,-6.3062,-6.3209,-6.3943,-6.3172,-6.3186,-6.3817,-6.3756,-6.3347,-6.2829,-6.3127,-6.2589,-6.1512,-6.1743,-6.1746,-6.1559,-6.1366,-6.1742,-6.2328,-6.1693,-6.0518,-5.9213,0.0,0.0,0.0,0.0,0.0,0.0,0.0,0.0,0.0,0.0,0.0,0.0,0.0,0.0,0.0,0.0,0.0,0.0,0.0,-1.5443,-1.5274,-1.6715,-1.6034,-1.6369,-1.7801,-1.7565,-1.8193,-1.9922,-1.9731,-2.0415,-2.1719,-2.0937,-2.0332,-1.9922,-2.0019,-2.0,-1.9941,-2.0391,-2.0566,-2.0644,0.0,0.0,0.0,0.0,0.0,0.0,0.0,0.0,0.0,0.0,0.0,0.0,0.0,0.0,0.0,-3.1509,-3.1739,-3.194,-3.2843,-3.4101,-3.5493,-3.6781,-3.7235,-3.7486,-3.8187,-3.8803,-3.9251,-3.9343,-4.0178,-4.096,-4.1268,-4.3204,-4.5776,-4.9144,-5.0932,-5.2589,-5.4534,-5.5019,-5.6101,-5.8716,-5.9605,-6.0642,-6.2263,-6.3015,-6.3187,-6.2598,-6.2511,-6.2511,-6.2511,-6.2511,-6.2622,-6.2805,-6.2805,-6.3135,-6.3796,-6.3135,-6.2915,-6.3099,-6.2915,-6.3014,-6.3416,-6.3195,-6.2851,-6.2389,-6.2183,-6.1627,-6.0858,-6.1189,-6.1205,-6.1091,-6.1259,-6.1322,-6.1326,-6.1012,-5.9237,-5.7091,0.0,0.0,0.0,0.0,0.0,0.0,0.0,0.0,0.0,0.0,0.0,-1.2258,0.0,0.0,0.0,0.0,0.0,0.0,0.0,-1.461,-1.512,-1.6558,-1.6937,-1.7207,-1.744,-1.7679,-1.8546,-1.9922,-2.0683,-2.1131,-2.1269,-2.0781,-2.0332,-1.9941,-2.0332,-2.0293,-1.9941,-2.0391,-2.0566,-2.0644,-2.1507,0.0,0.0,0.0,0.0,0.0,0.0,0.0,0.0,0.0,0.0,0.0,0.0,0.0,-3.1567,-3.2327,-3.2547,-3.2835,-3.4186,-3.5597,-3.6832,-3.7675,-3.8371,-3.8967,-3.956,-4.0216,-4.0822,-4.1199,-4.1933,-4.2701,-4.3176,-4.5008,-4.7211,-4.9589,-5.2722,-5.5874,-5.8649,-5.9773,-6.0495,-6.1086,-6.1444,-6.1845,-6.2375,-6.2687,-6.2524,-6.1741,-6.1704,-6.1704,-6.1704,-6.1704,-6.2034,-6.2805,-6.2805,-6.2842,-6.2915,-6.2842,-6.3209,-6.398,-6.3209,-6.2805,-6.2867,-6.3035,-6.2672,-6.1878,-6.2011,-6.1666,-6.0973,-6.1228,-6.1291,-6.1275,-6.1289,-6.1058,-6.0601,-6.0222,-5.8725,-5.7021,0.0,0.0,0.0,0.0,0.0,0.0,0.0,0.0,0.0,0.0,0.0,-1.2642,-1.2948,-1.3009,-1.3241,0.0,0.0,0.0,-1.5396,-1.5281,-1.5824,-1.7404,-1.7593,-1.7986,-1.859,-1.9259,-1.9985,-2.0742,-2.1602,-2.1894,-2.1641,-2.1191,-2.0742,-2.0332,-2.0488,-2.0469,-2.0332,-2.0488,-2.0566,-2.0722,-2.1583,-2.2616,0.0,0.0,0.0,0.0,0.0,0.0,0.0,0.0,-2.8748,-2.9254,-3.0598,-3.1278,-3.1625,-3.2382,-3.2936,-3.3584,-3.4923,-3.6383,-3.7783,-3.8865,-3.9645,-4.0225,-4.0458,-4.1297,-4.2073,-4.2183,-4.314,-4.4235,-4.5197,-4.7229,-4.9576,-5.2058,-5.5059,-5.7858,-5.9988,-6.0589,-6.1233,-6.2452,-6.2429,-6.2621,-6.3537,-6.3003,-6.2503,-6.2377,-6.141,-6.13,-6.2291,-6.1851,-6.1961,-6.2768,-6.2805,-6.2805,-6.2805,-6.2805,-6.2732,-6.2548,-6.2732,-6.2548,-6.2083,-6.2245,-6.1843,-6.1049,-6.1207,-6.1127,-6.0904,-6.1194,-6.1214,-6.1049,-6.0479,-6.0076,-5.97,-5.8534,-5.7289,-5.6175,0.0,0.0,0.0,0.0,0.0,0.0,0.0,0.0,-1.2212,0.0,0.0,0.0,0.0,-1.2826,-1.3312,0.0,0.0,0.0,-1.5974,-1.5946,-1.643,-1.7773,-1.8066,-1.8477,-1.9062,-2.0059,-2.0723,-2.1016,-2.1758,-2.1894,-2.1465,-2.1172,-2.0859,-2.0566,-2.0566,-2.0566,-2.0566,-2.0566,-2.0566,-2.0722,-2.1583,-2.2616,0.0,0.0,0.0,0.0,0.0,0.0,0.0,0.0,-2.9002,-2.9317,-3.0955,-3.1482,-3.1742,-3.2905,-3.3607,-3.4428,-3.6239,-3.7486,-3.8623,-3.9859,-4.0676,-4.1331,-4.1902,-4.2548,-4.317,-4.3433,-4.4267,-4.5419,-4.7168,-4.905,-5.1205,-5.3862,-5.6774,-5.9165,-6.0589,-6.0781,-6.1435,-6.3089,-6.2891,-6.3079,-6.4293,-6.3185,-6.2331,-6.2083,-6.0786,-6.0493,-6.163,-6.1153,-6.1337,-6.2401,-6.2181,-6.2181,-6.2438,-6.2438,-6.2034,-6.1227,-6.2034,-6.1998,-6.1238,-6.1646,-6.1391,-6.0597,-6.0748,-6.0819,-6.0904,-6.1191,-6.1237,-6.1015,-6.0065,-5.9559,-5.9174,-5.7543,-5.6367,-5.5671,0.0,0.0,0.0,0.0,0.0,0.0,-1.1049,-1.0787,-1.0618,-1.0618,-1.1296,0.0,0.0,0.0,0.0,0.0,-1.4213,0.0,-1.6016,-1.6484,-1.6934,-1.7363,-1.8184,-1.8562,-1.8562,-1.9883,-2.0566,-2.0586,-2.1016,-2.1016,-2.0566,-2.0566,-2.0566,-2.0566,-2.0566,-2.0566,-2.0566,-2.0566,-2.0566,-2.0722,-2.1583,-2.2616,-2.3599,0.0,0.0,0.0,0.0,0.0,0.0,0.0,-2.9002,-2.9317,-3.0984,-3.1482,-3.1917,-3.4089,-3.4707,-3.5344,-3.8187,-3.9005,-3.9336,-4.0607,-4.134,-4.2287,-4.4016,-4.4126,-4.4196,-4.5138,-4.5326,-4.6225,-4.9108,-5.0364,-5.1878,-5.474,-5.7618,-5.9819,-6.0666,-6.0781,-6.1435,-6.3089,-6.2891,-6.3079,-6.4293,-6.3147,-6.1849,-6.0504,-5.9648,-5.9208,-5.9208,-5.9208,-5.9942,-6.152,-6.0823,-6.0786,-6.1557,-6.1594,-6.119,-6.0419,-6.119,-6.1153,-6.043,-6.1384,-6.1353,-6.0597,-6.0748,-6.0858,-6.1012,-6.1228,-6.1295,-6.1214,-6.0275,-5.9726,-5.9174,-5.7543,-5.6367,-5.5671,0.0,0.0,0.0,0.0,0.0,0.0,-1.065,-1.069,-1.0807,-1.1344,-1.164,0.0,0.0,0.0,0.0,0.0,0.0,-1.498,-1.4796,-1.5999,-1.6797,-1.6914,-1.7734,-1.8203,-1.8203,-1.8867,-1.9961,-2.1504,-2.1328,-2.1172,-2.1035,-2.0703,-2.0566,-2.0566,-2.0566,-2.0566,-2.0566,-2.0566,-2.0566,-2.0722,-2.1583,-2.2616,-2.3599,0.0,0.0,0.0,0.0,0.0,0.0,0.0,0.0,0.0,-3.1693,-3.2576,-3.3352,-3.4927,-3.6173,-3.7275,-3.8639,-3.9651,-4.0504,-4.1349,-4.1979,-4.2915,-4.4646,-4.4294,-4.4268,-4.661,-4.7909,-4.9034,-5.0223,-5.2082,-5.3819,-5.5021,-5.7618,-5.9819,-6.0666,-6.0781,-6.1204,-6.232,-6.2547,-6.2851,-6.3426,-6.2323,-6.1478,-6.1238,-5.9465,-5.8841,-5.9979,-5.9538,-5.9685,-6.0713,-6.0529,-6.0529,-6.075,-6.075,-6.0346,-5.9575,-6.0382,-6.0346,-5.9622,-6.0524,-6.0523,-5.9764,-6.048,-6.0858,-6.1012,-6.1343,-6.1412,-6.1214,-6.0275,-5.9726,-5.9138,-5.6862,-5.6248,-5.6164,0.0,0.0,0.0,0.0,0.0,0.0,-1.0551,-1.0856,-1.1219,-1.1764,-1.2074,-1.2626,0.0,0.0,0.0,-1.4213,-1.5093,-1.5486,-1.499,-1.6235,-1.6992,-1.6992,-1.7637,-1.8086,-1.8262,-1.8516,-1.9453,-2.1113,-2.084,-2.0703,-2.0703,-2.0605,-2.0566,-2.0566,-2.0566,-2.0566,-2.0566,-2.0566,-2.0566,-2.0722,-2.1583,-2.2616,-2.3599,0.0,0.0,0.0,0.0,0.0,0.0,0.0,0.0,0.0,-3.1812,-3.3023,-3.4285,-3.5418,-3.682,-3.8195,-3.9194,-4.0138,-4.1024,-4.1682,-4.2476,-4.365,-4.5366,-4.5947,-4.681,-4.9227,-5.0187,-5.1166,-5.2946,-5.4101,-5.524,-5.6688,-5.8649,-6.0204,-6.0742,-6.0781,-6.1127,-6.1973,-6.2126,-6.2306,-6.2842,-6.158,-6.0784,-6.0905,-5.9127,-5.8437,-5.9391,-5.8988,-5.9098,-5.9905,-5.9612,-5.9612,-5.9942,-5.9942,-5.9538,-5.8731,-5.9538,-5.9501,-5.8777,-6.0037,-6.0146,-5.9458,-6.0468,-6.0955,-6.1137,-6.1361,-6.1381,-6.1214,-6.0197,-5.9621,-5.9101,-5.6624,-5.6219,-5.642,0.0,0.0,-0.9379,-0.9673,0.0,-1.0268,-1.0577,-1.1281,-1.1826,-1.1826,-1.2443,-1.2948,0.0,0.0,0.0,-1.4148,-1.534,-1.6074,-1.6052,-1.6914,-1.7383,-1.7383,-1.7812,-1.8223,-1.8574,-1.8652,-1.9062,-1.9805,-1.9883,-1.9941,-1.998,-2.0391,-2.0566,-2.0566,-2.0566,-2.0566,-2.0566,-2.0566,-2.0644,-2.0799,-2.1721,-2.2734,-2.3745,-2.4683,0.0,0.0,0.0,0.0,0.0,0.0,0.0,0.0,-3.1663,-3.323,-3.5055,-3.587,-3.7057,-3.8465,-3.9733,-4.0528,-4.1115,-4.1647,-4.3032,-4.4637,-4.628,-4.8586,-5.0794,-5.2221,-5.2169,-5.2939,-5.6374,-5.6213,-5.6447,-5.9042,-6.0242,-6.0781,-6.0781,-6.0781,-6.1089,-6.1897,-6.1682,-6.1696,-6.2368,-6.0979,-6.0024,-5.9859,-5.8718,-5.7997,-5.7997,-5.7997,-5.8327,-5.9098,-5.84,-5.8364,-5.9098,-5.9098,-5.8731,-5.7997,-5.8767,-5.8731,-5.8042,-5.9738,-6.0141,-5.9559,-6.0609,-6.1138,-6.1312,-6.1323,-6.129,-6.1112,-6.0026,-5.9478,-5.8953,-5.6572,-5.6197,-5.644,0.0,0.0,-0.9686,-0.9967,0.0,0.0,-1.064,-1.1281,-1.1826,-1.1826,-1.195,-1.232,-1.2948,-1.3734,0.0,-1.378,-1.5185,-1.5946,-1.5623,-1.6747,-1.7383,-1.7383,-1.8105,-1.8398,-1.8144,-1.8809,-1.9062,-1.8906,-1.959,-2.0098,-2.043,-2.0527,-2.0566,-2.0566,-2.0566,-2.0566,-2.0566,-2.0566,-2.1011,-2.1776,-2.2436,-2.3488,-2.4754,-2.5372,-2.5993,0.0,0.0,0.0,0.0,0.0,0.0,0.0,-3.3628,-3.5086,-3.6606,-3.7818,-3.8897,-3.9699,-4.002,-4.0861,-4.1639,-4.1768,-4.4126,-4.6682,-4.7692,-5.0291,-5.2384,-5.1773,-5.3866,-5.6044,-5.6857,-5.7851,-5.8788,-5.9396,-6.0242,-6.0781,-6.0781,-6.0781,-6.0858,-6.105,-6.1579,-6.1704,-6.1073,-6.0712,-6.0226,-5.9403,-5.8483,-5.7997,-5.7997,-5.7997,-5.807,-5.8253,-5.8107,-5.807,-5.8253,-5.8253,-5.818,-5.7997,-5.818,-5.818,-5.8042,-5.9177,-5.9944,-6.0546,-6.1003,-6.1254,-6.1305,-6.1393,-6.1174,-6.0662,-5.9888,-5.8937,-5.7773,-5.6277,-5.6199,-5.6284,0.0,0.0,0.0,0.0,0.0,0.0,0.0,0.0,-1.1646,-1.1811,-1.2135,-1.2504,-1.2948,-1.3734,0.0,0.0,-1.5551,-1.6374,-1.6392,-1.7224,-1.7695,-1.7695,-1.8301,-1.8535,-1.832,-1.8945,-1.9277,-1.9238,-1.9687,-2.0039,-2.0254,-2.0469,-2.0566,-2.0566,-2.0566,-2.0566,-2.0566,-2.0566,-2.1145,-2.2059,-2.2897,-2.3897,-2.5111,-2.5873,-2.6247,-2.6577,-2.7404,0.0,0.0,0.0,0.0,0.0,0.0,0.0,-3.7916,-3.836,-3.9239,-4.0087,-4.0087,-4.0955,-4.2008,-4.2969,-4.5156,-4.7332,-4.8098,-5.0846,-5.3007,-5.2379,-5.4463,-5.6626,-5.7473,-5.8357,-5.9204,-5.9973,-6.0512,-6.0781,-6.0781,-6.0781,-6.0781,-6.0781,-6.0813,-6.0781,-6.0722,-5.9888,-5.9387,-5.9305,-5.8497,-5.7997,-5.7997,-5.7997,-5.7997,-5.7997,-5.7997,-5.7997,-5.7997,-5.7997,-5.7997,-5.7997,-5.7997,-5.8238,-5.8713,-5.9176,-5.9954,-6.0896,-6.1189,-6.1345,-6.1384,-6.1409,-6.1094,-6.0554,-5.9775,-5.8713,-5.7444,-5.617,-5.5872,-5.5656,0.0,0.0,0.0,0.0,0.0,0.0,0.0,0.0,0.0,-1.1549,-1.2151,-1.2642,-1.2765,-1.3545,-1.4344,0.0,0.0,0.0,-1.7461,-1.7812,-1.8047,-1.8105,-1.8516,-1.875,-1.875,-1.9258,-1.9648,-1.9922,-1.998,-2.0059,-2.0156,-2.043,-2.0566,-2.0566,-2.0566,-2.0566,-2.0566,-2.0566,-2.1221,-2.2339,-2.3246,-2.4273,-2.537,-2.6263,-2.6609,-2.6714,-2.8233,-2.8876,-2.9254,-3.0894,0.0,0.0,0.0,0.0,-3.8863,-3.846,-3.9175,-4.0138,-4.0204,-4.1059,-4.2405,-4.4308,-4.5954,-4.7332,-4.818,-5.0756,-5.301,-5.3164,-5.4664,-5.6357,-5.7819,-5.8204,-5.8742,-6.0127,-6.0473,-6.0589,-6.0589,-6.0704,-6.0781,-6.0781,-6.0036,-5.9792,-6.0482,-5.9065,-5.8418,-5.9102,-5.8461,-5.7997,-5.7997,-5.7997,-5.7997,-5.7997,-5.7997,-5.7997,-5.7997,-5.7997,-5.7997,-5.7997,-5.7997,-5.8503,-5.9389,-5.943,-6.0038,-6.1035,-6.1203,-6.1395,-6.1477,-6.136,-6.098,-6.0402,-5.9688,-5.853,-5.7158,-5.624,-5.5536,-5.4778,0.0,0.0,0.0,0.0,0.0,0.0,0.0,0.0,0.0,0.0,-1.087,-1.117,-1.1888,-1.2962,-1.4173,-1.5341,-1.656,-1.748,-1.7891,0.0,0.0,-1.8465,-1.8965,-1.9199,-1.9199,-1.998,-2.0234,-1.9922,-2.0293,-2.0684,-2.1055,-2.0723,-2.0566,-2.0566,-2.0566,-2.0566,-2.0566,-2.0566,-2.168,-2.3327,-2.3974,-2.5011,-2.6377,-2.6992,-2.6866,-2.6577,-2.7537,-2.8363,-2.9212,-3.0721,-3.2766,0.0,0.0,0.0,-3.9016,-3.9613,-3.9935,-4.0204,-4.0672,-4.1682,-4.2991,-4.4683,-4.6127,-4.7413,-4.8504,-5.0473,-5.2279,-5.3049,-5.5126,-5.6896,-5.7126,-5.778,-5.8357,-5.8588,-5.9204,-5.9665,-5.9665,-6.0319,-6.0781,-6.0781,-6.0338,-5.9885,-5.9592,-5.899,-5.8503,-5.8194,-5.8051,-5.7997,-5.7997,-5.7997,-5.7997,-5.7997,-5.7997,-5.7997,-5.7997,-5.7997,-5.7997,-5.7997,-5.7997,-5.8503,-5.9389,-5.9515,-6.0075,-6.102,-6.1236,-6.138,-6.1477,-6.136,-6.0787,-5.9952,-5.954,-5.7956,-5.6039,-5.656,-5.5671,-5.4096,0.0,0.0,0.0,0.0,0.0,0.0,0.0,0.0,0.0,0.0,0.0,-1.2166,-1.2774,-1.4126,-1.5438,-1.6495,-1.7069,-1.7559,-1.7988,-1.8008,-1.8203,-1.8543,-1.9062,-1.9394,-1.9629,-2.0254,-2.0469,-2.0273,-2.0469,-2.1173,-2.2145,-2.1941,-2.1668,-2.1309,-2.1309,-2.1172,-2.0937,-2.0937,-2.1927,-2.3548,-2.375,-2.4895,-2.6559,-2.6741,-2.6735,-2.6645,-2.7999,-2.8903,-2.9812,-3.1413,-3.3663,-3.6014,-3.6638,0.0,0.0,0.0,-4.0319,-4.0767,-4.1682,-4.2302,-4.2956,-4.4002,-4.519,-4.6393,-4.7579,-4.9425,-5.1344,-5.2854,-5.4472,-5.5895,-5.6819,-5.7319,-5.7742,-5.8204,-5.8588,-5.8973,-5.9435,-5.9819,-6.0172,-6.0379,-5.9977,-5.9474,-5.8782,-5.8455,-5.8104,-5.7746,-5.7884,-5.7997,-5.7997,-5.7997,-5.7997,-5.7997,-5.7997,-5.7997,-5.7997,-5.7997,-5.7997,-5.7997,-5.8282,-5.8753,-5.9389,-5.9798,-6.0433,-6.1189,-6.1331,-6.1461,-6.1506,-6.1373,-6.0685,-5.9665,-5.9028,-5.7528,-5.561,-5.5,-5.402,-5.2953,0.0,0.0,0.0,0.0,0.0,0.0,0.0,0.0,0.0,0.0,0.0,-1.2992,-1.3504,0.0,0.0,0.0,-1.713,-1.7456,-1.7988,-1.8105,-1.8359,-1.8789,-1.9219,-1.9648,-2.0078,-2.0391,-2.0566,-2.0566,-2.0857,-2.168,-2.3076,-2.331,-2.3313,-2.3083,-2.2859,-2.2493,-2.1987,-2.1987,-2.2709,-2.3891,-2.3891,-2.4921,-2.6533,-2.6533,-2.654,-2.6917,-2.8417,-2.9389,-3.0238,-3.2102,-3.4434,-3.6621,-3.695,-3.8426,0.0,0.0,0.0,-4.1516,-4.2458,-4.277,-4.2995,-4.3529,-4.448,-4.5567,-4.6533,-4.8315,-5.0259,-5.1951,-5.3311,-5.4528,-5.5654,-5.6313,-5.6857,-5.755,-5.7819,-5.8143,-5.8649,-5.8894,-5.9077,-5.9291,-5.9076,-5.8573,-5.7818,-5.7909,-5.781,-5.7353,-5.7752,-5.7997,-5.7997,-5.7997,-5.7997,-5.7997,-5.7997,-5.7997,-5.7997,-5.7997,-5.8088,-5.815,-5.8508,-5.9028,-5.9597,-6.0107,-6.0704,-6.1291,-6.1426,-6.1477,-6.1482,-6.1175,-6.0457,-5.9513,-5.8483,-5.7255,-5.5835,-5.4247,-5.3188,-5.249,0.0,0.0,0.0,0.0,0.0,0.0,0.0,0.0,0.0,0.0,0.0,-1.2708,-1.3347,-1.4214,-1.512,-1.5896,-1.6392,-1.7042,-1.794,-1.8379,-1.8789,-1.9238,-1.9648,0.0,-2.0527,-2.0547,-2.0566,-2.0566,-2.1527,-2.2499,-2.3461,-2.4412,-2.5395,-2.6184,-2.543,-2.4735,-2.4167,-2.4167,-2.442,-2.4921,-2.4921,-2.5581,-2.6533,-2.6533,-2.6861,-2.7449,-2.8579,-2.9325,-3.0192,-3.2632,-3.4527,-3.6075,-3.7342,-3.8854,-4.0204,0.0,0.0,0.0,-4.2693,-4.3069,-4.3529,-4.3881,-4.4631,-4.5417,-4.579,-4.7479,-4.911,-4.9662,-5.1658,-5.3157,-5.2905,-5.445,-5.578,-5.5818,-5.6511,-5.696,-5.6625,-5.7221,-5.7577,-5.7181,-5.7415,-5.7262,-5.648,-5.7402,-5.7666,-5.6904,-5.7556,-5.7997,-5.7997,-5.7997,-5.7997,-5.7997,-5.7997,-5.7997,-5.7997,-5.7997,-5.8194,-5.8673,-5.8713,-5.9176,-6.0074,-6.0454,-6.0839,-6.1316,-6.1295,-6.137,-6.1435,-6.0676,-6.0047,-5.9475,-5.8134,-5.7333,-5.6694,-5.5551,-5.4411,-5.335,0.0,0.0,0.0,0.0,0.0,0.0,0.0,0.0,0.0,0.0,0.0,0.0,0.0,-1.3993,-1.5052,-1.6255,-1.7055,-1.7647,-1.8008,-1.8144,-1.8555,-1.9258,-1.9434,-1.9844,-2.0547,-2.0566,-2.0566,-2.0566,-2.1527,-2.2658,-2.4051,-2.5364,-2.6765,-2.7945,-2.5864,-2.4836,-2.4735,-2.3937,-2.4189,-2.5016,-2.5016,-2.5581,-2.6559,-2.6841,-2.7118,-2.7506,-2.8792,-3.0011,-3.1344,-3.3279,-3.5334,-3.7231,-3.8196,-3.9209,-4.0204,-4.0733,-4.1473,-4.2221,-4.2616,-4.3105,-4.3532,-4.3664,-4.3915,-4.4378,-4.5268,-4.6646,-4.8098,-4.9325,-5.085,-5.204,-5.2199,-5.4115,-5.5511,-5.5011,-5.5393,-5.5913,-5.6317,-5.6358,-5.6431,-5.6553,-5.6668,-5.6286,-5.5221,-5.6367,-5.6895,-5.6088,-5.7262,-5.7997,-5.7997,-5.7997,-5.7997,-5.7997,-5.7546,-5.7302,-5.7302,-5.7774,-5.8238,-5.8713,-5.9028,-5.9537,-6.0251,-6.079,-6.1138,-6.1303,-6.1299,-6.133,-6.132,-6.059,-5.9685,-5.8641,-5.7334,-5.6241,-5.5209,-5.3451,-5.2741,-5.2435,0.0,0.0,0.0,-1.0618,0.0,-1.0618,-1.0618,-1.0618,-1.0721,-1.1058,0.0,0.0,0.0,0.0,-1.5238,-1.6471,-1.7423,-1.8008,-1.8008,-1.8281,-1.8691,-1.9258,-1.957,-1.998,-2.0547,-2.0566,-2.0566,-2.0566,-2.1886,-2.3101,-2.434,-2.6036,-2.7484,-2.8525,-2.6554,-2.5914,-2.6263,-2.5542,-2.5523,-2.6045,-2.6045,-2.6426,-2.7042,-2.7419,-2.7885,-2.8395,-2.9118,-3.0454,-3.1888,-3.2947,-3.4753,-3.6766,-3.7712,-3.911,-4.0466,-4.078,-4.1473,-4.2221,-4.2577,-4.3105,-4.3497,-4.3497,-4.3497,-4.371,-4.449,-4.5604,-4.6844,-4.8115,-4.9711,-5.0951,-5.113,-5.32,-5.46,-5.3805,-5.4231,-5.476,-5.5102,-5.5088,-5.513,-5.5243,-5.572,-5.5595,-5.4516,-5.6088,-5.6859,-5.6051,-5.7226,-5.7904,-5.7631,-5.7631,-5.7498,-5.7266,-5.6773,-5.6616,-5.6912,-5.7521,-5.8215,-5.8951,-5.9389,-5.9969,-6.0561,-6.1065,-6.1304,-6.1288,-6.1312,-6.1176,-6.0904,-6.0289,-5.9212,-5.7925,-5.6681,-5.5482,-5.4251,-5.2378,-5.19,-5.1821,-1.0618,-1.0618,-1.0618,-1.0618,-1.0631,-1.0631,-1.0618,-1.0631,-1.098,-1.202,0.0,0.0,0.0,0.0,0.0,-1.6489,-1.7423,-1.8008,-1.8027,-1.8809,-1.9277,-1.9297,-2.0098,-2.0547,-2.0566,-2.0566,-2.0644,-2.0644,-2.2563,-2.375,-2.4371,-2.636,-2.757,-2.8024,-2.7545,-2.794,-2.89,-2.885,-2.8525,-2.8072,-2.8097,-2.8097,-2.8097,-2.8122,-2.9036,-3.0296,-2.9645,-3.0341,-3.1598,-3.1668,-3.2844,-3.451,-3.6044,-3.8537,-4.0874,-4.0874,-4.1725,-4.2655,0.0,0.0,0.0,-4.3497,-4.3497,-4.3497,-4.3497,-4.442,-4.5425,-4.5808,-4.8093,-4.9898,-4.9495,-5.1433,-5.2832,-5.2029,-5.2959,-5.35,-5.2709,-5.3274,-5.3643,-5.323,-5.4583,-5.5244,-5.4473,-5.6565,-5.7629,-5.6859,-5.7556,-5.7679,-5.6964,-5.6912,-5.6563,-5.578,-5.578,-5.6114,-5.6912,-5.7375,-5.8243,-5.9389,-5.9885,-6.0414,-6.0997,-6.1205,-6.1283,-6.1285,-6.1264,-6.0878,-6.0203,-5.9605,-5.8686,-5.7454,-5.617,-5.5069,-5.402,-5.2721,-5.2155,-5.1621,-1.0618,-1.0618,-1.0618,-1.0618,-1.0728,-1.0795,-1.0658,-1.0742,-1.1032,0.0,0.0,0.0,-1.2191,-1.4041,-1.5579,-1.6489,-1.7423,-1.8144,-1.8437,-1.8691,-1.9102,-1.9707,-1.9961,-2.0234,-2.0566,-2.0566,-2.0934,-2.1583,-2.2861,-2.3959,-2.4847,-2.65,-2.7369,-2.7519,-2.7779,-2.8027,-2.8274,-2.787,-2.7655,-2.7544,-2.7946,-2.8097,-2.8147,-2.8549,-2.8949,-2.9325,-2.9579,-3.0407,-3.1487,-3.2792,-3.4345,-3.6195,-3.8417,-3.9647,-4.0319,-4.0319,-4.115,-4.2021,-4.2021,0.0,0.0,0.0,0.0,0.0,-4.3497,-4.442,-4.5244,-4.5072,-4.6806,-4.8241,-4.7821,-4.9258,-5.027,-4.9447,-5.1598,-5.3208,-5.2673,-5.3047,-5.3318,-5.3188,-5.4106,-5.462,-5.4436,-5.6051,-5.7042,-5.6822,-5.7556,-5.7904,-5.7726,-5.7679,-5.7351,-5.6616,-5.7116,-5.7216,-5.6912,-5.7913,-5.8721,-5.9389,-5.9982,-6.0561,-6.1212,-6.1257,-6.1104,-6.0782,-6.0649,-6.0031,-5.9103,-5.8764,-5.7888,-5.6631,-5.5389,-5.4251,-5.3155,-5.2552,-5.2104,-5.1444,-1.0618,-1.0618,-1.0658,-1.0715,-1.0875,-1.0982,-1.0929,-1.1062,-1.1223,0.0,0.0,0.0,-1.314,-1.4757,-1.614,-1.7079,-1.7801,-1.8379,-1.8543,-1.8965,-1.9394,-1.9883,-2.0078,-2.0312,-2.0566,-2.1011,-2.1451,-2.2038,-2.3452,-2.442,-2.5016,-2.6346,-2.6942,-2.6967,-2.7519,-2.7645,-2.7494,-2.7777,-2.8001,-2.8021,-2.8574,-2.88,-2.885,-2.9176,-2.9505,-2.9881,-2.9807,-3.062,-3.1874,-3.251,-3.4383,-3.6685,-3.8547,-3.9558,-4.0087,-4.0087,-4.0908,-4.181,-4.181,-4.2657,-4.3497,-4.3497,0.0,0.0,-4.3497,-4.4029,-4.4572,-4.4706,-4.6012,-4.721,-4.7346,-4.8552,-4.9295,-4.8676,-5.0701,-5.2255,-5.1899,-5.2622,-5.3225,-5.3225,-5.4216,-5.4913,-5.4913,-5.6345,-5.7299,-5.7299,-5.774,-5.7904,-5.7583,-5.7216,-5.684,-5.6421,-5.6825,-5.7094,-5.717,-5.8067,-5.8953,-5.9782,-6.0341,-6.0827,-6.1305,-6.1299,-6.1013,-6.0468,-6.0349,-5.9508,-5.819,-5.7707,-5.6988,-5.5973,-5.4522,-5.3278,-5.2215,-5.1787,-5.1055,-4.9968,0.0,-1.0618,-1.0648,-1.0942,-1.1022,-1.1129,-1.1383,-1.145,-1.157,0.0,-1.2033,-1.2856,-1.498,-1.607,-1.701,-1.7998,-1.8418,-1.8601,-1.8769,-1.9492,-1.9941,-1.998,-2.0352,-2.0566,-2.0566,-2.1527,-2.2017,-2.2188,-2.4036,-2.5087,-2.5229,-2.6094,-2.6533,-2.6559,-2.6967,-2.6917,-2.6634,-2.8172,-2.8825,-2.89,-2.9528,-2.9804,-2.9804,-2.9804,-3.0343,-3.097,-3.0062,-3.0846,-3.2191,-3.1656,-3.3675,-3.6627,-3.7584,-3.8887,-3.9952,-4.0087,-4.0861,-4.1725,-4.1768,-4.2619,-4.3428,-4.3497,-4.3497,0.0,-4.3497,-4.3497,-4.3681,-4.4415,-4.5497,-4.6536,-4.7248,-4.8421,-4.9145,-4.8766,-5.0184,-5.1158,-5.0845,-5.2197,-5.3225,-5.3225,-5.4546,-5.55,-5.5574,-5.6969,-5.7886,-5.7997,-5.7997,-5.7726,-5.7065,-5.6367,-5.5948,-5.5948,-5.6023,-5.6593,-5.772,-5.8215,-5.9138,-6.0304,-6.0815,-6.1128,-6.1289,-6.1238,-6.0875,-6.021,-6.014,-5.9103,-5.7491,-5.6631,-5.6063,-5.5402,-5.3707,-5.2428,-5.1407,-5.0838,-4.9704,-4.8305,-1.0618,-1.0618,-1.0648,-1.0942,-1.1182,-1.1356,-1.1423,-1.1623,-1.1797,-1.1864,-1.2784,-1.3807,-1.5084,-1.607,-1.7121,-1.8337,-1.8523,-1.8926,-1.9609,-1.9824,-2.0078,-2.043,-2.0527,-2.0566,-2.0566,-2.1527,-2.2414,-2.3231,-2.442,-2.5441,-2.6233,-2.6396,-2.6533,-2.6533,-2.6634,-2.6634,-2.6609,-2.7745,-2.8273,-2.8348,-2.9377,-2.9804,-2.9804,-2.9804,-2.9934,-3.0062,-2.9856,-3.0011,-3.062,-3.2624,-3.4735,-3.6812,-3.8213,-3.8908,-3.9262,-3.9901,-4.0528,-4.1161,-4.1682,-4.2342,-4.2995,-4.3391,-4.3497,0.0,-4.3497,-4.3497,-4.3534,-4.3681,-4.4412,-4.5107,-4.5254,-4.6776,-4.7947,-4.7536,-4.9638,-5.1158,-5.0845,-5.2197,-5.3225,-5.3225,-5.4069,-5.4876,-5.5537,-5.6455,-5.7299,-5.796,-5.7997,-5.795,-5.7774,-5.7642,-5.7546,-5.7546,-5.7949,-5.8227,-5.8475,-5.9434,-6.0064,-6.0304,-6.1045,-6.1361,-6.1288,-6.0925,-6.0349,-5.9703,-5.9215,-5.8258,-5.6993,-5.6152,-5.5424,-5.4668,-5.3478,-5.2617,-5.1963,-5.0445,-4.9764,-4.9338,-1.0618,-1.0739,-1.0862,-1.1156,-1.145,-1.169,-1.1837,-1.1984,-1.2091,-1.2091,-1.2998,-1.3882,-1.4386,-1.5296,-1.6439,-1.7797,-1.8112,-1.8708,-1.9788,-2.0117,-2.0332,-2.0547,-2.0566,-2.0779,-2.1298,-2.2264,-2.3209,-2.4253,-2.53,-2.6025,-2.6533,-2.6533,-2.6233,-2.5791,-2.6302,-2.6382,-2.6233,-2.7528,-2.8273,-2.8599,-2.9453,-2.9804,-2.9804,-2.9804,-2.9804,-2.9804,-2.9804,-3.0062,-3.0846,-3.3101,-3.5091,-3.675,-3.7987,-3.8887,-3.961,-3.9952,-4.0514,-4.1024,-4.1639,-4.2262,-4.2732,-4.3032,-4.3286,0.0,0.0,-4.3286,-4.3497,-4.3497,-4.4158,-4.4637,-4.4344,-4.5772,-4.6797,-4.6277,-4.8648,-5.0378,-4.9856,-5.1784,-5.3225,-5.3225,-5.3922,-5.473,-5.55,-5.6345,-5.7152,-5.7923,-5.7997,-5.7997,-5.7997,-5.7997,-5.7997,-5.7997,-5.8461,-5.8796,-5.9065,-5.9895,-6.0474,-6.0783,-6.1221,-6.1229,-6.0927,-6.0609,-5.9958,-5.9134,-5.8429,-5.747,-5.6259,-5.5495,-5.462,-5.3617,-5.2589,-5.2061,-5.1778,-4.9731,-4.8902,-4.863,-1.0618,-1.0835,-1.1156,-1.1383,-1.1677,-1.1971,-1.2265,-1.2305,-1.2305,-1.2305,-1.3141,-1.3769,-1.3769,-1.476,-1.5808,-1.7005,-1.7471,-1.8282,-1.9621,-2.0043,-2.0411,-2.0566,-2.0566,-2.0934,-2.1735,-2.2914,-2.3891,-2.4707,-2.5931,-2.6533,-2.6533,-2.6533,-2.6094,-2.53,-2.6054,-2.6254,-2.6166,-2.7434,-2.8276,-2.8976,-2.9553,-2.9804,-2.9804,-2.9804,-2.9804,-2.9804,-2.9804,-3.0419,-3.1462,-3.3157,-3.483,-3.6353,-3.7467,-3.8778,-3.9901,-4.0054,-4.0417,-4.0874,-4.1508,-4.1979,-4.2382,-4.2498,-4.2846,-4.3069,0.0,0.0,0.0,-4.3178,-4.3689,-4.4014,-4.3592,-4.4767,-4.5609,-4.4955,-4.7374,-4.9123,-4.8458,-5.0767,-5.2623,-5.2769,-5.3756,-5.4649,-5.5367,-5.6237,-5.7161,-5.796,-5.7904,-5.7867,-5.8142,-5.8142,-5.8186,-5.8282,-5.8716,-5.9177,-5.9568,-6.019,-6.075,-6.1295,-6.1328,-6.1056,-6.0545,-6.0281,-5.9547,-5.8433,-5.7757,-5.6819,-5.5648,-5.4807,-5.3889,-5.2921,-5.1913,-5.1517,-5.1175,-4.8923,-4.7948,-4.7457,-1.0618,-1.0995,-1.1383,-1.1423,-1.1677,-1.1971,-1.2265,-1.2305,-1.2305,-1.2305,-1.3414,-1.4111,-1.4111,-1.5182,-1.6185,-1.6702,-1.6846,-1.7501,-1.9025,-1.9177,-1.9608,-2.0566,-2.0566,-2.0644,-2.0799,-2.2563,-2.3599,-2.3672,-2.5581,-2.6533,-2.6533,-2.6533,-2.6465,-2.6327,-2.5924,-2.6239,-2.7105,-2.7279,-2.7992,-2.8976,-2.9553,-2.9804,-2.9804,-2.9804,-2.9804,-2.9804,-2.9804,-3.0419,-3.1389,-3.2379,-3.3897,-3.5637,-3.7291,-3.8358,-3.9209,-3.9901,-4.0154,-4.0319,-4.0874,-4.1024,-4.1206,-4.1768,-4.1937,-4.1979,-4.1937,0.0,-4.2021,-4.2021,0.0,-4.2121,-4.2079,0.0,0.0,-4.3377,-4.5914,-4.7654,-4.6897,-4.8839,-5.0596,-5.1272,-5.3152,-5.4473,-5.4689,-5.6002,-5.7193,-5.795,-5.7401,-5.7521,-5.8549,-5.8632,-5.8796,-5.9212,-5.9728,-6.003,-6.0203,-6.0851,-6.122,-6.1287,-6.1408,-6.108,-6.0289,-5.9882,-5.8977,-5.7675,-5.7206,-5.6451,-5.564,-5.4497,-5.3838,-5.3326,-5.2492,-5.1296,-4.9727,-4.8437,-4.7485,-4.6737,-1.0848,-1.1142,-1.1476,-1.165,-1.1931,-1.2158,-1.2278,-1.2305,-1.2358,-1.2532,-1.3044,-1.3411,-1.3607,-1.4044,-1.4781,-1.581,-1.592,-1.6779,-1.8841,-1.9036,-1.9432,-2.0566,-2.0566,-2.1165,-2.2264,-2.3084,-2.4108,-2.5205,-2.6094,-2.6533,-2.6533,-2.6533,-2.6338,-2.6115,-2.6431,-2.6871,-2.7482,-2.8022,-2.8721,-2.9453,-2.9704,-2.9804,-2.9804,-2.9804,-2.9804,-2.9804,-2.9804,-3.0062,-3.057,-3.1462,-3.2933,-3.464,-3.5889,-3.7168,-3.8414,-3.9209,-3.9368,-3.9629,-4.0638,-4.092,-4.0932,-4.1206,-4.1516,-4.1831,-4.1971,-4.222,-4.2546,-4.3006,0.0,0.0,0.0,0.0,0.0,0.0,-4.542,-4.6863,-4.6116,-4.7994,-4.9614,-5.0394,-5.1679,-5.3026,-5.4471,-5.5974,-5.7328,-5.8332,-5.773,-5.7839,-5.9028,-5.9102,-5.9176,-5.9389,-5.9944,-6.0251,-6.0304,-6.0954,-6.1296,-6.1289,-6.0944,-6.0479,-5.9882,-5.9327,-5.8412,-5.7157,-5.6491,-5.5613,-5.4633,-5.3707,-5.3051,-5.2448,-5.2166,-5.0964,-4.9243,-4.8266,-4.7433,-4.6533,-1.1263,-1.1463,-1.1703,-1.185,-1.2104,-1.2305,-1.2305,-1.2371,-1.2505,-1.2795,-1.297,-1.308,-1.3307,-1.34,-1.3844,-1.4851,-1.4961,-1.6025,-1.8381,-1.8559,-1.9116,-2.0566,-2.0566,-2.1375,-2.3062,-2.3379,-2.4325,-2.6094,-2.6371,-2.6533,-2.6533,-2.6533,-2.6367,-2.6215,-2.682,-2.7336,-2.7912,-2.8442,-2.9071,-2.9804,-2.9804,-2.9804,-2.9804,-2.9804,-2.9804,-2.9804,-2.9804,-2.9804,-2.9934,-3.0895,-3.2154,-3.3579,-3.4836,-3.623,-3.7552,-3.8358,-3.858,-3.8854,-4.0034,-4.0363,-4.0446,-4.0865,-4.1325,-4.1719,-4.2078,-4.2458,-4.2894,-4.3406,-4.3511,0.0,0.0,0.0,-4.3591,-4.3186,0.0,-4.561,-4.5151,-4.6946,-4.8592,-4.9363,-5.0646,-5.2254,-5.441,-5.5826,-5.7057,-5.8307,-5.7892,-5.8164,-5.9526,-5.9635,-5.9706,-5.983,-6.0311,-6.0556,-6.058,-6.1073,-6.1196,-6.1002,-6.0503,-5.998,-5.9324,-5.8706,-5.774,-5.6563,-5.5936,-5.5035,-5.3975,-5.3362,-5.2652,-5.2012,-5.1361,-5.0159,-4.878,-4.8347,-4.7378,-4.6342,-1.1784,-1.2078,-1.2184,-1.1917,-1.2104,-1.2305,-1.2305,-1.2545,-1.2808,-1.2822,-1.3253,-1.3614,-1.3627,-1.3895,-1.4068,-1.4153,-1.4153,-1.5061,-1.7172,-1.7334,-1.8301,-2.0489,-2.0566,-2.1088,-2.2038,-2.2988,-2.4036,-2.5087,-2.6025,-2.6533,-2.6533,-2.6533,-2.6766,-2.7222,-2.6697,-2.7403,-2.88,-2.8343,-2.8743,-2.9804,-2.9804,-2.9804,-2.9804,-2.9804,-2.9804,-2.9804,-2.9804,-2.9804,-2.9934,-3.0895,-3.1721,-3.2695,-3.461,-3.5795,-3.6596,-3.7584,-3.7822,-3.7962,-3.8745,-3.8962,-3.9288,-4.0811,-4.1222,-4.1391,-4.2136,-4.2306,-4.2306,-4.2339,-4.2339,-4.2339,-4.2339,-4.2311,-4.2261,-4.2314,-4.2922,0.0,0.0,-4.5456,-4.7115,-4.7894,-5.0582,-5.2939,-5.4414,-5.5284,-5.6277,-5.7537,-5.7593,-5.833,-5.9977,-6.0213,-6.0475,-6.095,-6.1166,-6.1259,-6.1287,-6.1289,-6.0955,-6.0319,-6.0297,-5.976,-5.8713,-5.798,-5.6962,-5.5759,-5.5706,-5.5077,-5.3987,-5.3584,-5.325,-5.2603,-5.0265,-4.878,-4.8061,-4.859,-4.7357,-4.5641,-1.185,-1.2104,-1.2265,-1.2171,-1.2238,-1.2305,-1.2305,-1.2559,-1.297,-1.3293,-1.3694,-1.4082,-1.4469,-1.4603,-1.4669,-1.4669,-1.4482,-1.4949,-1.6431,-1.6974,-1.798,-1.9432,-2.0235,-2.1375,-2.2914,-2.3305,-2.4325,-2.6025,-2.6302,-2.6533,-2.6533,-2.6533,-2.6766,-2.7318,-2.7482,-2.8027,-2.8875,-2.9118,-2.9443,-2.9804,-2.9804,-2.9804,-2.9804,-2.9804,-2.9804,-2.9804,-2.9804,-2.9804,-2.9856,-3.0139,-3.0869,-3.1675,-3.2368,-3.3625,-3.499,-3.5856,-3.6538,-3.7238,-3.8483,-3.8843,-3.9178,-4.0668,-4.1089,-4.1288,-4.2076,-4.2242,-4.2204,-4.2103,-4.2081,-4.2294,-4.2858,-4.249,-4.2435,-4.3642,-4.3956,-4.4251,0.0,-4.6447,-4.7631,-4.7902,-5.0557,-5.2741,-5.3686,-5.4759,-5.5837,-5.7041,-5.7523,-5.8422,-5.9818,-6.061,-6.102,-6.1213,-6.1256,-6.132,-6.1289,-6.085,-6.0541,-6.0304,-5.9581,-5.8796,-5.7973,-5.7911,-5.7047,-5.568,-5.5444,-5.4701,-5.3616,-5.2723,-5.2136,-5.1604,-4.9844,-4.8861,-4.8456,-4.7676,-4.6621,-4.5241,-1.2024,-1.2171,-1.2305,-1.2305,-1.2305,-1.2345,-1.2438,-1.2799,-1.324,-1.3734,-1.4148,-1.4549,-1.4923,-1.4963,-1.4963,-1.4963,-1.479,-1.5228,-1.6615,-1.7363,-1.8323,-1.9752,-2.062,-2.1784,-2.3362,-2.3638,-2.453,-2.6156,-2.6402,-2.6533,-2.6533,-2.6533,-2.6866,-2.7595,-2.7946,-2.8524,-2.9252,-2.9628,-2.9804,-2.9804,-2.9804,-2.9804,-2.9804,-2.9804,-2.9804,-2.9804,-2.9804,-2.9804,-2.9804,-2.9804,-3.0216,-3.0771,-3.1119,-3.2236,-3.3699,-3.4794,-3.5769,-3.6907,-3.8309,-3.8744,-3.9086,-4.0577,-4.0951,-4.1238,-4.2248,-4.2443,-4.261,-4.3103,-4.3202,-4.3392,-4.3924,-4.3581,-4.3421,-4.3959,-4.4462,-4.518,0.0,-4.7327,-4.8105,-4.8612,-5.0393,-5.1928,-5.2748,-5.4041,-5.5377,-5.6699,-5.7742,-5.8783,-5.9804,-6.0793,-6.1279,-6.13,-6.1289,-6.1179,-6.0962,-6.0517,-6.0102,-5.9723,-5.9026,-5.8221,-5.7364,-5.7529,-5.6682,-5.5101,-5.51,-5.4284,-5.285,-5.2417,-5.1546,-5.0412,-4.9194,-4.8451,-4.7975,-4.6986,-4.6052,-4.4768,-1.2305,-1.2305,-1.2305,-1.2318,-1.2318,-1.2398,-1.2782,-1.3253,-1.3761,-1.4068,-1.4616,-1.499,-1.5003,-1.5003,-1.5003,-1.5003,-1.499,-1.5817,-1.7624,-1.8156,-1.921,-2.1028,-2.166,-2.2349,-2.3241,-2.3919,-2.4664,-2.5607,-2.6226,-2.6559,-2.6533,-2.6533,-2.7042,-2.8072,-2.8097,-2.8725,-2.9754,-2.9779,-2.9804,-2.9804,-2.9804,-2.9804,-2.9804,-2.9804,-2.9804,-2.9804,-2.9804,-2.9804,-2.9804,-2.9804,-2.9804,-2.9984,-3.0872,-3.1882,-3.3028,-3.4539,-3.5703,-3.6857,-3.8258,-3.8608,-3.8958,-4.0483,-4.0928,-4.131,-4.2618,-4.2937,-4.3425,-4.4885,-4.5241,-4.5241,-4.5304,-4.5271,-4.4787,-4.3329,-4.4463,-4.6076,-4.7652,-4.7909,-4.8511,-4.9932,-5.0101,-5.0609,-5.1687,-5.3283,-5.4866,-5.6482,-5.8159,-5.9393,-5.9955,-6.0835,-6.1288,-6.1287,-6.1283,-6.0982,-6.0304,-6.0342,-5.976,-5.8635,-5.8669,-5.8068,-5.6829,-5.6908,-5.5869,-5.4087,-5.4792,-5.3809,-5.1945,-5.2564,-5.1421,-4.912,-4.8275,-4.7325,-4.6593,-4.6619,-4.5691,-4.4008,-1.2305,-1.2305,-1.2371,-1.2599,-1.2452,-1.2398,-1.2782,-1.3253,-1.3828,-1.4349,-1.4923,-1.5364,-1.5578,-1.5605,-1.5605,-1.5605,-1.5404,-1.5868,-1.7278,-1.7985,-1.9059,-2.0403,-2.1384,-2.2349,-2.3241,-2.4325,-2.5082,-2.5607,-2.6621,-2.6866,-2.6533,-2.6533,-2.6841,-2.7519,-2.7921,-2.8499,-2.9176,-2.9603,-2.9804,-2.9804,-2.9804,-2.9804,-2.9804,-2.9804,-2.9804,-2.9804,-2.9804,-2.9804,-2.9804,-2.9804,-3.0055,-3.0407,-3.0696,-3.2193,-3.4048,-3.4409,-3.5825,-3.7383,-3.8219,-3.8469,-3.8827,-4.0391,-4.1153,-4.1585,-4.1928,-4.2396,-4.2731,-4.2489,-4.2406,-4.2807,-4.4161,-4.334,-4.2927,-4.4529,-4.5633,-4.6583,-4.7568,-4.8308,-4.9052,-4.9965,-5.0425,-5.103,-5.2023,-5.4054,-5.5612,-5.6106,-5.8311,-5.9735,-5.9986,-6.0822,-6.1301,-6.1286,-6.1157,-6.0834,-6.0304,-6.0425,-5.9628,-5.7892,-5.8665,-5.8035,-5.6029,-5.7108,-5.6611,-5.4783,-5.4727,-5.3914,-5.2595,-5.1911,-5.0639,-4.912,-4.8275,-4.705,-4.5857,-4.6289,-4.4693,-4.2464,-1.2305,-1.2412,-1.2545,-1.2795,-1.2826,-1.2986,-1.328,-1.3614,-1.4041,-1.4629,-1.511,-1.5458,-1.5618,-1.5752,-1.5832,-1.5832,-1.5685,-1.6253,-1.7792,-1.8548,-1.9608,-2.1184,-2.1967,-2.2676,-2.3203,-2.4066,-2.4758,-2.5263,-2.6116,-2.6544,-2.6533,-2.6716,-2.7118,-2.767,-2.8222,-2.8775,-2.9327,-2.9654,-2.9804,-2.9804,-2.9804,-2.9804,0.0,-2.9804,-2.9804,-2.9804,-2.9804,-2.9804,-2.9829,-3.008,-3.0357,-3.0658,-3.0884,-3.2202,-3.3788,-3.4032,-3.5255,-3.6635,-3.7242,-3.8018,-3.8782,-3.9661,-4.0758,-4.1656,-4.1961,-4.2297,-4.2589,-4.2818,-4.2879,-4.3223,-4.4212,-4.3925,-4.4059,-4.5918,-4.5979,-4.6399,-4.8261,-4.8962,-4.9715,-5.0974,-5.1657,-5.2319,-5.3191,-5.4807,-5.5869,-5.5974,-5.8396,-5.975,-5.9453,-6.0549,-6.1186,-6.1174,-6.1358,-6.0954,-5.9923,-6.0742,-6.0028,-5.7777,-5.873,-5.8103,-5.6206,-5.7382,-5.6633,-5.4403,-5.4516,-5.3656,-5.2063,-5.106,-4.989,-4.8517,-4.7298,-4.6472,-4.5779,-4.5576,-4.4017,-4.1993,-1.2358,-1.2599,-1.2889,-1.2929,-1.3333,-1.3814,-1.4148,-1.4202,-1.4402,-1.495,-1.5271,-1.5458,-1.5458,-1.5671,-1.5832,-1.5832,-1.5832,-1.6729,-1.8767,-1.9315,-2.0445,-2.2512,-2.2949,-2.3144,-2.3144,-2.3778,-2.4356,-2.4826,-2.5414,-2.6021,-2.6533,-2.7017,-2.757,-2.8122,-2.8674,-2.9252,-2.9804,-2.9804,-2.9804,-2.9804,-2.9804,-2.9804,-2.9804,-2.988,-2.9905,-2.9905,-2.998,-2.9955,-2.998,-3.0457,-3.0708,-3.0909,-3.1361,-3.2243,-3.3146,-3.3727,-3.4657,-3.5499,-3.6156,-3.7529,-3.8793,-3.888,-4.0099,-4.1501,-4.2222,-4.2354,-4.2689,-4.4311,-4.4586,-4.4692,-4.483,-4.5782,-4.6582,-4.7075,-4.6181,-4.6475,-4.948,-5.0021,-5.0691,-5.2483,-5.3288,0.0,-5.4628,-5.5509,-5.6145,-5.6222,-5.8649,-5.9801,-5.9023,-6.0261,-6.0968,-6.0873,-6.1618,-6.1201,-5.9508,-6.098,-6.0512,-5.7999,-5.8807,-5.8367,-5.6836,-5.7395,-5.6231,-5.3643,-5.4166,-5.3165,-5.1165,-5.0348,-4.9154,-4.77,-4.6065,-4.5824,-4.6109,-4.4577,-4.3387,-4.2216,-1.2701,-1.2919,-1.32,-1.344,-1.3774,-1.4188,-1.4736,-1.4816,-1.4937,-1.5284,-1.5578,-1.5752,-1.5752,-1.5805,-1.5832,-1.5832,-1.5832,-1.6814,-1.9216,-1.9464,-2.0549,-2.2853,-2.3105,-2.3144,-2.3144,-2.4129,-2.4676,-2.4826,-2.5838,-2.6408,-2.6533,-2.7017,-2.757,-2.8122,-2.8674,-2.9252,-2.9804,-2.9804,-2.9804,-2.9804,-2.9804,-2.9804,-2.9854,-3.0306,-3.0457,-3.0532,-3.0959,-3.0834,-3.0482,-3.0583,-3.121,-3.1964,-3.2039,-3.3091,-3.4386,-3.4492,-3.5278,-3.6184,-3.6819,-3.7868,-3.8909,-3.9348,-4.0112,-4.1033,-4.2157,-4.2069,-4.2047,-4.3269,-4.3536,-4.3922,-4.5264,-4.6855,-4.7744,-4.7074,-4.807,-4.9384,-5.0555,-5.1424,-5.2493,-5.4049,-5.4724,-5.5058,-5.5012,-5.6692,-5.7829,-5.795,-5.9727,-6.0769,-6.0612,-6.0847,-6.0759,-6.0283,-6.1029,-6.0936,-5.9804,-6.0744,-6.0158,-5.8094,-5.8808,-5.8285,-5.6809,-5.662,-5.5739,-5.4313,-5.3538,-5.2395,-5.1165,-5.0348,-4.9008,-4.7457,-4.605,-4.5824,-4.5988,-4.3287,-4.2343,-4.226,-1.2959,-1.3227,-1.3534,-1.3828,-1.4242,-1.4683,-1.5124,-1.5324,-1.5404,-1.5391,-1.5524,-1.5605,-1.5605,-1.5738,-1.5832,-1.5832,-1.6386,-1.7576,-1.9405,-2.0133,-2.1212,-2.3057,-2.3144,-2.3144,-2.3144,-2.3627,-2.4367,-2.5204,-2.5756,-2.6486,-2.7318,-2.7871,-2.8273,-2.8549,-2.9126,-2.9528,-2.9804,-2.9804,-2.9804,-2.9804,-3.0105,-3.0206,-3.0281,-3.0809,-3.1009,-3.106,-3.1311,-3.1411,-3.1436,-3.1436,-3.1788,-3.2265,-3.2566,-3.3242,-3.392,-3.4229,-3.4621,-3.5147,-3.5726,-3.6949,-3.8062,-3.8365,-3.9312,-4.0463,-4.1279,-4.1532,-4.184,-4.2631,-4.3404,-4.4178,-4.5293,-4.6656,-4.7509,-4.7418,-4.8604,-5.002,-5.1292,-5.2227,-5.3428,-5.5348,-5.6097,-5.6759,-5.7255,-5.8449,-5.8672,-5.7448,-5.9738,-6.0889,-6.0252,-6.0729,-6.0745,-6.0122,-6.1294,-6.1117,-5.9324,-6.0919,-6.0485,-5.8024,-5.8789,-5.8497,-5.7374,-5.6535,-5.5618,-5.4505,-5.3396,-5.2429,-5.1608,-5.0354,-4.8709,-4.677,-4.6137,-4.6075,-4.6013,-4.318,-4.2281,-4.2148,-1.3387,-1.3627,-1.3921,-1.4215,-1.471,-1.5137,-1.5364,-1.5645,-1.5752,-1.5524,-1.5484,-1.5484,-1.5484,-1.5698,-1.5832,-1.5832,-1.6951,-1.8226,-1.9405,-2.0657,-2.1854,-2.3057,-2.3144,-2.3144,-2.3144,-2.3144,-2.3921,-2.5641,-2.5641,-2.6426,-2.7946,-2.8624,-2.9001,-2.9126,-2.9578,-2.9804,-2.9804,-2.9804,-2.9804,-2.9854,-3.0382,-3.0608,-3.0683,-3.1311,-3.1562,-3.1587,-3.1712,-3.2014,-3.239,-3.239,-3.239,-3.2491,-3.3068,-3.3244,-3.337,-3.3922,-3.4073,-3.4198,-3.4751,-3.6058,-3.7352,-3.7395,-3.8478,-3.97,-4.0542,-4.0907,-4.1341,-4.2424,-4.373,-4.4915,-4.5424,-4.6689,-4.7809,-4.8261,-4.9381,-5.0838,-5.2463,-5.3245,-5.4504,-5.6645,-5.7271,-5.7942,-5.8798,-5.9298,-5.8795,-5.6908,-5.9529,-6.0837,-5.9871,-6.0583,-6.0738,-6.0094,-6.1614,-6.1318,-5.8977,-6.0966,-6.069,-5.8178,-5.8632,-5.8424,-5.748,-5.636,-5.5312,-5.4391,-5.3295,-5.2332,-5.1531,-5.0269,-4.8319,-4.6301,-4.6301,-4.6134,-4.5576,-4.3219,-4.2282,-4.1629,-1.3948,-1.4242,-1.4536,-1.483,-1.5137,-1.5364,-1.5391,-1.5645,-1.5818,-1.5792,-1.5792,-1.5792,-1.5792,-1.5805,-1.5832,-1.5832,-1.6951,-1.8226,-1.9405,-2.0657,-2.1854,-2.3057,-2.3144,-2.3144,-2.3144,-2.3144,-2.3921,-2.5641,-2.5641,-2.6186,-2.7394,-2.8423,-2.9202,-2.9704,-2.9754,-2.9804,-2.9804,-2.9804,-2.9804,-2.9854,-3.0382,-3.0608,-3.0733,-3.1763,-3.2139,-3.2215,-3.2717,-3.2943,-3.2993,-3.2993,-3.2993,-3.3093,-3.3646,-3.3822,-3.3922,-3.4474,-3.465,-3.4776,-3.5328,-3.6367,-3.7368,-3.7896,-3.8172,-3.8692,-4.0337,-3.9907,-3.9951,-4.2706,-4.4787,-4.6142,-4.6202,-4.8333,-5.0083,-5.0147,-5.1855,-5.3613,-5.5168,-5.5402,-5.6188,-5.827,-5.7884,-5.7409,-5.7305,-5.7618,-5.7853,-5.7939,-5.9863,-6.0991,-6.0857,-6.0939,-6.0734,-6.0132,-6.1254,-6.1197,-5.9821,-6.0316,-6.0078,-5.9007,-5.8353,-5.7446,-5.6282,-5.5215,-5.4432,-5.392,-5.2791,-5.142,-4.9959,-4.9746,-4.8319,-4.6301,-4.6301,-4.5576,-4.4389,-4.294,-4.1695,-4.0515,-1.4502,-1.471,-1.4883,-1.5177,-1.5324,-1.5458,-1.5631,-1.5752,-1.5832,-1.5832,-1.5832,-1.5832,-1.5832,-1.5832,-1.6103,-1.6857,-1.8041,-1.9314,-2.0477,-2.1676,-2.258,-2.3057,-2.3144,-2.3144,-2.3144,-2.3144,-2.3806,-2.5078,-2.5842,-2.6691,-2.7794,-2.8897,-2.9578,-2.9804,-2.9804,-2.9804,-2.9804,-3.0156,-3.0281,-3.0357,-3.121,-3.1562,-3.1662,-3.2441,-3.2742,-3.2767,-3.2993,-3.3068,-3.3119,-3.3445,-3.3345,-3.3169,-3.3721,-3.3897,-3.4073,-3.4951,-3.5228,-3.5328,-3.5881,-3.6379,-3.6852,-3.7416,-3.757,-3.7895,-3.9277,-4.0121,-4.1032,-4.2552,-4.4734,-4.6441,-4.683,-4.8817,-5.0397,-5.0397,-5.2098,-5.3815,-5.4878,-5.5437,-5.64,-5.8248,-5.854,-5.8826,-5.9397,-5.9087,-5.923,-6.007,-6.0307,-6.0582,-6.0981,-6.0863,-6.0646,-6.0416,-6.0596,-6.0294,-5.949,-5.9576,-5.9178,-5.8388,-5.7338,-5.6857,-5.6704,-5.4943,-5.3892,-5.3425,-5.2526,-5.1213,-4.9611,-4.922,-4.7858,-4.6301,-4.6301,-4.5478,-4.4182,-4.2831,-4.1581,-4.0298,-1.4889,-1.5097,-1.5177,-1.5471,-1.5524,-1.5591,-1.5792,-1.5832,-1.5832,-1.5832,-1.5832,-1.5832,-1.5832,-1.5832,-1.6292,-1.7591,-1.878,-2.0025,-2.1194,-2.2403,-2.3144,-2.3144,-2.3144,-2.3144,-2.3144,-2.3144,-2.3627,-2.4787,-2.563,-2.664,-2.787,-2.904,-2.9628,-2.9804,-2.9804,-2.9804,-2.9829,-3.0382,-3.0608,-3.0708,-3.1788,-3.2215,-3.2265,-3.2842,-3.3068,-3.3093,-3.3269,-3.3319,-3.3395,-3.3947,-3.3872,-3.3646,-3.4198,-3.4374,-3.4575,-3.5504,-3.578,-3.5906,-3.6458,-3.6609,-3.6734,-3.7287,-3.7437,-3.7688,-3.8642,-3.9972,-4.1221,-4.2543,-4.4815,-4.6826,-4.7588,-4.9166,-5.0474,-5.0779,-5.2491,-5.4106,-5.4818,-5.5552,-5.6711,-5.8418,-5.8875,-5.9457,-6.0594,-5.9858,-5.9813,-6.1032,-6.0262,-6.0066,-6.0834,-6.0654,-6.0547,-6.0599,-6.0166,-5.975,-5.9419,-5.9429,-5.9012,-5.822,-5.7682,-5.7206,-5.6971,-5.4961,-5.3827,-5.3405,-5.2661,-5.1399,-4.9886,-4.8893,-4.7652,-4.6326,-4.6502,-4.5451,-4.3752,-4.2925,-4.1525,-3.98,-1.5337,-1.5391,-1.5484,-1.5778,-1.5832,-1.5832,-1.5832,-1.5832,-1.5832,-1.5832,-1.5832,-1.5832,-1.5832,-1.5832,-1.6292,-1.7591,-1.878,-2.0025,-2.1194,-2.2403,-2.3144,-2.3144,-2.3144,-2.3144,-2.3144,-2.3144,-2.3627,-2.4787,-2.4787,-2.57,-2.7323,-2.8371,-2.9252,-2.9804,-2.9804,-2.9804,-2.9829,-3.0382,-3.0608,-3.0708,-3.1788,-3.2215,-3.2265,-3.2842,-3.3068,-3.3144,-3.3696,-3.3897,-3.3972,-3.4525,-3.47,-3.4801,-3.5353,-3.5437,-3.5629,-3.6182,-3.6358,-3.6483,-3.7036,-3.7186,-3.7312,-3.7864,-3.799,-3.814,-3.8743,-3.8969,-3.9773,-4.289,-4.5479,-4.7593,-4.8594,-4.9694,-5.0703,-5.1704,-5.3381,-5.4818,-5.561,-5.6367,-5.7543,-5.9174,-5.86,-5.8622,-5.9903,-5.8971,-5.8824,-6.0128,-5.9516,-5.9529,-6.0558,-6.0408,-6.0373,-6.0599,-6.0166,-5.9917,-5.9871,-6.0142,-5.9837,-5.9032,-5.9742,-5.8893,-5.6614,-5.4935,-5.4192,-5.4122,-5.336,-5.2159,-5.0574,-4.908,-4.7652,-4.6376,-4.6903,-4.5206,-4.2527,-4.304,-4.1347,-3.8574,-1.4218,-1.5106,-1.5725,-1.5818,-1.5832,-1.5832,-1.5832,-1.5832,-1.5832,-1.5832,-1.5832,-1.5832,-1.5832,-1.6574,-1.7591,-1.8856,-2.0025,-2.1212,-2.2492,-2.2862,-2.3144,-2.3144,-2.3144,-2.3144,-2.3144,-2.3144,-2.3299,-2.3627,-2.4467,-2.5854,-2.7846,-2.9015,-2.9628,-2.9804,-2.9804,-3.0005,-3.0382,-3.0909,-3.1361,-3.1845,-3.3276,-3.3892,-3.4001,-3.4899,-3.4815,-3.4256,-3.4829,-3.4546,-3.4048,-3.4977,-3.5278,-3.5378,-3.5931,-3.5855,-3.573,-3.6659,-3.6935,-3.7036,-3.7588,-3.7739,-3.7889,-3.8442,-3.8592,-3.8743,-3.9295,-4.0759,-4.2521,-4.4414,-4.6166,-4.7624,-4.8594,-4.9694,-5.0703,-5.1776,-5.3381,-5.4878,-5.561,-5.6644,-5.7892,-5.921,-5.9517,-5.9968,-6.081,-6.0016,-5.9894,-6.101,-6.0228,-5.9892,-6.037,-6.0266,-6.039,-6.093,-5.9925,-5.996,-6.0985,-5.9943,-5.9531,-5.9742,-5.8393,-5.675,-5.4966,-5.4948,-5.488,-5.4779,-5.2423,-5.1153,-5.0491,-4.7951,-4.6755,-4.6376,-4.6928,-4.5206,-4.2393,-4.304,-4.1368,-3.8574,-1.4459,-1.5235,-1.5832,-1.5832,-1.5832,-1.5832,-1.5832,-1.5832,-1.5832,-1.5832,-1.5832,-1.5832,-1.5832,-1.7311,-1.8688,-1.9405,-2.0567,-2.1836,-2.3057,-2.3144,-2.3144,-2.3144,-2.3144,-2.3144,-2.3144,-2.3144,-2.3144,-2.3144,-2.4638,-2.613,-2.7522,-2.9131,-2.9905,-3.0105,-3.0105,-3.0407,-3.0934,-3.1461,-3.1888,-3.2349,-3.3553,-3.4121,-3.4204,-3.4815,-3.4782,-3.451,-3.4995,-3.4919,-3.465,-3.5554,-3.5855,-3.5956,-3.6508,-3.6433,-3.6307,-3.6985,-3.7186,-3.7362,-3.8115,-3.8341,-3.8467,-3.9044,-3.917,-3.9372,-4.0185,-4.1985,-4.3882,-4.5115,-4.6432,-4.7764,-4.9135,-4.9931,-5.0855,-5.2241,-5.3905,-5.5227,-5.5861,-5.7122,-5.8405,-5.9526,-6.002,-6.0545,-6.1136,-6.0684,-6.0633,-6.128,-6.0367,-5.9836,-5.9956,-6.0217,-6.0396,-6.0388,-5.9633,-5.9646,-6.0598,-5.9761,-5.9641,-6.0114,-5.8358,-5.6738,-5.5213,-5.517,-5.5179,-5.5078,-5.2051,-5.0713,-5.0491,-4.7534,-4.6426,-4.6677,-4.7205,-4.5494,-4.2817,-4.3331,-4.1516,-3.8594,-1.5629,-1.5737,-1.5832,-1.5832,-1.5832,-1.5832,-1.5832,-1.5832,-1.5832,-1.5832,-1.5832,-1.5832,-1.5832,-1.8025,-1.9497,-1.9497,-2.0657,-2.1943,-2.3038,-2.3144,-2.3144,-2.3144,-2.3144,-2.3144,-2.3144,-2.3144,-2.3144,-2.3144,-2.54,-2.6483,-2.6565,-2.884,-3.0131,-3.0608,-3.0658,-3.0959,-3.1486,-3.1989,-3.224,-3.2315,-3.2953,-3.324,-3.324,-3.3376,-3.3619,-3.406,-3.464,-3.5102,-3.5629,-3.6182,-3.6358,-3.6458,-3.701,-3.7186,-3.7211,-3.7287,-3.7312,-3.7538,-3.8642,-3.8919,-3.9044,-3.9572,-3.9697,-4.0083,-4.1319,-4.2544,-4.3882,-4.5115,-4.6432,-4.8019,-5.0009,-5.0474,-5.1187,-5.3247,-5.4791,-5.5897,-5.6392,-5.7773,-5.9103,-6.0015,-6.0243,-6.0542,-6.0969,-6.1014,-6.1034,-6.0988,-6.0023,-5.9462,-5.9465,-6.0341,-6.0344,-5.9222,-5.9229,-5.9292,-5.9284,-5.9779,-6.0072,-6.0021,-5.9219,-5.8085,-5.68,-5.572,-5.5179,-5.4845,-5.1943,-5.0602,-5.038,-4.756,-4.6677,-4.7179,-4.7608,-4.5892,-4.3308,-4.38,-4.163,-3.8633,-1.4172,-1.514,-1.5832,-1.5832,-1.5832,-1.5832,-1.5832,-1.5832,-1.5832,-1.5832,-1.5832,-1.5832,-1.5832,-1.8025,-1.9497,-1.9497,-2.1498,-2.2775,-2.3057,-2.3144,-2.3144,-2.3144,-2.3144,-2.3144,-2.3144,-2.3144,-2.3144,-2.3144,-2.54,-2.6483,-2.6565,-2.9205,-3.0482,-3.0633,-3.1035,-3.1512,-3.2014,-3.2164,-3.2466,-3.2978,-3.3901,-3.4345,-3.4481,-3.5733,-3.5725,-3.5253,-3.6181,-3.6109,-3.5629,-3.6182,-3.6358,-3.6458,-3.701,-3.7186,-3.7362,-3.8216,-3.8467,-3.8617,-3.932,-3.9496,-3.9521,-3.9672,-3.9697,-4.0083,-4.1319,-4.2544,-4.3882,-4.5115,-4.7043,-4.8841,-5.0165,-5.1005,-5.2175,-5.4038,-5.5084,-5.6062,-5.7182,-5.8409,-5.9465,-6.019,-6.072,-6.1098,-6.1206,-6.1245,-6.1157,-6.0997,-6.036,-6.0058,-6.0295,-6.0748,-6.0461,-5.9222,-5.9763,-6.0346,-6.0809,-6.0325,-5.9731,-5.9091,-5.892,-5.7714,-5.5651,-5.5381,-5.4641,-5.3413,-5.1481,-5.0045,-4.8877,-4.7547,-4.7029,-4.7107,-4.6591,-4.5155,-4.3173,-4.2258,-4.0514,-3.8633,-1.4651,-1.5343,-1.5832,-1.5832,-1.5832,-1.5832,-1.5832,-1.5832,-1.5832,-1.5832,-1.5832,-1.6021,-1.6574,-1.7855,-1.9131,-2.0223,-2.205,-2.3144,-2.3144,-2.3144,-2.3144,-2.3144,-2.3144,-2.3144,-2.3144,-2.3144,-2.3144,-2.3144,-2.54,-2.6595,-2.6903,-2.9448,-3.0884,-3.1361,-3.1637,-3.2089,-3.2616,-3.2616,-3.2792,-3.3179,-3.3982,-3.434,-3.4477,-3.5536,-3.5757,-3.5569,-3.6187,-3.6141,-3.5956,-3.6257,-3.6533,-3.6835,-3.7387,-3.7739,-3.8115,-3.8994,-3.9069,-3.8994,-3.9546,-3.9697,-3.9697,-3.9697,-3.9697,-4.016,-4.2084,-4.3026,-4.4135,-4.6491,-4.7981,-4.9296,-5.0779,-5.1822,-5.2909,-5.4385,-5.5674,-5.6876,-5.7788,-5.8952,-5.9931,-6.0551,-6.101,-6.1266,-6.1169,-6.1264,-6.108,-6.0623,-6.0112,-5.9938,-6.0266,-6.0226,-5.9903,-5.923,-6.0296,-6.0714,-6.0347,-6.051,-6.0023,-5.8812,-5.8812,-5.7559,-5.5179,-5.5179,-5.4406,-5.2963,-5.1372,-4.982,-4.8469,-4.7459,-4.728,-4.7308,-4.6424,-4.5013,-4.3462,-4.1924,-4.0085,-3.8672,-1.5737,-1.5832,-1.5832,-1.5832,-1.5832,-1.5832,-1.5832,-1.5832,-1.5832,-1.5832,-1.5832,-1.6197,-1.7311,-1.7591,-1.8596,-2.0836,-2.1943,-2.2687,-2.3057,-2.3144,-2.3144,-2.3144,-2.3144,-2.3144,-2.3144,-2.3144,-2.3144,-2.3144,-2.5464,-2.688,-2.7392,-2.974,-3.1336,-3.2215,-3.2315,-3.2616,-3.3068,-3.3068,-3.3119,-3.3244,-3.3721,-3.3947,-3.4073,-3.465,-3.5127,-3.5554,-3.5629,-3.5981,-3.6383,-3.6458,-3.6784,-3.7287,-3.7939,-3.8467,-3.8969,-3.9521,-3.9371,-3.9094,-3.9572,-3.9697,-3.9697,-3.9697,-3.9697,-4.0364,-4.293,-4.3504,-4.4478,-4.8034,-4.8891,-4.9615,-5.1525,-5.2704,-5.3673,-5.4599,-5.6364,-5.7781,-5.8381,-5.945,-6.036,-6.0988,-6.1191,-6.1247,-6.1053,-6.1298,-6.116,-6.0323,-5.9999,-5.9928,-6.024,-5.9724,-5.9378,-5.937,-6.0599,-6.0665,-5.937,-6.0603,-6.0357,-5.8812,-5.8632,-5.7371,-5.5179,-5.5179,-5.4363,-5.2652,-5.1319,-4.9816,-4.8381,-4.7516,-4.7556,-4.7833,-4.6381,-4.511,-4.3841,-4.1749,-4.0002,-3.8789,-1.5629,-1.5832,-1.5832,-1.5832,-1.5832,-1.5832,-1.5832,-1.5832,-1.5832,-1.5832,-1.5832,-1.5927,-1.6103,-1.7044,-1.8226,-1.9679,-1.9951,-2.0944,-2.295,-2.3144,-2.3144,-2.3144,-2.3144,-2.3144,-2.3144,-2.3144,-2.3144,-2.3144,-2.5872,-2.7217,-2.7392,-3.0493,-3.2064,-3.224,-3.2717,-3.2993,-3.3068,-3.3068,-3.3345,-3.3771,-3.3872,-3.4173,-3.465,-3.5203,-3.5479,-3.5604,-3.6081,-3.6282,-3.6433,-3.6885,-3.7111,-3.7362,-3.8417,-3.8793,-3.8969,-3.9521,-3.9647,-3.9597,-3.9672,-3.9697,-3.9697,-3.9697,-3.9697,-4.0364,-4.293,-4.3504,-4.4478,-4.8034,-4.9536,-5.055,-5.1671,-5.3247,-5.4599,-5.5437,-5.6711,-5.795,-5.9101,-5.9815,-6.0514,-6.118,-6.1373,-6.1421,-6.1261,-6.191,-6.1953,-6.1171,-6.1368,-6.1657,-6.1917,-6.0857,-6.0203,-6.022,-6.0403,-6.0598,-6.0926,-6.0832,-6.0063,-5.8812,-5.7807,-5.6541,-5.5179,-5.5179,-5.3914,-5.1822,-5.1045,-4.9702,-4.8002,-4.7881,-4.8134,-4.8407,-4.5559,-4.4323,-4.3703,-4.0249,-3.9082,-3.918,-1.5629,-1.5832,-1.5832,-1.5832,-1.5832,-1.5832,-1.5832,-1.5832,-1.5885,-1.6046,-1.5925,-1.6075,-1.6989,-1.6862,-1.739,-1.9314,-1.8948,-1.9588,-2.1943,-2.212,-2.2403,-2.3057,-2.3144,-2.3144,-2.3144,-2.3144,-2.3144,-2.3144,-2.5183,-2.6735,-2.7798,-3.0081,-3.1748,-3.2692,-3.2968,-3.3068,-3.3093,-3.3395,-3.3671,-3.3947,-3.455,-3.4926,-3.5228,-3.578,-3.5981,-3.6006,-3.6282,-3.6558,-3.6835,-3.7111,-3.7588,-3.8191,-3.8693,-3.9069,-3.9371,-3.9622,-3.9697,-3.9697,-3.9697,-3.9697,-3.9697,-3.9697,-4.0262,-4.1219,-4.3122,-4.4069,-4.5483,-4.891,-5.0087,-5.0855,-5.2487,-5.4132,-5.532,-5.5667,-5.7324,-5.8763,-5.9319,-6.0137,-6.0825,-6.125,-6.133,-6.1364,-6.1305,-6.1524,-6.1479,-6.0942,-6.1117,-6.1391,-6.192,-6.0539,-6.0155,-6.0999,-6.0497,-6.0734,-6.1873,-6.1068,-5.9957,-5.8812,-5.7527,-5.6347,-5.5209,-5.4657,-5.321,-5.1043,-5.0634,-4.9324,-4.7531,-4.8134,-4.8535,-4.8557,-4.5272,-4.4273,-4.3941,-4.0306,-3.9199,-3.9648,-1.5939,-1.5939,-1.5952,-1.6019,-1.5979,-1.5939,-1.5939,-1.5872,-1.5912,-1.6139,-1.5965,-1.6293,-1.7457,-1.6524,-1.6655,-1.8856,-1.8226,-1.8688,-2.1105,-2.1302,-2.1854,-2.3057,-2.3144,-2.3144,-2.3144,-2.3242,-2.3301,-2.3301,-2.4948,-2.6625,-2.8294,-2.9584,-3.1216,-3.3068,-3.2785,-3.286,-3.3294,-3.3721,-3.4048,-3.4349,-3.5203,-3.5629,-3.578,-3.6207,-3.6358,-3.6383,-3.6508,-3.6835,-3.7236,-3.7487,-3.8165,-3.8894,-3.9019,-3.9346,-3.9697,-3.9697,-3.9697,-3.9697,-3.9697,-3.9697,-3.98,-4.0083,-4.0844,-4.1985,-4.3598,-4.472,-4.6315,-4.9742,-5.0397,-5.1038,-5.311,-5.473,-5.5745,-5.5842,-5.7832,-5.9424,-5.9526,-6.0398,-6.1116,-6.1292,-6.1324,-6.1339,-6.1317,-6.1383,-6.1287,-6.0898,-6.113,-6.1487,-6.1863,-6.0331,-5.9972,-6.1134,-6.0652,-6.0917,-6.1997,-6.0787,-5.961,-5.836,-5.7181,-5.6176,-5.5418,-5.4206,-5.276,-5.1263,-5.0335,-4.9101,-4.7757,-4.8485,-4.8582,-4.8041,-4.5321,-4.4219,-4.3731,-4.0605,-3.9648,-4.0098,-1.6246,-1.6246,-1.6326,-1.6593,-1.642,-1.6246,-1.6246,-1.6005,-1.5832,-1.5858,-1.5845,-1.5832,-1.5953,-1.5845,-1.6386,-1.7684,-1.7777,-1.8688,-2.1105,-2.1302,-2.1854,-2.3057,-2.3144,-2.3144,-2.3144,-2.3535,-2.375,-2.375,-2.5817,-2.742,-2.8746,-2.9218,-3.073,-3.3068,-3.1865,-3.2244,-3.3847,-3.3872,-3.45,-3.5429,-3.5504,-3.5855,-3.6307,-3.6332,-3.6358,-3.6433,-3.6935,-3.7161,-3.7337,-3.8391,-3.8793,-3.8969,-3.9471,-3.9672,-3.9697,-3.9697,-3.9697,-3.9697,-3.9697,-3.9697,-3.9981,-4.1119,-4.1492,-4.2279,-4.472,-4.5298,-4.6315,-4.9742,-5.0397,-5.1038,-5.311,-5.473,-5.5842,-5.6273,-5.8053,-5.9526,-5.9977,-6.075,-6.1271,-6.1292,-6.1417,-6.1456,-6.1296,-6.2118,-6.2416,-6.1768,-6.2732,-6.3185,-6.2745,-6.1157,-6.0268,-6.0245,-6.0867,-6.1065,-6.0754,-5.9522,-5.836,-5.7086,-5.5918,-5.561,-5.6077,-5.3943,-5.3071,-5.3082,-5.0415,-4.9386,-4.9389,-4.8962,-4.809,-4.6798,-4.5256,-4.3687,-4.1937,-4.0395,-4.0117,-4.0488,-1.6032,-1.6286,-1.6513,-1.6446,-1.6339,-1.6339,-1.6513,-1.6139,-1.5965,-1.6326,-1.6059,-1.5899,-1.6086,-1.5939,-1.6021,-1.648,-1.7217,-1.8411,-2.0025,-2.0836,-2.1854,-2.3057,-2.3144,-2.3262,-2.3535,-2.3711,-2.3906,-2.418,-2.5232,-2.6424,-2.7618,-2.8093,-2.9759,-3.2487,-3.1992,-3.2755,-3.4424,-3.4776,-3.5152,-3.5579,-3.5906,-3.6182,-3.6408,-3.6734,-3.6885,-3.6935,-3.7487,-3.7939,-3.8291,-3.8718,-3.9094,-3.9421,-3.9622,-3.9697,-3.9697,-3.9697,-3.9697,-3.9697,-3.9697,-3.9697,-4.0056,-4.1765,-4.2816,-4.3973,-4.6175,-4.7406,-4.8645,-5.0644,-5.1177,-5.1888,-5.3813,-5.4999,-5.6007,-5.7,-5.8412,-5.9601,-6.0144,-6.0839,-6.1334,-6.1389,-6.1401,-6.1542,-6.1997,-6.1927,-6.207,-6.2559,-6.2732,-6.2586,-6.2093,-6.1379,-6.0774,-6.0156,-6.0604,-6.0771,-6.0586,-5.9434,-5.8177,-5.6991,-5.5819,-5.507,-5.4691,-5.3266,-5.2118,-5.1282,-5.0052,-4.9392,-4.9088,-4.9213,-4.8281,-4.6713,-4.5324,-4.3741,-4.223,-4.0833,-4.0566,-4.0918,-1.6126,-1.6433,-1.67,-1.6687,-1.6607,-1.658,-1.6687,-1.6286,-1.6086,-1.6393,-1.6086,-1.5912,-1.6112,-1.5952,-1.5832,-1.5832,-1.6951,-1.8056,-1.8856,-2.0387,-2.1854,-2.3057,-2.3262,-2.3477,-2.3789,-2.4043,-2.4336,-2.4629,-2.5059,-2.5919,-2.7117,-2.7432,-2.9223,-3.2122,-3.2122,-3.3168,-3.5002,-3.5378,-3.5655,-3.583,-3.6207,-3.6358,-3.6408,-3.6985,-3.7186,-3.7287,-3.8015,-3.8542,-3.8894,-3.9069,-3.9371,-3.9697,-3.9697,-3.9697,-3.9722,-3.9898,-3.9823,-3.9825,-4.0389,-4.0619,-4.1003,-4.2758,-4.4358,-4.5807,-4.7317,-4.8799,-5.0019,-5.0929,-5.1512,-5.2457,-5.4259,-5.5203,-5.617,-5.7602,-5.8687,-5.9635,-6.0408,-6.0973,-6.1311,-6.1414,-6.1562,-6.1865,-6.2406,-6.2099,-6.2231,-6.3049,-6.2715,-6.2083,-6.125,-6.1125,-6.0731,-6.008,-6.0203,-6.0187,-6.0075,-5.8812,-5.7621,-5.6445,-5.5862,-5.5056,-5.4093,-5.291,-5.1828,-5.0706,-4.9798,-4.9213,-4.9063,-4.8942,-4.7774,-4.6029,-4.4731,-4.3354,-4.1841,-4.0986,-4.0918,-4.1172,-1.6647,-1.67,-1.6887,-1.7475,-1.7341,-1.7048,-1.6754,-1.646,-1.6166,-1.5872,-1.5832,-1.5832,-1.5832,-1.5832,-1.5832,-1.5832,-1.6951,-1.7684,-1.7684,-1.9951,-2.1854,-2.3057,-2.3555,-2.3789,-2.3809,-2.4629,-2.5059,-2.5078,-2.5527,-2.638,-2.76,-2.76,-2.9223,-3.2146,-3.2146,-3.3387,-3.5554,-3.5554,-3.5855,-3.6358,-3.6358,-3.6358,-3.6433,-3.6985,-3.7186,-3.7337,-3.8467,-3.8868,-3.8969,-3.9521,-3.9697,-3.9697,-3.9697,-3.9697,-3.9798,-4.035,-4.0124,-4.0107,-4.1925,-4.2563,-4.2965,-4.4221,-4.5949,-4.7521,-4.8149,-4.9078,-4.9895,-5.0324,-5.1229,-5.2457,-5.4259,-5.5203,-5.6259,-5.8016,-5.8915,-5.9798,-6.0863,-6.1164,-6.1314,-6.1327,-6.2009,-6.2471,-6.2329,-6.2807,-6.3088,-6.3088,-6.288,-6.2112,-6.0494,-6.0342,-6.0286,-6.008,-5.9705,-5.9239,-5.8812,-5.7621,-5.6347,-5.5209,-5.5867,-5.5706,-5.4725,-5.3219,-5.238,-5.1812,-4.9722,-4.9088,-4.9511,-4.8112,-4.638,-4.4642,-4.3614,-4.2098,-4.0586,-4.1016,-4.1172,-4.1172,-1.642,-1.674,-1.7074,-1.7248,-1.7208,-1.7114,-1.7034,-1.6593,-1.6246,-1.6152,-1.5965,-1.5832,-1.5832,-1.5832,-1.5832,-1.5832,-1.6951,-1.8056,-1.8948,-1.982,-2.0893,-2.2298,-2.3261,-2.4062,-2.4668,-2.4941,-2.5215,-2.5527,-2.5664,-2.6074,-2.6763,-2.7696,-2.9428,-3.1865,-3.2842,-3.4287,-3.6107,-3.6107,-3.6207,-3.6383,-3.6784,-3.6935,-3.7036,-3.8015,-3.8366,-3.8467,-3.9195,-3.9446,-3.9471,-3.9647,-3.9697,-3.9697,-3.9697,-3.9948,-4.03,-4.0475,-4.0676,-4.117,-4.2734,-4.4151,-4.5348,-4.6328,-4.7272,-4.842,-4.9994,-5.0999,-5.1579,-5.171,-5.2843,-5.4097,-5.5203,-5.6241,-5.7464,-5.884,-5.9521,-6.0179,-6.108,-6.1801,-6.2232,-6.2331,-6.2994,-6.3469,-6.3558,-6.3296,-6.32,-6.3439,-6.1995,-6.1129,-6.1176,-6.0532,-6.0047,-5.9657,-5.9272,-5.8499,-5.7527,-5.715,-5.6592,-5.5867,-5.6077,-5.5382,-5.3748,-5.3287,-5.2071,-5.0308,-4.9671,-4.9439,-4.9461,-4.7678,-4.6168,-4.4598,-4.3252,-4.1814,-4.0586,-4.1016,-4.1172,-4.1016,-1.5708,-1.6075,-1.6549,-1.7198,-1.7315,-1.7248,-1.7007,-1.6767,-1.65,-1.6139,-1.6046,-1.5965,-1.5845,-1.5832,-1.5832,-1.5832,-1.648,-1.7276,-1.8224,-1.8785,-1.97,-2.0853,-2.2571,-2.3954,-2.5059,-2.5234,-2.5469,-2.5742,-2.5918,-2.6133,-2.6486,-2.846,-3.0198,-3.1811,-3.3577,-3.5149,-3.6383,-3.6584,-3.6684,-3.6734,-3.7287,-3.7513,-3.7613,-3.8517,-3.8868,-3.8944,-3.9496,-3.9697,-3.9697,-3.9697,-3.9697,-3.9747,-3.9948,-4.0249,-4.0601,-4.1028,-4.1254,-4.1783,-4.3907,-4.5329,-4.6628,-4.8159,-4.8945,-4.9633,-5.0594,-5.1847,-5.2652,-5.2077,-5.3603,-5.5166,-5.5588,-5.6762,-5.803,-5.921,-6.0134,-6.0828,-6.1257,-6.2375,-6.3077,-6.2736,-6.3669,-6.4216,-6.4013,-6.3757,-6.3416,-6.2878,-6.1559,-6.0882,-6.102,-6.0724,-6.0259,-5.9498,-5.9046,-5.8268,-5.6991,-5.6787,-5.6495,-5.6166,-5.5857,-5.4806,-5.333,-5.2988,-5.1646,-4.959,-4.959,-4.959,-4.9486,-4.7139,-4.5667,-4.4768,-4.2857,-4.1554,-4.082,-4.1074,-4.1172,-4.0841,-1.4677,-1.5116,-1.5615,-1.7095,-1.745,-1.7355,-1.6579,-1.6839,-1.6807,-1.5939,-1.6072,-1.6126,-1.5858,-1.5832,-1.5832,-1.5832,-1.5858,-1.5979,-1.6259,-1.7466,-1.8521,-1.932,-2.1739,-2.3758,-2.5176,-2.5586,-2.5801,-2.5801,-2.623,-2.6465,-2.6604,-2.9504,-3.1113,-3.1878,-3.4387,-3.5862,-3.6458,-3.701,-3.7262,-3.7312,-3.7864,-3.809,-3.814,-3.8718,-3.8944,-3.9019,-3.9521,-3.9697,-3.9697,-3.9697,-3.9722,-3.9848,-4.035,-4.0576,-4.0852,-4.1856,-4.1831,-4.22,-4.5343,-4.6293,-4.6995,-4.9622,-5.078,-5.105,-5.0543,-5.2027,-5.3181,-5.1963,-5.3914,-5.5784,-5.5808,-5.6862,-5.8116,-5.921,-6.0703,-6.1593,-6.1443,-6.3004,-6.3833,-6.2844,-6.4152,-6.4803,-6.3924,-6.41,-6.3562,-6.1842,-6.1568,-6.1219,-6.0565,-6.0904,-6.0604,-5.9514,-5.8903,-5.8085,-5.68,-5.6385,-5.6196,-5.6256,-5.5313,-5.4459,-5.3441,-5.2459,-5.1142,-4.959,-4.964,-4.9665,-4.9481,-4.6589,-4.5453,-4.5158,-4.2272,-4.1133,-4.1172,-4.1172,-4.1172,-4.0841,-1.492,-1.5704,-1.6228,-1.5976,-1.6637,-1.6806,-1.5316,-1.6036,-1.6567,-1.5912,-1.5885,-1.5899,-1.5832,-1.5832,-1.5832,-1.5832,-1.6046,-1.6206,-1.6273,-1.7966,-1.9483,-2.0702,-2.2589,-2.4313,-2.6094,-2.6191,-2.625,-2.625,-2.668,-2.7051,-2.7486,-2.9164,-3.073,-3.2297,-3.4304,-3.5966,-3.7036,-3.7588,-3.7839,-3.7889,-3.8442,-3.8668,-3.8743,-3.9295,-3.9521,-3.9521,-3.9647,-3.9697,-3.9697,-3.9697,-3.9973,-4.035,-4.0475,-4.1103,-4.1856,-4.2082,-4.2384,-4.3271,-4.6152,-4.6901,-4.7612,-5.0301,-5.1109,-5.1449,-5.2121,-5.2941,-5.3681,-5.4276,-5.5572,-5.6622,-5.6653,-5.7936,-5.9102,-5.9354,-6.0971,-6.2205,-6.2307,-6.3787,-6.4805,-6.4555,-6.5009,-6.5052,-6.4327,-6.3611,-6.2952,-6.247,-6.1889,-6.1647,-6.2021,-6.0661,-5.9595,-5.9,-5.7898,-5.68,-5.5651,-5.6041,-5.6406,-5.6885,-5.5983,-5.514,-5.4075,-5.2647,-5.1142,-4.9615,-5.0042,-5.0243,-5.0006,-4.6889,-4.5796,-4.5745,-4.2049,-4.0879,-4.1172,-4.1172,-4.1172,-4.0685,-1.3093,-1.4162,-1.4897,-1.4511,-1.5529,-1.594,-1.4706,-1.5897,-1.666,-1.5925,-1.5952,-1.5992,-1.5845,-1.5832,-1.5885,-1.6032,-1.6179,-1.6393,-1.6673,-1.8268,-1.9613,-2.0358,-2.2736,-2.4482,-2.5428,-2.6473,-2.6894,-2.668,-2.7109,-2.7441,-2.778,-2.9271,-3.1025,-3.2814,-3.4481,-3.6086,-3.7613,-3.8191,-3.8417,-3.8467,-3.9044,-3.927,-3.9295,-3.9597,-3.9697,-3.9697,-3.9697,-3.9697,-3.9747,-3.9998,-4.0275,-4.0601,-4.1128,-4.1681,-4.2208,-4.2459,-4.276,-4.3602,-4.637,-4.7094,-4.7707,-5.0508,-5.1229,-5.1479,-5.2664,-5.3458,-5.4358,-5.5526,-5.6992,-5.801,-5.8034,-5.9424,-6.0597,-6.0597,-6.2309,-6.3513,-6.3197,-6.4719,-6.562,-6.5178,-6.529,-6.504,-6.4096,-6.3283,-6.2585,-6.2141,-6.2046,-6.1987,-6.1958,-6.0725,-5.9683,-5.8812,-5.7621,-5.6445,-5.5179,-5.6137,-5.6452,-5.5977,-5.5135,-5.4622,-5.4268,-5.1989,-5.0589,-5.0017,-5.0293,-4.9992,-4.9145,-4.6862,-4.5489,-4.4586,-4.1927,-4.0976,-4.1172,-4.1172,-3.9864,-3.7737,-1.1109,-1.2271,-1.3116,-1.294,-1.4308,-1.5106,-1.4367,-1.5946,-1.6847,-1.6019,-1.6126,-1.6152,-1.5858,-1.5872,-1.6005,-1.6246,-1.6366,-1.6633,-1.7217,-1.8702,-1.9781,-2.0013,-2.2963,-2.4757,-2.4886,-2.6749,-2.748,-2.7129,-2.7559,-2.7773,-2.7898,-2.9306,-3.1061,-3.2886,-3.4175,-3.5824,-3.7867,-3.844,-3.8791,-3.9044,-3.9521,-3.9697,-3.9697,-3.9697,-3.9697,-3.9697,-3.9697,-3.9747,-3.9923,-4.0475,-4.0727,-4.0953,-4.1856,-4.2208,-4.2384,-4.2836,-4.2986,-4.3602,-4.637,-4.7094,-4.7707,-5.0508,-5.1229,-5.1572,-5.29,-5.3913,-5.5037,-5.6528,-5.8089,-5.9277,-5.9542,-6.0853,-6.1953,-6.2027,-6.3781,-6.4865,-6.4178,-6.5496,-6.6275,-6.5436,-6.5268,-6.4822,-6.381,-6.3069,-6.2462,-6.1919,-6.2298,-6.2066,-6.12,-6.0622,-5.9697,-5.8542,-5.7339,-5.6183,-5.5179,-5.6466,-5.6297,-5.4754,-5.3974,-5.3771,-5.391,-5.102,-4.9992,-5.0419,-5.0619,-4.9829,-4.8258,-4.6939,-4.5113,-4.3273,-4.1768,-4.1172,-4.1172,-4.1172,-3.839,-3.4651,-1.1109,-1.2042,-1.251,-1.162,-1.3422,-1.4641,-1.3215,-1.5439,-1.6927,-1.6299,-1.6246,-1.6152,-1.5858,-1.6059,-1.6233,-1.6273,-1.674,-1.7061,-1.7141,-1.9796,-2.1538,-2.1914,-2.4583,-2.6517,-2.7253,-2.7493,-2.7637,-2.7578,-2.8008,-2.8203,-2.8223,-2.8849,-2.991,-3.136,-3.2361,-3.4263,-3.6932,-3.746,-3.846,-3.9597,-3.9672,-3.9697,-3.9697,-3.9697,-3.9697,-3.9697,-3.9697,-3.9998,-4.0501,-4.1053,-4.153,-4.1957,-4.2108,-4.2484,-4.2886,-4.2961,-4.2986,-4.3602,-4.637,-4.7094,-4.7707,-5.0508,-5.1229,-5.1727,-5.3913,-5.4505,-5.5404,-5.8263,-5.9011,-5.9588,-6.072,-6.1464,-6.21,-6.2672,-6.4096,-6.511,-6.517,-6.5897,-6.6373,-6.6242,-6.5226,-6.4397,-6.4046,-6.3203,-6.2928,-6.3441,-6.2891,-6.1941,-6.0755,-5.9664,-5.8542,-5.7245,-5.6085,-5.5381,-5.5179,-5.6466,-5.6297,-5.4754,-5.4422,-5.3588,-5.2236,-5.0921,-5.0343,-5.0469,-5.1448,-5.0739,-4.8942,-4.7463,-4.5762,-4.3861,-4.1888,-4.1172,-4.1172,-4.1172,-3.839,-3.4651,-1.0158,-1.1,-1.1441,-1.0116,-1.2224,-1.3816,-1.2951,-1.5243,-1.6941,-1.6353,-1.6273,-1.6152,-1.5858,-1.6099,-1.6339,-1.65,-1.6901,-1.7221,-1.7382,-2.0339,-2.2142,-2.2308,-2.5348,-2.7285,-2.7656,-2.7891,-2.8125,-2.8359,-2.832,-2.8418,-2.8652,-2.8828,-2.9908,-3.1797,-3.2196,-3.4141,-3.7144,-3.7358,-3.8348,-3.9697,-3.9697,-3.9697,-3.9697,-3.9697,-3.9898,-4.0199,-4.0501,-4.0777,-4.1053,-4.1605,-4.1957,-4.2208,-4.2509,-4.2986,-4.3438,-4.3438,-4.3438,-4.4061,-4.6781,-4.7371,-4.7707,-5.0508,-5.1635,-5.2575,-5.4253,-5.5052,-5.6316,-5.9278,-5.9901,-6.0433,-6.2242,-6.293,-6.3499,-6.4187,-6.5139,-6.5879,-6.594,-6.6198,-6.6299,-6.5963,-6.5421,-6.4987,-6.483,-6.3877,-6.344,-6.3795,-6.2957,-6.1907,-6.067,-5.9434,-5.8268,-5.7086,-5.5819,-5.5359,-5.5718,-5.5748,-5.5227,-5.3978,-5.3353,-5.27,-5.1989,-5.0895,-5.0594,-5.0946,-5.0567,-4.9483,-4.7728,-4.6058,-4.4247,-4.233,-4.1463,-4.1172,-4.1016,-3.9864,-3.7419,-3.4489]}]]